     2.11           OBSERVATION DATA    G (GPS)             RINEX VERSION / TYPE
teqc 2010Oct21 OPUS Account 20111025 20:20:10UTC            PGM / RUN BY / DATE
3452                                                        MARKER NAME
1118                                                        MARKER NUMBER
CSMIDDLETON NGS                                             OBSERVER / AGENCY
4613K00970 TRIMBLE NETR5 4.17                               REC # / TYPE / VERS
60125046 TRM41249.00 NONE                                   ANT # / TYPE
  -738979.3679 -5482681.7335  3163679.6839                  APPROX POSITION XYZ
        2.0040        0.0000        0.0000                  ANTENNA: DELTA H/E/N
     1     1                                                WAVELENGTH FACT L1/2
     5    L1    L2    C1    P1    P2                        # / TYPES OF OBSERV
    15                                                      LEAP SECONDS
  2011     7    29     0     0    0.0000000     GPS         TIME OF FIRST OBS
                                                            END OF HEADER
 11  7 29  0  0  0.0000000  0  8G10G28G17G09G04G20G02G27
 123053172.238 6  95885660.77443  23416228.844                    23416240.230
 114975434.894 7  89591342.79145  21879095.461                    21879102.734
 112593114.805 8  87735012.596 7  21425741.047                    21425748.414
 116397871.154 7  90699723.17845  22149787.039                    22149795.660
 104553675.505 8  81470555.51746  19895889.281                    19895897.586
 127550065.473 5  99389618.38342  24271940.992                    24271950.695
 116799007.690 8  91012346.73445  22226103.242                    22226109.418
 117751022.991 7  91754097.57245  22407271.586                    22407280.434
 11  7 29  0  0 30.0000000  0  8G10G28G17G09G04G20G02G27
 122959875.877 6  95812962.42243  23398475.180                    23398485.547
 115028374.321 7  89632594.26645  21889169.445                    21889176.555
 112624678.760 7  87759607.870 7  21431747.430                    21431754.793
 116374508.116 7  90681518.22045  22145341.430                    22145349.637
 104543442.811 8  81462581.99046  19893942.164                    19893949.859
 127588542.875 5  99419600.78442  24279264.453                    24279273.059
 116721489.799 7  90951943.25045  22211351.703                    22211358.277
 117743814.288 7  91748480.39945  22405899.977                    22405908.613
 11  7 29  0  1  0.0000000  0  8G10G28G17G09G04G20G02G27
 122866647.525 6  95740317.11043  23380734.367                    23380745.004
 115081686.569 7  89674136.24745  21899314.180                    21899321.961
 112656333.593 8  87784273.968 7  21437770.813                    21437778.133
 116351782.715 7  90663810.14145  22141017.188                    22141024.668
 104533780.024 8  81455052.55846  19892103.344                    19892111.477
 127627508.776 5  99449963.84642  24286679.211                    24286687.727
 116644272.616 8  90891774.07945  22196657.922                    22196664.242
 117737096.521 7  91743245.77145  22404621.508                    22404630.141
 11  7 29  0  1 30.0000000  0  8G10G28G17G09G04G20G02G27
 122773490.955 6  95667727.70643  23363007.102                    23363018.168
 115135371.556 7  89715968.66845  21909530.016                    21909537.809
 112688079.240 7  87809010.821 7  21443811.703                    21443819.332
 116329695.765 7  90646599.53144  22136813.008                    22136821.770
 104524687.073 8  81447967.15746  19890373.242                    19890381.008
 127666962.567 6  99480707.04742  24294186.641                    24294195.313
 116567357.073 8  90831839.95745  22182020.750                    22182027.883
 117730869.664 7  91738393.66345  22403436.742                    22403445.633
 11  7 29  0  2  0.0000000  0  8G10G28G17G09G04G20G02G27
 122680409.376 6  95595196.73043  23345293.328                    23345304.293
 115189429.406 7  89758091.63645  21919816.883                    21919824.523
 112719915.140 8  87833817.998 7  21449870.047                    21449877.320
 116308247.581 7  90629886.66144  22132732.188                    22132740.285
 104516163.118 8  81441325.12046  19888751.359                    19888758.863
 127706903.087 6  99511829.53142  24301787.000                    24301795.875
 116490744.564 8  90772141.96145  22167442.344                    22167448.711
 117725133.553 7  91733923.96645  22402345.203                    22402353.496
 11  7 29  0  2 30.0000000  0  8G10G28G17G09G04G20G02G27
 122587405.356 6  95522726.19443  23327595.875                    23327606.656
 115243859.358 7  89800504.55045  21930174.789                    21930182.039
 112751840.998 8  87858695.283 7  21455945.469                    21455952.848
 116287438.346 7  90613671.67544  22128772.258                    22128780.316
 104508207.609 8  81435126.03946  19887237.109                    19887245.094
 127747329.498 6  99543330.64142  24309480.023                    24309489.070
 116414436.005 8  90712680.80445  22152921.227                    22152927.844
 117719887.594 7  91729836.19745  22401346.953                    22401355.469
 11  7 29  0  3  0.0000000  0  8G10G28G17G09G04G20G02G27
 122494482.993 6  95450319.30343  23309913.570                    23309924.512
 115298662.436 7  89843208.20745  21940603.875                    21940611.094
 112783857.562 8  87883643.240 7  21462037.969                    21462045.438
 116267268.963 7  90597955.27444  22124934.672                    22124942.891
 104500820.545 8  81429369.90846  19885831.859                    19885839.820
 127788241.634 6  99575210.18342  24317265.219                    24317274.371
 116338433.631 8  90653458.22545  22138458.609                    22138465.348
 117715132.376 7  91726130.81145  22400442.398                    22400450.762
 11  7 29  0  3 30.0000000  0  8G10G28G17G09G04G20G02G27
 122401644.663 6  95377977.87443  23292246.977                    23292256.520
 115353837.997 7  89886202.11745  21951103.141                    21951110.555
 112815964.041 8  87908661.267 7  21468147.922                    21468155.262
 116247738.990 7  90582737.11844  22121217.414                    22121226.594
 104494000.757 8  81424055.80346  19884533.688                    19884541.801
 127829638.110 5  99607467.17542  24325142.148                    24325152.090
 116262737.794 7  90594474.51145  22124054.258                    22124060.332
 117710866.780 7  91722806.95545  22399630.891                    22399638.996
 11  7 29  0  4  0.0000000  0  8G10G28G17G09G04G20G02G27
 122308893.888 6  95305704.67244  23274597.484                    23274606.836
 115409385.952 7  89929486.20445  21961673.500                    21961681.129
 112848159.592 7  87933748.691 7  21474274.336                    21474281.711
 116228849.287 7  90568017.86744  22117622.961                    22117631.664
 104487747.907 8  81419183.46346  19883343.734                    19883351.758
 127871518.312 6  99640101.03142  24333112.289                    24333121.148
 116187350.061 8  90535730.87845  22109707.953                    22109714.781
 117707090.961 7  91719864.74145  22398911.797                    22398920.176
 11  7 29  0  4 30.0000000  0  8G10G28G17G09G04G20G02G27
 122216233.387 6  95233501.83744  23256964.461                    23256975.063
 115465305.661 7  89973059.96945  21972314.602                    21972322.738
 112880443.906 7  87958905.290 7  21480417.281                    21480425.512
 116210599.296 7  90553797.09745  22114150.203                    22114158.523
 104482060.874 8  81414752.02646  19882261.500                    19882269.863
 127913880.672 6  99673110.61842  24341173.398                    24341182.945
 116112271.087 8  90477227.83145  22095420.844                    22095427.629
 117703804.041 7  91717303.48745  22398286.328                    22398295.074
 11  7 29  0  5  0.0000000  0  8G10G28G17G09G04G20G02G27
 122123667.054 6  95161372.37344  23239349.492                    23239359.637
 115521597.608 7  90016923.79245  21983026.492                    21983034.426
 112912817.141 7  87984131.173 7  21486578.289                    21486585.363
 116192990.171 7  90540075.70245  22110799.516                    22110807.863
 104476939.804 8  81410761.59546  19881287.016                    19881294.859
 127956724.908 6  99706495.68543  24349326.961                    24349335.578
 116037502.953 8  90418966.98845  22081193.000                    22081199.324
 117701006.234 7  91715123.36545  22397754.133                    22397762.496
 11  7 29  0  5 30.0000000  0  8G10G28G17G09G04G20G02G27
 122031197.718 6  95089318.48244  23221752.547                    23221763.609
 115578261.010 7  90061077.06845  21993809.445                    21993817.160
 112945278.899 7  88009426.033 7  21492755.352                    21492762.992
 116176021.450 7  90526853.32845  22107570.273                    22107578.688
 104472383.398 8  81407211.16046  19880419.836                    19880427.617
 128000049.577 6  99740255.15643  24357571.938                    24357579.652
 115963046.130 8  90360948.73245  22067024.500                    22067031.047
 117698696.694 7  91713323.70845  22397314.297                    22397323.008
 11  7 29  0  6  0.0000000  0  8G10G28G17G09G04G20G02G27
 121938828.650 7  95017342.74144  23204175.305                    23204186.445
 115635295.951 7  90105519.84045  22004662.992                    22004670.445
 112977829.124 7  88034789.834 7  21498949.477                    21498956.484
 116159693.517 7  90514130.27345  22104463.289                    22104471.980
 104468391.299 8  81404100.45346  19879660.344                    19879668.023
 128043853.770 6  99774388.31842  24365906.781                    24365914.641
 115888902.184 8  90303174.28145  22052915.219                    22052921.531
 117696875.436 7  91711904.53145  22396967.914                    22396976.613
 11  7 29  0  6 30.0000000  0  8G10G28G17G09G04G20G02G27
 121846563.890 6  94945448.24544  23186617.516                    23186627.777
 115692703.195 7  90150252.73145  22015587.203                    22015594.734
 113010468.229 7  88060222.879 7  21505160.570                    21505168.203
 116144007.413 7  90501907.33245  22101477.938                    22101487.031
 104464963.606 8  81401429.52646  19879008.352                    19879016.285
 128088137.319 6  99808894.95443  24374334.250                    24374342.086
 115815072.842 7  90245644.96445  22038865.789                    22038871.988
 117695542.579 7  91710865.92145  22396714.320                    22396722.668
 11  7 29  0  7  0.0000000  0  8G10G28G17G09G04G20G02G27
 121754405.483 6  94873636.65944  23169080.852                    23169090.578
 115750480.678 7  90195274.11345  22026581.953                    22026589.398
 113043194.578 7  88085723.921 7  21511388.367                    21511395.613
 116128961.874 7  90490183.54445  22098615.547                    22098623.855
 104462097.995 8  81399196.59446  19878462.961                    19878470.695
 128132897.905 6  99843773.33243  24382852.445                    24382860.059
 115741557.981 8  90188360.70545  22024876.609                    22024883.125
 117694696.229 7  91710206.41545  22396553.016                    22396561.730
 11  7 29  0  7 30.0000000  0  8G10G28G17G09G04G20G02G27
 121662357.346 6  94801910.95044  23151564.188                    23151574.172
 115808629.448 7  90240584.80845  22037647.359                    22037654.574
 113076009.127 7  88111293.695 7  21517632.602                    21517640.309
 116114557.559 7  90478959.40845  22095874.328                    22095882.813
 104459794.705 8  81397401.83046  19878024.391                    19878032.445
 128178135.422 6  99879023.31943  24391460.734                    24391468.309
 115668359.581 8  90131323.03745  22010947.086                    22010953.859
 117694337.068 7  91709926.52645  22396484.945                    22396493.418
 11  7 29  0  8  0.0000000  0  8G10G28G17G09G04G20G02G27
 121570422.587 6  94730273.63244  23134069.047                    23134080.215
 115867148.900 7  90286184.36745  22048783.414                    22048790.148
 113108911.473 7  88136931.873 7  21523893.766                    21523901.074
 116100794.474 7  90468234.91745  22093254.781                    22093263.250
 104458053.002 8  81396044.67446  19877692.945                    19877700.715
 128223848.739 6  99914644.10143  24400158.672                    24400167.223
 115595478.716 8  90074532.79845  21997078.336                    21997085.098
 117694464.527 7  91710025.82945  22396509.148                    22396518.090
 11  7 29  0  8 30.0000000  0  9G10G28G17G09G04G12G20G02G27
 121478604.731 6  94658727.40843  23116596.711                    23116607.605
 115926038.662 7  90332072.45945  22059989.508                    22059996.926
 113141901.314 7  88162638.242 7  21530171.523                    21530179.172
 116087672.672 7  90458010.14345  22090758.500                    22090766.313
 104456871.731 8  81395124.20746  19877468.047                    19877475.723
 129662906.96816 101035989.05515  24674015.461                    24674022.258
 128270036.570 6  99950634.58343  24408947.711                    24408956.797
 115522916.391 8  90017990.76945  21983270.492                    21983276.582
 117695077.925 7  91710503.78245  22396626.016                    22396634.453
 11  7 29  0  9  0.0000000  0  9G10G28G17G09G04G12G20G02G27
 121386906.738 6  94587274.59944  23099147.320                    23099157.813
 115985298.476 7  90378248.90145  22071266.227                    22071273.441
 113174978.171 7  88188412.401 7  21536465.875                    21536473.203
 116075192.010 7  90448284.95345  22088383.320                    22088391.680
 104456250.008 8  81394639.76446  19877349.766                    19877357.379
 129566075.117 6 100960535.742 5  24655588.656                    24655596.969
 128316697.599 6  99986993.80843  24417827.891                    24417836.523
 115450673.692 8  89961697.80445  21969522.719                    21969528.855
 117696176.716 7  91711359.96345  22396835.242                    22396843.703
 11  7 29  0  9 30.0000000  0  9G10G28G17G09G04G12G20G02G27
 121295332.166 6  94515917.88543  23081721.055                    23081730.715
 116044928.164 7  90424713.56145  22082613.367                    22082620.785
 113208142.228 7  88214254.515 7  21542776.695                    21542784.270
 116063352.464 7  90439059.33345  22086130.234                    22086139.012
 104456187.330 8  81394590.93246  19877338.000                    19877345.633
 129469219.318 6 100885063.780 5  24637157.516                    24637166.223
 128363831.273 6 100023721.35043  24426796.820                    24426805.547
 115378751.602 8  89905654.66545  21955836.398                    21955843.027
 117697760.512 7  91712594.07045  22397136.867                    22397145.500
 11  7 29  0 10  0.0000000  0  9G10G28G17G09G04G12G20G02G27
 121203883.897 6  94444659.61344  23064319.461                    23064328.723
 116104927.730 7  90471466.43044  22094030.695                    22094038.215
 113241393.384 7  88240164.495 7  21549104.211                    21549111.605
 116052154.015 7  90430333.27045  22083999.297                    22084008.203
 104456682.771 8  81394976.99646  19877432.563                    19877440.117
 129372341.119 6 100809574.359 6  24618722.359                    24618730.848
 128411436.216 6 100060816.09843  24435855.750                    24435864.750
 115307151.546 8  89849862.46745  21942211.766                    21942217.910
 117699828.730 7  91714205.64145  22397529.680                    22397538.473
 11  7 29  0 10 30.0000000  0  9G10G28G17G09G04G12G20G02G27
 121112565.489 6  94373502.54844  23046941.359                    23046951.543
 116165296.575 7  90518507.05145  22105518.758                    22105526.141
 113274731.360 7  88266142.125 7  21555447.984                    21555455.938
 116041596.559 7  90422106.67545  22081989.828                    22081999.125
 104457735.440 8  81395797.27146  19877632.508                    19877640.336
 129275442.252 6 100734068.812 6  24600283.180                    24600291.836
 128459511.353 6 100098277.25743  24445004.594                    24445012.406
 115235874.512 8  89794321.96945  21928647.516                    21928654.063
 117702380.851 7  91716194.28245  22398015.797                    22398024.105
 11  7 29  0 11  0.0000000  0  9G10G28G17G09G04G12G20G02G27
 121021379.907 6  94302448.95243  23029589.742                    23029599.520
 116226033.863 7  90565834.76344  22117076.422                    22117084.402
 113308155.804 7  88292187.140 7  21561808.867                    21561816.590
 116031679.567 7  90414379.14545  22080103.094                    22080111.523
 104459344.052 8  81397050.74146  19877938.586                    19877946.461
 129178523.914 6 100658548.093 5  24581839.852                    24581848.891
 128508055.062 6 100136103.51343  24454242.141                    24454249.918
 115164921.297 8  89739033.79845  21915145.766                    21915152.281
 117705416.011 7  91718559.32645  22398592.727                    22398601.676
 11  7 29  0 11 30.0000000  0  9G10G28G17G09G04G12G20G02G27
 120930331.117 6  94231501.94744  23012264.195                    23012273.512
 116287139.942 7  90613449.84845  22128704.875                    22128712.633
 113341666.814 7  88318299.597 7  21568185.852                    21568193.039
 116022403.541 7  90407151.07145  22078338.180                    22078346.598
 104461508.328 8  81398737.20746  19878350.633                    19878358.207
 129081588.320 6 100583013.923 6  24563394.070                    24563402.789
 128557066.749 6 100174294.49442  24463568.898                    24463577.063
 115094293.423 8  89683999.13745  21901705.758                    21901711.984
 117708934.021 7  91721300.60045  22399263.094                    22399271.512
 11  7 29  0 12  0.0000000  0  9G10G28G17G09G04G12G20G02G27
 120839421.737 7  94160663.58844  22994964.125                    22994973.535
 116348613.694 7  90661351.44245  22140402.820                    22140410.617
 113375263.973 7  88344479.188 7  21574579.172                    21574586.602
 116013767.403 7  90400421.61245  22076694.250                    22076702.625
 104464226.452 8  81400855.22846  19878867.938                    19878875.523
 128984636.421 6 100507467.062 6  24544944.055                    24544953.414
 128606544.444 6 100212848.55342  24472984.016                    24472992.043
 115023991.224 8  89629218.25345  21888327.891                    21888334.238
 117712933.492 7  91724417.04645  22400024.102                    22400032.512
 11  7 29  0 12 30.0000000  0  9G10G28G17G09G04G12G20G02G27
 120748655.396 7  94089936.66744  22977691.680                    22977701.496
 116410455.468 7  90709539.78845  22152171.305                    22152179.008
 113408947.763 7  88370726.280 7  21580988.875                    21580995.926
 116005771.673 7  90394191.15745  22075172.867                    22075181.469
 104467498.216 8  81403404.67046  19879490.258                    19879498.172
 128887670.790 6 100431909.494 6  24526492.570                    24526501.266
 128656487.762 6 100251765.37542  24482487.852                    24482495.699
 114954016.521 7  89574692.56845  21875011.508                    21875018.172
 117717414.433 7  91727908.66545  22400876.492                    22400885.109
 11  7 29  0 13  0.0000000  0  9G10G28G17G09G04G12G20G02G27
 120658034.735 6  94019323.28644  22960447.578                    22960456.883
 116472664.182 7  90758014.06645  22164009.383                    22164017.031
 113442717.076 7  88397040.015 7  21587414.953                    21587422.473
 115998415.351 7  90388458.94345  22073772.805                    22073781.906
 104471322.068 8  81406384.30046  19880218.023                    19880225.645
 128790691.953 6 100356341.651 6  24508038.039                    24508047.020
 128706894.645 5 100291043.45442  24492079.586                    24492088.184
 114884369.533 7  89520422.23145  21861758.406                    21861764.621
 117722375.502 7  91731774.40945  22401820.586                    22401829.344
 11  7 29  0 13 30.0000000  0  9G10G28G17G09G04G12G20G02G27
 120567563.988 7  93948826.71544  22943231.109                    22943241.141
 116535240.076 7  90806774.47445  22175916.656                    22175924.789
 113476572.753 7  88423421.042 7  21593857.500                    21593864.863
 115991698.994 7  90383225.39845  22072494.813                    22072503.500
 104475697.645 8  81409793.85046  19881050.492                    19881058.488
 128693702.643 6 100280765.642 6  24489581.234                    24489590.125
 128757764.713 6 100330682.43442  24501760.547                    24501768.164
 114815051.984 7  89466408.61545  21848567.844                    21848574.223
 117727816.821 7  91736014.38245  22402855.992                    22402865.098
 11  7 29  0 14  0.0000000  0  9G10G28G17G09G04G12G20G02G27
 120477245.722 7  93878448.94544  22926043.883                    22926054.172
 116598182.288 7  90855820.28945  22187894.531                    22187901.996
 113510513.770 7  88449868.574 7  21600316.688                    21600323.695
 115985621.412 7  90378489.61345  22071338.688                    22071347.090
 104480623.040 8  81413631.82746  19881988.000                    19881995.754
 128596703.876 6 100205182.256 6  24471123.406                    24471131.641
 128809095.728 6 100370680.65843  24511527.984                    24511536.648
 114746064.320 8  89412652.04145  21835439.914                    21835445.984
 117733736.794 7  91740627.33345  22403983.125                    22403991.461
 11  7 29  0 14 30.0000000  0  9G10G28G17G09G04G12G20G02G27
 120387084.038 7  93808193.20644  22908886.609                    22908896.566
 116661490.667 7  90905151.46845  22199941.086                    22199949.297
 113544541.248 7  88476383.468 7  21606791.672                    21606798.891
 115980183.197 7  90374252.02445  22070303.758                    22070312.191
 104486098.298 8  81417898.26946  19883029.789                    19883037.676
 128499698.106 6 100129593.415 6  24452663.258                    24452672.398
 128860887.160 6 100411037.58343  24521383.406                    24521392.324
 114677408.116 8  89359153.75646  21822374.969                    21822381.313
 117740135.699 7  91745613.47545  22405200.672                    22405209.184
 11  7 29  0 15  0.0000000  0  9G10G28G17G09G04G12G20G02G27
 120297081.800 6  93738061.69644  22891759.367                    22891769.387
 116725164.927 7  90954767.72345  22212058.820                    22212066.391
 113578654.566 7  88502965.266 7  21613283.039                    21613290.355
 115975383.531 7  90370511.99545  22069390.555                    22069398.367
 104492121.707 8  81422591.84446  19884175.781                    19884183.719
 128402686.857 6 100054000.288 6  24434202.547                    24434211.617
 128913137.614 6 100451752.21042  24531326.773                    24531335.371
 114609084.133 8  89305914.34645  21809373.258                    21809379.652
 117747012.299 7  91750971.84345  22406508.883                    22406517.340
 11  7 29  0 15 30.0000000  0  9G10G28G17G09G04G12G20G02G27
 120207242.218 7  93668056.94144  22874663.336                    22874673.277
 116789203.968 7  91004668.23044  22224244.625                    22224252.324
 113612853.576 7  88529613.827 7  21619790.594                    21619798.430
 115971221.647 7  90367268.95745  22068598.508                    22068606.645
 104498692.050 8  81427711.59946  19885426.078                    19885433.586
 128305671.296 6  99978403.788 6  24415741.078                    24415749.617
 128965845.206 6 100492823.03043  24541355.672                    24541365.383
 114541093.167 8  89252934.42045  21796435.008                    21796441.652
 117754365.624 7  91756701.69145  22407908.250                    22407916.922
 11  7 29  0 16  0.0000000  0  9G10G28G17G09G04G12G20G02G27
 120117568.725 7  93598181.62244  22857599.406                    22857608.883
 116853607.650 7  91054852.86044  22236500.641                    22236508.188
 113647138.498 7  88556329.332 7  21626315.555                    21626322.566
 115967697.425 7  90364522.78845  22067927.969                    22067936.262
 104505808.571 8  81433256.95246  19886780.531                    19886788.344
 128208653.560 6  99902805.573 6  24397279.320                    24397287.965
 129019009.165 6 100534249.50942  24551473.797                    24551482.535
 114473436.307 8  89200214.84345  21783559.852                    21783566.391
 117762195.033 7  91762802.50545  22409398.500                    22409406.703
 11  7 29  0 16 30.0000000  0  9G10G28G17G09G04G12G20G02G27
 120028064.685 6  93528438.33044  22840567.273                    22840577.613
 116918375.693 7  91105321.42744  22248825.242                    22248832.734
 113681508.399 7  88583111.064 7  21632855.305                    21632862.953
 115964810.416 7  90362273.16345  22067377.867                    22067386.863
 104513470.173 8  81439227.03246  19888238.258                    19888246.027
 128111635.598 6  99827207.208 6  24378818.133                    24378825.992
 129072628.070 6 100576030.46843  24561676.180                    24561685.309
 114406114.466 8  89147756.31645  21770749.203                    21770755.590
 117770499.795 7  91769273.73845  22410978.516                    22410987.109
 11  7 29  0 17  0.0000000  0  9G10G28G17G09G04G12G20G02G27
 119938732.585 7  93458829.02044  22823567.797                    22823577.344
 116983506.865 7  91156072.92444  22261219.586                    22261226.836
 113715963.309 7  88609959.031 7  21639412.367                    21639419.391
 115962559.550 7  90360519.22045  22066950.383                    22066958.316
 104521674.914 8  81445620.34346  19889800.000                    19889807.289
 128014618.800 6  99751609.758 6  24360355.617                    24360364.180
 129126700.122 5 100618164.51542  24571965.828                    24571975.035
 114339128.232 8  89095559.30545  21758002.055                    21758008.742
 117779278.394 7  91776114.18845  22412649.102                    22412657.621
 11  7 29  0 17 30.0000000  0  8G10G28G17G09G04G12G02G27
 119849578.218 7  93389358.18244  22806602.023                    22806612.133
 117049001.937 7  91207108.02644  22273682.625                    22273690.418
 113750505.180 7  88636874.755 7  21645985.000                    21645992.750
 115960945.842 7  90359261.77945  22066642.688                    22066651.555
 104530423.340 8  81452437.30446  19891464.625                    19891472.238
 127917606.058 6  99676015.471 6  24341894.844                    24341903.199
 114272480.182 8  89043625.79746  21745319.164                    21745325.461
 117788531.669 7  91783324.50845  22414410.156                    22414418.613
 11  7 29  0 18  0.0000000  0  8G10G28G17G09G04G12G02G27
 119760603.842 7  93320027.59844  22789670.844                    22789680.422
 117114860.016 7  91258425.94244  22286215.313                    22286222.809
 113785133.012 7  88663857.471 7  21652574.469                    21652581.910
 115959968.287 7  90358500.05245  22066457.211                    22066465.523
 104539713.745 8  81459676.58746  19893232.305                    19893240.078
 127820598.666 6  99600425.332 5  24323434.938                    24323442.840
 114206170.173 7  88991955.70545  21732701.383                    21732707.730
 117798257.949 7  91790903.40445  22416260.695                    22416269.516
 11  7 29  0 18 30.0000000  0  8G10G28G17G09G04G12G02G27
 119671811.707 7  93250839.02244  22772773.914                    22772783.344
 117181079.680 7  91310025.64444  22298816.320                    22298824.020
 113819845.651 7  88690906.261 7  21659180.484                    21659187.953
 115959625.194 7  90358232.68745  22066391.844                    22066399.949
 104549543.801 8  81467336.37146  19895103.266                    19895110.992
 127723597.777 6  99524840.249 5  24304976.289                    24304984.059
 114140198.437 8  88940549.21646  21720146.883                    21720153.441
 117808455.513 7  91798849.54445  22418201.156                    22418210.059
 11  7 29  0 19  0.0000000  0  8G10G28G17G09G04G12G02G27
 119583205.325 7  93181795.18444  22755913.000                    22755922.285
 117247660.126 7  91361906.45944  22311487.164                    22311494.363
 113854643.317 7  88718021.319 7  21665801.898                    21665809.785
 115959916.128 7  90358459.38645  22066447.008                    22066455.348
 104559912.394 8  81475415.80346  19897076.031                    19897083.789
 127626604.999 6  99449261.524 6  24286519.148                    24286527.668
 114074566.021 8  88889407.12846  21707657.398                    21707663.996
 117819123.593 7  91807162.30345  22420231.750                    22420240.105
 11  7 29  0 19 30.0000000  0  8G10G28G17G09G04G12G02G27
 119494788.305 7  93112898.89544  22739087.398                    22739096.316
 117314601.332 7  91414068.41044  22324224.195                    22324232.480
 113889526.245 7  88745202.809 7  21672440.453                    21672447.637
 115960840.505 7  90359179.65745  22066623.031                    22066631.543
 104570818.611 8  81483914.15946  19899151.438                    19899159.566
 127529622.341 6  99373690.690 6  24268063.648                    24268072.270
 114009273.518 8  88838529.89745  21695232.688                    21695239.184
 117830261.327 7  91815841.03345  22422350.969                    22422359.199
 11  7 29  0 20  0.0000000  0  8G10G28G17G09G04G12G02G27
 119406563.283 7  93044152.19744  22722298.930                    22722307.938
 117381902.488 7  91466510.80144  22337032.094                    22337040.082
 113924494.457 7  88772450.764 7  21679094.438                    21679101.773
 115962397.295 7  90360392.72545  22066919.305                    22066927.492
 104582260.679 8  81492830.06246  19901329.180                    19901337.074
 127432651.541 6  99298129.068 6  24249611.211                    24249619.719
 113944322.185 8  88787918.50345  21682873.102                    21682879.559
 117841867.582 7  91824884.83345  22424559.953                    22424568.559
 11  7 29  0 20 30.0000000  0  8G10G28G17G09G04G12G02G27
 119318534.686 7  92975558.58044  22705547.227                    22705556.145
 117449563.216 7  91519233.41244  22349907.188                    22349915.402
 113959547.852 7  88799765.091 7  21685764.766                    21685772.453
 115964586.334 7  90362098.45445  22067335.766                    22067344.332
 104594238.111 8  81502163.12946  19903608.094                    19903615.430
 127335695.055 6  99222578.580 6  24231160.680                    24231168.938
 113879713.152 8  88737573.84045  21670578.727                    21670584.082
 117853942.064 7  91834293.50045  22426857.516                    22426865.809
 11  7 29  0 21  0.0000000  0  8G10G28G17G09G04G12G02G27
 119230705.093 7  92907120.01644  22688834.195                    22688842.891
 117517582.679 7  91572235.52544  22362851.094                    22362858.816
 113994686.276 7  88827145.676 7  21692451.461                    21692458.789
 115967406.357 7  90364295.87045  22067872.633                    22067880.992
 104606748.971 8  81511911.85346  19905988.664                    19905996.395
 127238754.011 7  99147040.119 6  24212713.563                    24212721.711
 113815446.986 8  88687496.34046  21658348.508                    21658354.926
 117866483.098 7  91844065.71245  22429244.094                    22429252.582
 11  7 29  0 21 30.0000000  0  9G10G28G17G09G04G12G01G02G27
 119143078.005 7  92838839.26644  22672159.117                    22672168.199
 117585960.075 7  91625516.57544  22375862.234                    22375871.250
 114029909.861 7  88854592.619 7  21699154.133                    21699161.570
 115970856.978 7  90366984.66945  22068529.328                    22068537.371
 104619792.185 8  81522075.40546  19908470.984                    19908478.285
 127141830.963 7  99071515.722 6  24194269.773                    24194278.469
 131158216.98416 102201258.47116  24958587.297
 113751524.485 8  88637686.65146  21646184.570                    21646190.699
 117879489.886 7  91854200.84745  22431719.016                    22431727.516
 11  7 29  0 22  0.0000000  0  9G10G28G17G09G04G12G01G02G27
 119055656.044 7  92770718.34844  22655523.633                    22655532.578
 117654694.128 7  91679075.50544  22388942.727                    22388950.527
 114065217.903 7  88882105.378 7  21705873.078                    21705880.277
 115974936.743 7  90370163.69645  22069305.664                    22069314.199
 104633365.458 8  81532651.97846  19911053.773                    19911061.402
 127044926.228 6  98996005.619 6  24175829.180                    24175838.707
 131060508.075 5 102125121.993 6  24939992.375
 113687945.538 8  88588144.65646  21634085.797                    21634092.285
 117892960.674 7  91864697.53545  22434282.102                    22434291.023
 11  7 29  0 22 30.0000000  0  9G10G28G17G09G04G12G01G02G27
 118968445.064 7  92702761.83544  22638927.000                    22638936.594
 117723786.442 7  91732913.64544  22402090.164                    22402098.004
 114100612.942 7  88909685.926 7  21712608.703                    21712616.574
 115979647.122 7  90373834.09845  22070201.906                    22070210.145
 104647470.080 8  81543642.58846  19913737.773                    19913745.684
 126948044.335 6  98920513.322 6  24157392.961                    24157401.555
 130962953.793 6 102049105.993 6  24921428.758
 113624713.689 8  88538873.12545  21622053.070                    21622059.516
 117906896.794 7  91875556.82145  22436934.211                    22436942.727
 11  7 29  0 23  0.0000000  0  9G10G28G17G09G04G12G01G02G27
 118881446.200 6  92634970.59744  22622371.586                    22622380.992
 117793234.427 7  91787028.90244  22415305.828                    22415313.773
 114136092.808 7  88937332.563 7  21719359.867                    21719367.469
 115984984.852 7  90377993.35545  22071217.672                    22071225.688
 104662102.352 8  81555044.35646  19916522.102                    19916529.895
 126851185.278 6  98845038.780 6  24138961.789                    24138969.801
 130865553.379 6 101973209.838 6  24902894.844
 113561827.287 8  88489870.77045  21610086.133                    21610092.680
 117921294.974 7  91886776.14745  22439674.594                    22439682.984
 11  7 29  0 23 30.0000000  0  9G10G28G17G09G04G12G01G02G27
 118794662.784 7  92567347.24944  22605857.633                    22605867.285
 117863037.192 7  91841420.62044  22428588.742                    22428597.297
 114171657.614 7  88965045.400 7  21726128.180                    21726135.648
 115990949.150 7  90382640.85545  22072352.188                    22072360.836
 104677260.848 8  81566856.17546  19919406.898                    19919414.125
 126754351.180 7  98769583.656 6  24120534.453                    24120542.742
 130768308.424 7 101897434.830 6  24884389.367
 113499287.308 8  88441138.35446  21598185.258                    21598191.609
 117936154.239 7  91898354.77545  22442502.125                    22442510.586
 11  7 29  0 24  0.0000000  0  9G10G28G17G09G04G12G01G02G27
 118708098.685 7  92499894.80444  22589384.664                    22589394.395
 117933194.589 7  91896088.66844  22441939.313                    22441947.180
 114207307.944 7  88992824.875 7  21732912.102                    21732919.668
 115997539.643 7  90387776.28645  22073606.602                    22073615.176
 104692944.781 8  81579077.42146  19922391.328                    19922398.973
 126657544.062 6  98694149.565 6  24102112.578                    24102120.965
 130671220.818 6 101821782.422 6  24865914.109
 113437094.804 8  88392676.70345  21586350.469                    21586356.270
 117951473.765 7  91910292.03845  22445417.031                    22445425.672
 11  7 29  0 24 30.0000000  0  9G10G28G17G09G04G12G01G02G27
 118621757.287 7  92432615.86844  22572954.469                    22572964.250
 118003705.909 7  91951032.50644  22455357.766                    22455365.391
 114243043.391 7  89020670.662 7  21739712.469                    21739719.867
 116004755.362 7  90393398.91045  22074980.039                    22074988.461
 104709152.721 8  81591706.98746  19925475.609                    19925483.219
 126560765.936 6  98618738.155 6  24083694.453                    24083705.074
 130574292.200 6 101746253.929 6  24847467.992
 113375250.635 8  88344486.47445  21574582.086                    21574588.242
 117967252.632 7  91922587.23145  22448419.617                    22448428.156
 11  7 29  0 25  0.0000000  0  9G10G28G17G09G04G12G01G02G27
 118535641.901 7  92365513.06044  22556567.477                    22556576.578
 118074570.524 7  92006251.63644  22468842.531                    22468850.227
 114278864.686 7  89048583.347 7  21746528.953                    21746536.617
 116012595.357 7  90399507.97345  22076471.773                    22076479.496
 104725883.171 8  81604743.70346  19928659.164                    19928667.051
 126464018.662 6  98543350.797 6  24065286.648                    24065294.512
 130477524.122 7 101670850.452 5  24829054.297
 113313755.417 8  88296568.14746  21562879.531                    21562885.934
 117983489.445 7  91935239.26945  22451509.469                    22451518.344
 11  7 29  0 25 30.0000000  0  9G10G28G17G09G04G12G01G02G27
 118449755.796 7  92298588.90544  22540223.680                    22540233.191
 118145787.228 7  92061745.13344  22482395.047                    22482402.535
 114314771.470 7  89076562.639 7  21753361.414                    21753369.273
 116021058.395 7  90406102.53945  22078082.109                    22078090.738
 104743134.478 8  81618186.28146  19931941.836                    19931949.934
 126367304.111 7  98467988.788 6  24046881.695                    24046889.484
 130380917.821 7 101595573.043 6  24810670.492
 113252609.792 8  88248922.24445  21551244.203                    21551250.328
 118000182.840 7  91948247.08745  22454686.211                    22454694.801
 11  7 29  0 26  0.0000000  0  9G10G28G17G09G04G12G01G02G27
 118364102.410 7  92231846.08744  22523924.492                    22523933.527
 118217355.436 7  92117512.54244  22496013.477                    22496021.379
 114350763.894 7  89104608.670 7  21760210.672                    21760218.410
 116030143.713 7  90413181.98045  22079811.055                    22079820.000
 104760905.471 8  81632033.80946  19935323.492                    19935331.250
 126270624.438 6  98392654.001 6  24028484.633                    24028492.340
 130284475.325 7 101520423.263 6  24792317.703
 113191815.244 8  88201549.89846  21539675.133                    21539681.473
 118017331.994 7  91961610.03945  22457949.414                    22457958.094
 11  7 29  0 26 30.0000000  0  9G10G28G17G09G04G12G01G02G27
 118278684.815 7  92165287.01544  22507669.891                    22507678.984
 118289274.288 7  92173553.13644  22509700.180                    22509707.402
 114386842.173 7  89132721.586 7  21767076.578                    21767083.590
 116039850.029 7  90420745.31645  22081658.398                    22081666.176
 104779194.385 8  81646284.91546  19938804.063                    19938811.336
 126173981.401 6  98317347.903 6  24010092.633                    24010101.609
 130188197.401 6 101445401.763 6  24773995.992
 113131371.843 8  88154451.17545  21528173.172                    21528179.234
 118034935.439 7  91975326.97945  22461299.719                    22461308.004
 11  7 29  0 27  0.0000000  0  9G10G28G17G09G04G12G01G02G27
 118193506.457 7  92098914.33944  22491460.672                    22491469.629
 118361542.540 7  92229866.02844  22523451.758                    22523459.523
 114423006.228 7  89160901.367 7  21773958.117                    21773965.145
 116050175.737 7  90428791.30745  22083623.648                    22083631.168
 104797999.239 8  81660938.04846  19942382.375                    19942390.242
 126077377.097 7  98242071.868 6  23991710.844                    23991718.293
 130092085.429 6 101370509.560 6  24755706.250
 113071280.018 8  88107626.42046  21516738.000                    21516744.387
 118052991.709 7  91989396.77945  22464735.594                    22464744.152
 11  7 29  0 27 30.0000000  0  9G10G28G17G09G04G12G01G02G27
 118108571.269 7  92032731.15644  22475298.555                    22475307.207
 118434160.508 7  92286451.39844  22537270.344                    22537278.020
 114459256.394 7  89189148.216 7  21780856.250                    21780863.898
 116061120.623 7  90437319.76645  22085706.289                    22085714.078
 104817319.671 8  81675992.93746  19946058.922                    19946066.836
 125980813.895 7  98166827.787 6  23973335.172                    23973342.816
 129996142.232 6 101295748.858 6  24737449.555
 113011541.153 8  88061076.69145  21505370.055                    21505376.164
 118071500.363 7  92003819.08245  22468257.031                    22468266.109
 11  7 29  0 28  0.0000000  0  9G10G28G17G09G04G12G01G02G27
 118023881.481 7  91966739.18844  22459181.445                    22459191.180
 118507125.972 7  92343307.54644  22551155.156                    22551163.238
 114495591.913 7  89217461.592 7  21787770.211                    21787777.578
 116072682.336 7  90446328.86245  22087905.852                    22087914.566
 104837152.635 8  81691447.20046  19949833.211                    19949840.922
 125884292.432 6  98091616.308 6  23954966.898                    23954976.137
 129900367.850 7 101221119.698 6  24719224.344
 112952155.084 8  88014801.87245  21494069.133                    21494075.555
 118090458.958 7  92018591.99345  22471865.469                    22471873.715
 11  7 29  0 28 30.0000000  0  9G10G28G17G09G04G12G01G02G27
 117939441.474 7  91900941.84644  22443113.820                    22443122.293
 118580439.337 7  92400434.78544  22565106.414                    22565115.184
 114532013.882 7  89245842.324 7  21794701.898                    21794709.332
 116084860.974 7  90455818.67645  22090223.508                    22090232.254
 104857497.829 8  81707300.59746  19953704.422                    19953712.512
 125787816.511 7  98016440.406 6  23936608.852                    23936617.211
 129804764.600 6 101146623.907 6  24701030.852
 112893123.291 8  87968803.11446  21482835.781                    21482841.949
 118109867.314 7  92033715.35545  22475558.664                    22475567.254
 11  7 29  0 29  0.0000000  0  9G10G28G17G09G04G12G01G02G27
 117855254.120 7  91835341.39444  22427093.078                    22427101.984
 118654098.998 7  92457831.87144  22579122.930                    22579131.684
 114568522.267 8  89274290.389 7  21801649.047                    21801656.184
 116097654.707 7  90465787.79745  22092658.242                    22092666.793
 104878353.095 8  81723551.45946  19957673.469                    19957681.074
 125691386.991 7  97941300.565 6  23918259.195                    23918266.141
 129709333.493 6 101072262.303 6  24682870.195
 112834445.886 8  87923080.50346  21471669.898                    21471676.047
 118129723.427 7  92049187.63045  22479337.516                    22479345.777
 11  7 29  0 29 30.0000000  0  9G10G28G17G09G04G12G01G02G27
 117771322.203 7  91769939.96844  22411120.914                    22411130.348
 118728104.096 7  92515498.11344  22593205.867                    22593214.320
 114605116.982 7  89302805.735 7  21808612.672                    21808620.121
 116111061.977 7  90476234.98945  22095209.672                    22095217.836
 104899716.435 8  81740198.22146  19961738.570                    19961746.363
 125595005.572 6  97866198.137 6  23899917.477                    23899925.270
 129614075.753 6 100998035.758 6  24664743.742
 112776123.253 8  87877634.33346  21460571.367                    21460577.531
 118150025.823 7  92065007.64145  22483200.016                    22483208.910
 11  7 29  0 30  0.0000000  0  9G10G28G17G09G04G12G01G02G27
 117687649.989 7  91704740.93344  22395199.133                    22395208.227
 118802454.454 7  92573433.38044  22607355.055                    22607363.160
 114641798.625 8  89331388.802 7  21815593.188                    21815600.246
 116125082.379 7  90487159.95245  22097877.852                    22097885.813
 104921587.368 8  81757240.50546  19965900.344                    19965908.453
 125498675.257 6  97791135.683 6  23881586.109                    23881595.539
 129518993.767 6 100923946.074 6  24646650.836
 112718156.891 8  87832465.77846  21449540.750                    21449547.070
 118170774.250 7  92081175.21945  22487148.813                    22487157.523
 11  7 29  0 30 30.0000000  0  9G10G28G17G09G04G12G01G02G27
 117604240.104 7  91639746.27344  22379326.727                    22379335.660
 118877148.230 7  92631636.27144  22621568.328                    22621577.051
 114678566.449 7  89360039.041 7  21822589.477                    21822597.023
 116139713.790 7  90498561.03545  22100661.977                    22100670.543
 104943963.224 8  81774676.23446  19970158.195                    19970166.383
 125402397.578 7  97716114.193 7  23863265.672                    23863274.371
 129424088.066 6 100849993.773 6  24628589.734
 112660546.832 8  87787574.85846  21438578.250                    21438584.434
 118191966.368 7  92097688.52145  22491181.719                    22491190.223
 11  7 29  0 31  0.0000000  0  9G10G28G17G09G04G12G01G02G27
 117521096.284 7  91574958.94644  22363504.688                    22363514.285
 118952184.857 7  92690106.27544  22635848.172                    22635856.113
 114715421.155 7  89388756.967 7  21829602.734                    21829610.375
 116154955.274 7  90510437.49745  22103561.945                    22103570.469
 104966842.770 8  81792504.45746  19974512.234                    19974520.063
 125306174.958 6  97641135.605 6  23844954.023                    23844963.238
 129329360.409 6 100776180.277 6  24610562.867
 112603293.569 8  87742961.97346  21427683.055                    21427689.027
 118213600.882 7  92114546.56545  22495298.445                    22495307.309
 11  7 29  0 31 30.0000000  0  9G10G28G17G09G04G12G01G02G27
 117438221.697 7  91510381.41644  22347733.992                    22347743.363
 119027563.344 7  92748842.72444  22650191.813                    22650199.465
 114752362.836 7  89417542.674 7  21836632.422                    21836639.492
 116170805.137 7  90522788.01645  22106578.461                    22106586.391
 104990224.003 8  81810723.60646  19978961.664                    19978969.375
 125210008.686 7  97566200.898 6  23826654.430                    23826662.102
 129234811.962 6 100702506.398 6  24592571.914
 112546397.549 7  87698627.44346  21416855.930                    21416862.012
 118235676.299 7  92131748.17445  22499498.883                    22499507.855
 11  7 29  0 32  0.0000000  0  9G10G28G17G09G04G12G01G02G27
 117355619.704 7  91446016.30244  22332015.875                    22332024.875
 119103282.616 7  92807844.69744  22664600.680                    22664608.406
 114789391.504 7  89446396.164 7  21843678.914                    21843686.188
 116187262.151 7  90535611.63945  22109710.266                    22109718.605
 105014105.313 8  81829332.41146  19983506.063                    19983513.629
 125113901.182 7  97491311.924 7  23808367.492                    23808375.176
 129140444.559 6 100628973.558 6  24574614.266
 112489859.323 8  87654571.71746  21406097.133                    21406103.051
 118258191.226 7  92149292.24445  22503783.836                    22503792.660
 11  7 29  0 32 30.0000000  0  9G10G28G17G09G04G12G01G02G27
 117273293.883 7  91381866.38345  22316349.688                    22316358.582
 119179341.926 7  92867111.61444  22679074.711                    22679082.047
 114826507.464 7  89475317.666 7  21850741.477                    21850749.801
 116204325.190 7  90548907.48745  22112957.180                    22112965.563
 105038485.277 8  81848329.78746  19988145.125                    19988153.094
 125017854.845 6  97416470.716 7  23790089.297                    23790098.883
 129046259.386 6 100555582.670 6  24556691.516
 112433680.108 8  87610795.74646  21395406.797                    21395412.512
 118281144.451 7  92167177.84245  22508151.633                    22508160.648
 11  7 29  0 33  0.0000000  0  9G10G28G17G09G04G12G01G02G27
 117191247.248 7  91317933.99745  22300736.609                    22300745.426
 119255739.918 7  92926642.47044  22693611.836                    22693620.059
 114863710.770 7  89504307.233 7  21857821.320                    21857828.352
 116221992.502 7  90562674.20445  22116318.977                    22116327.512
 105063362.045 8  81867714.28246  19992879.211                    19992886.977
 124921871.788 6  97341678.923 6  23771824.734                    23771833.559
 128952257.958 6 100482334.964 6  24538802.750
 112377860.173 7  87567299.72946  21384784.391                    21384790.492
 118304534.491 7  92185403.81045  22512602.164                    22512611.586
 11  7 29  0 33 30.0000000  0  9G10G28G17G09G04G12G01G02G27
 117109482.807 7  91254221.51244  22285177.344                    22285185.969
 119332475.709 7  92986436.53144  22708215.141                    22708222.563
 114901001.428 7  89533364.881 7  21864917.852                    21864925.402
 116240262.514 7  90576910.55545  22119795.578                    22119804.059
 105088733.370 8  81887484.14846  19997707.102                    19997714.863
 124825953.086 7  97266936.994 5  23753572.523                    23753578.332
 128858441.143 6 100409231.152 6  24520950.133
 112322399.489 8  87524083.65546  21374230.539                    21374237.020
 118328359.553 7  92203968.75845  22517136.461                    22517144.910
 11  7 29  0 34  0.0000000  0  9G10G28G17G09G04G12G01G02G27
 117028004.203 7  91190731.75544  22269672.367                    22269681.313
 119409548.481 7  93046493.18644  22722881.344                    22722889.340
 114938379.952 7  89562490.975 7  21872030.500                    21872037.824
 116259133.727 7  90591615.38645  22123386.789                    22123395.387
 105114598.025 8  81907638.42346  20002629.289                    20002636.605
 124730101.604 6  97192247.499 6  23735331.383                    23735339.355
 128764810.955 6 100336272.735 6  24503133.133
 112267298.771 8  87481148.06146  21363745.195                    21363751.262
 118352618.228 7  92222871.58645  22521752.672                    22521761.500
 11  7 29  0 34 30.0000000  0  9G10G28G17G09G04G12G01G02G27
 116946815.458 7  91127467.86544  22254222.781                    22254231.613
 119486957.403 7  93106811.76444  22737611.523                    22737620.453
 114975846.975 7  89591686.062 7  21879160.406                    21879167.547
 116278605.070 7  90606787.84445  22127091.922                    22127100.461
 105140954.692 8  81928176.08746  20007644.922                    20007652.566
 124634319.512 6  97117612.267 6  23717104.617                    23717113.723
 128671369.035 6 100263461.007 6  24485350.797
 112212559.332 8  87438493.98146  21353328.438                    21353334.621
 118377309.609 7  92242111.58745  22526451.305                    22526460.824
 11  7 29  0 35  0.0000000  0  9G10G28G17G09G04G12G01G02G27
 116865919.243 7  91064431.91145  22238828.828                    22238837.367
 119564701.185 7  93167391.25044  22752405.766                    22752414.625
 115013402.105 7  89620949.776 7  21886306.805                    21886314.742
 116298674.627 7  90622426.43845  22130911.086                    22130919.727
 105167801.159 8  81949095.40946  20012753.656                    20012761.129
 124538609.026 7  97043032.712 6  23698891.641                    23698899.477
 128578116.111 6 100190796.574 6  24467604.570
 112158181.034 8  87396121.31546  21342980.867                    21342987.020
 118402431.752 7  92261687.24645  22531231.883                    22531240.574
 11  7 29  0 35 30.0000000  0  9G10G28G17G09G04G12G01G02G27
 116785318.075 7  91001625.86644  22223490.758                    22223499.145
 119642778.019 7  93228230.29044  22767263.070                    22767270.996
 115051044.811 7  89650281.741 7  21893470.336                    21893477.102
 116319340.085 7  90638529.36345  22134843.875                    22134852.207
 105195134.482 8  81970394.10046  20017954.844                    20017962.461
 124442971.545 7  96968509.904 5  23680692.586                    23680699.070
 128485052.827 6 100118279.847 5  24449895.500
 112104163.493 8  87354029.74546  21332701.633                    21332707.348
 118427982.262 7  92281596.69845  22536094.258                    22536102.938
 11  7 29  0 36  0.0000000  0  9G10G28G17G09G04G12G01G02G27
 116705016.042 7  90939052.90444  22208209.555                    22208218.262
 119721187.765 7  93289328.73144  22782184.555                    22782192.477
 115088776.282 7  89679682.884 7  21900649.961                    21900657.797
 116340600.589 7  90655095.95645  22138889.391                    22138897.801
 105222954.141 8  81992071.75346  20023248.492                    20023256.637
 124347409.979 6  96894046.375 6  23662507.688                    23662516.168
 128392182.052 6 100045913.125 6  24432223.586
 112050508.127 8  87312220.39146  21322490.883                    21322497.004
 118453960.398 7  92301839.35745  22541037.422                    22541046.328
 11  7 29  0 36 30.0000000  0  9G10G28G17G09G04G12G01G02G27
 116625016.369 7  90876715.55344  22192985.828                    22192994.813
 119799929.139 7  93350685.57744  22797168.477                    22797176.859
 115126596.508 7  89709153.157 7  21907847.336                    21907854.605
 116362454.326 7  90672124.81145  22143047.875                    22143056.695
 105251257.977 8  82014126.68346  20028634.914                    20028642.273
 124251925.801 7  96819643.201 6  23644337.984                    23644346.348
 128299504.119 6  99973696.692 6  24414587.313
 111997215.064 8  87270693.34946  21312350.156                    21312355.676
 118480364.462 7  92322413.91345  22546061.891                    22546070.961
 11  7 29  0 37  0.0000000  0  9G10G28G17G09G04G12G01G02G27
 116545322.028 7  90814616.11944  22177820.563                    22177829.180
 119879000.801 7  93412299.80444  22812214.750                    22812223.875
 115164505.764 7  89738692.837 7  21915060.977                    21915068.227
 116384899.554 7  90689614.57445  22147319.227                    22147328.066
 105280043.856 8  82036557.23146  20034112.508                    20034120.195
 124156521.406 7  96745302.117 6  23626183.313                    23626190.051
 128207020.765 6  99901631.911 6  24396987.211
 111944284.801 8  87229449.01046  21302277.406                    21302283.746
 118507192.434 7  92343318.77645  22551167.680                    22551176.191
 11  7 29  0 37 30.0000000  0  9G10G28G17G09G04G12G01G02G27
 116465936.754 7  90752757.50045  22162714.094                    22162723.008
 119958401.725 7  93474170.56744  22827325.211                    22827332.871
 115202504.047 7  89768301.865 7  21922291.758                    21922299.543
 116407934.614 7  90707563.93945  22151702.891                    22151711.547
 105309310.390 8  82059362.31846  20039681.633                    20039689.453
 124061199.061 6  96671024.927 6  23608043.609                    23608051.074
 128114733.418 6  99829719.860 6  24379426.016
 111891717.713 8  87188487.66846  21292274.547                    21292280.191
 118534442.928 7  92364552.89445  22556353.156                    22556361.512
 11  7 29  0 38  0.0000000  0  9G10G28G17G09G04G12G01G02G27
 116386863.852 7  90691142.30944  22147667.125                    22147675.652
 120038130.938 7  93536297.15644  22842496.172                    22842505.434
 115240591.522 7  89797980.406 7  21929539.406                    21929547.098
 116431558.116 7  90725971.84245  22156198.109                    22156207.098
 105339055.613 8  82082540.40646  20045342.188                    20045349.906
 123965960.721 7  96596813.301 6  23589920.141                    23589928.273
 128022643.230 6  99757961.361 6  24361902.281
 111839514.353 8  87147809.74946  21282340.094                    21282346.137
 118562114.444 7  92386115.07945  22561618.680                    22561627.492
 11  7 29  0 38 30.0000000  0  9G10G28G17G09G04G12G01G02G27
 116308106.382 7  90629772.89445  22132679.906                    22132688.434
 120118187.327 7  93598678.68744  22857731.180                    22857739.945
 115278768.885 7  89827728.991 7  21936804.281                    21936812.285
 116455768.168 7  90744836.78645  22160804.891                    22160813.059
 105369277.727 8  82106090.10246  20051093.391                    20051100.918
 123870809.100 7  96522669.197 6  23571814.570                    23571821.906
 127930751.554 6  99686357.604 6  24344414.883
 111787675.158 8  87107415.59446  21272475.813                    21272481.441
 118590205.180 7  92408003.92545  22566964.328                    22566973.031
 11  7 29  0 39  0.0000000  0  9G10G28G17G09G04G12G01G02G27
 116229667.483 7  90568651.72845  22117753.180                    22117762.168
 120198569.596 7  93661314.15444  22873027.359                    22873035.922
 115317036.064 7  89857547.544 7  21944087.000                    21944094.234
 116480562.757 7  90764157.22245  22165523.047                    22165532.074
 105399974.802 8  82130009.89446  20056934.773                    20056942.625
 123775746.097 6  96448594.220 6  23553722.375                    23553731.652
 127839059.752 6  99614909.658 7  24326966.469
 111736200.548 8  87067305.53846  21262680.500                    21262686.543
 118618713.855 6  92430218.44145  22572389.078                    22572398.285
 11  7 29  0 39 30.0000000  0  9G10G28G17G09G04G12G01G02G27
 116151550.785 7  90507781.63644  22102888.328                    22102896.465
 120279276.751 7  93724202.76844  22888385.672                    22888393.613
 115355393.552 7  89887436.475 7  21951386.063                    21951393.301
 116505940.173 7  90783931.81345  22170352.688                    22170361.641
 105431144.807 8  82154298.20446  20062866.195                    20062873.863
 123680773.789 7  96374589.860 6  23535650.750                    23535657.867
 127747569.315 6  99543618.537 6  24309557.047
 111685090.907 8  87027479.87746  21252954.422                    21252960.516
 118647638.829 7  92452757.34045  22577893.445                    22577902.773
 11  7 29  0 40  0.0000000  0  9G10G28G17G09G04G12G01G02G27
 116073759.170 7  90447164.83145  22088085.086                    22088093.773
 120360307.392 7  93787343.44344  22903805.289                    22903813.398
 115393841.354 7  89917395.796 7  21958702.555                    21958709.605
 116531898.590 7  90804159.12745  22175292.078                    22175300.902
 105462785.784 8  82178953.50346  20068887.391                    20068894.754
 123585894.467 7  96300657.887 7  23517596.578                    23517604.355
 127656281.350 6  99472485.135 6  24292185.695
 111634346.568 8  86987938.86146  21243297.992                    21243303.969
 118676977.903 7  92475618.92844  22583476.828                    22583485.922
 11  7 29  0 40 30.0000000  0  9G10G28G17G09G04G12G01G02G27
 115996295.716 7  90386803.74945  22073344.297                    22073352.945
 120441660.272 7  93850735.21944  22919286.344                    22919294.395
 115432379.789 7  89947425.723 7  21966035.500                    21966043.270
 116558436.146 7  90824837.69745  22180342.195                    22180350.742
 105494895.703 8  82203974.21046  20074997.383                    20075005.172
 123491110.011 6  96226800.038 7  23499558.086                    23499567.340
 127565196.827 6  99401510.275 6  24274851.594
 111583967.311 8  86948682.32046  21233710.813                    21233717.156
 118706729.346 7  92498801.82144  22589138.031                    22589146.895
 11  7 29  0 41  0.0000000  0  9G10G28G17G09G04G12G01G02G27
 115919163.424 7  90326700.70645  22058666.539                    22058675.277
 120523333.801 7  93914376.86144  22934828.930                    22934836.406
 115471008.472 7  89977525.976 7  21973386.547                    21973394.215
 116585550.452 7  90845965.69645  22185501.969                    22185510.164
 105527472.112 8  82229358.42246  20081196.594                    20081204.063
 123396422.827 7  96153017.888 6  23481540.672                    23481548.660
 127474316.877 6  99330694.880 7  24257558.266
 111533953.481 8  86909710.54046  21224193.570                    21224199.551
 118736891.008 7  92522304.38444  22594877.672                    22594886.457
 11  7 29  0 41 30.0000000  0  9G10G28G17G09G04G12G01G02G27
 115842366.521 7  90266859.01844  22044052.367                    22044061.125
 120605327.493 7  93978267.96944  22950430.594                    22950439.242
 115509728.880 7  90007697.701 7  21980755.211                    21980762.660
 116613240.602 7  90867542.40745  22190771.320                    22190779.648
 105560514.253 8  82255105.53446  20087484.125                    20087491.965
 123301835.547 7  96079313.494 6  23463540.852                    23463548.059
 127383643.675 7  99260040.532 6  24240303.609
 111484306.204 8  86871024.36646  21214746.508                    21214752.492
 118767462.087 6  92546125.96844  22600694.961                    22600703.934
 11  7 29  0 42  0.0000000  0  9G10G28G17G09G04G12G01G02G27
 115765907.315 7  90207280.45845  22029502.320                    22029511.645
 120687639.484 7  94042407.05743  22966095.625                    22966103.652
 115548540.172 7  90037940.245 7  21988140.258                    21988148.559
 116641503.849 7  90889565.67745  22196149.891                    22196158.469
 105594018.955 8  82281213.09546  20093860.063                    20093867.617
 123207349.353 7  96005687.994 7  23445560.625                    23445569.098
 127293177.210 6  99189547.272 6  24223088.750
 111435024.565 8  86832623.11346  21205368.258                    21205374.496
 118798439.816 7  92570264.42245  22606589.984                    22606598.766
 11  7 29  0 42 30.0000000  0  9G10G28G17G09G04G12G01G02G27
 115689789.941 7  90147968.26045  22015017.891                    22015026.738
 120770269.593 7  94106794.11744  22981818.313                    22981827.414
 115587443.934 7  90068254.845 7  21995543.664                    21995551.297
 116670339.250 7  90912034.79645  22201636.953                    22201645.488
 105627985.714 8  82307680.69546  20100323.563                    20100331.664
 123112967.574 7  95932143.853 6  23427600.492                    23427609.004
 127202920.171 6  99119217.200 6  24205912.617
 111386110.365 8  86794508.18346  21196060.180                    21196066.352
 118829823.661 7  92594719.32944  22612562.203                    22612570.977
 11  7 29  0 43  0.0000000  0  9G10G28G17G09G04G12G01G02G27
 115614016.869 7  90088924.34945  22000598.734                    22000607.570
 120853215.438 6  94171427.17743  22997602.469                    22997611.063
 115626438.789 7  90098640.432 7  22002964.070                    22002971.824
 116699743.535 7  90934947.19345  22207232.242                    22207240.691
 105662411.081 8  82334505.64846  20106874.906                    20106882.320
 123018691.689 7  95858682.148 6  23409660.734                    23409667.621
 127112872.886 7  99049050.578 6  24188778.227
 111337562.761 8  86756678.90246  21186822.109                    21186828.094
 118861610.476 7  92619488.24644  22618611.258                    22618620.625
 11  7 29  0 43 30.0000000  0 10G10G28G17G09G04G12G01G05G02G27
 115538591.875 7  90030151.68645  21986246.219                    21986254.508
 120936476.372 6  94236305.72543  23013446.703                    23013455.449
 115665526.667 7  90129098.497 7  22010402.813                    22010410.211
 116729715.461 7  90958301.91445  22212935.680                    22212944.242
 105697293.883 8  82361687.04946  20113512.711                    20113520.699
 122924524.500 7  95785305.177 6  23391741.039                    23391749.176
 127023037.302 7  98979048.913 6  24171683.000
 129757652.90916 101109928.36616  24692069.445                    24692082.047
 111289382.767 8  86719136.08746  21177653.664                    21177659.906
 118893799.439 6  92644570.52244  22624736.781                    22624745.852
 11  7 29  0 44  0.0000000  0 10G10G28G17G09G04G12G01G05G02G27
 115463517.166 7  89971651.96545  21971960.125                    21971968.891
 121020050.209 7  94301428.12944  23029350.859                    23029359.996
 115704705.948 7  90159627.786 7  22017857.539                    22017866.055
 116760251.708 7  90982096.34344  22218746.836                    22218755.355
 105732630.893 8  82389222.37946  20120236.930                    20120244.852
 122830467.284 7  95712013.923 6  23373842.758                    23373850.602
 126933413.109 6  98909212.016 6  24154626.938
 129652972.530 6 101028359.571 6  24672149.680                    24672162.473
 111241569.236 8  86681878.82246  21168554.977                    21168561.039
 118926387.268 7  92669963.59044  22630938.109                    22630947.250
 11  7 29  0 44 30.0000000  0 10G10G28G17G09G04G12G01G05G02G27
 115388796.794 7  89913428.34045  21957740.992                    21957749.496
 121103936.198 7  94366793.75443  23045312.797                    23045322.227
 115743978.427 7  90190229.701 7  22025331.000                    22025338.828
 116791351.780 7  91006330.13345  22224664.578                    22224673.641
 105768421.402 8  82417111.07946  20127047.484                    20127055.270
 122736523.167 7  95638810.755 6  23355965.320                    23355972.754
 126844002.726 6  98839541.696 6  24137612.969
 129548204.099 6 100946722.130 6  24652211.602                    24652225.242
 111194123.619 8  86644908.24246  21159526.164                    21159532.117
 118959373.363 6  92695667.00145  22637214.547                    22637223.977
 11  7 29  0 45  0.0000000  0 10G10G28G17G09G04G12G01G05G02G27
 115314433.546 7  89855482.98745  21943590.266                    21943598.902
 121188133.008 6  94432401.54844  23061335.844                    23061344.262
 115783344.132 7  90220904.257 7  22032822.641                    22032829.848
 116823012.694 7  91031000.92745  22230689.836                    22230699.012
 105804662.756 8  82445351.09946  20133944.211                    20133952.449
 122642694.013 7  95565697.185 6  23338110.031                    23338117.941
 126754807.252 7  98770038.769 6  24120639.820
 129443349.297 6 100865017.430 6  24632257.984                    24632271.711
 111147045.610 8  86608224.10046  21150567.523                    21150573.551
 118992755.315 7  92721678.88044  22643567.789                    22643576.184
 11  7 29  0 45 30.0000000  0 10G10G28G17G09G04G12G01G05G02G27
 115240431.257 7  89797818.91345  21929508.109                    21929516.590
 121272639.692 7  94498250.83144  23077417.523                    23077426.184
 115822803.313 7  90251651.654 7  22040331.281                    22040338.820
 116855232.931 7  91056107.56944  22236821.414                    22236829.992
 105841353.425 8  82473941.22846  20140926.344                    20140933.617
 122548982.871 7  95492675.557 6  23320278.055                    23320286.102
 126665828.067 6  98700704.446 7  24103707.242
 129338411.533 6 100783248.065 6  24612288.781                    24612302.195
 111100335.863 8  86571826.91846  21141679.250                    21141685.328
 119026531.880 6  92747998.25044  22649995.258                    22650003.324
 11  7 29  0 46  0.0000000  0 10G10G28G17G09G04G12G01G05G02G27
 115166792.928 7  89740438.43745  21915494.648                    21915503.398
 121357455.078 7  94564340.67844  23093556.805                    23093566.035
 115862356.598 7  90282472.374 7  22047858.133                    22047865.395
 116888010.356 7  91081648.38045  22243058.211                    22243066.855
 105878491.368 8  82502879.88046  20147993.461                    20148001.043
 122455391.857 7  95419747.561 6  23302467.633                    23302476.316
 126577066.478 6  98631539.755 6  24086815.758
 129233393.253 6 100701415.988 6  24592304.891                    24592317.352
 111053994.810 8  86535717.03346  21132860.555                    21132866.441
 119060700.986 7  92774623.50644  22656497.422                    22656505.707
 11  7 29  0 46 30.0000000  0 10G10G28G17G09G04G12G01G05G02G27
 115093521.301 7  89683343.70245  21901551.766                    21901560.152
 121442577.192 7  94630669.50344  23109755.531                    23109763.559
 115902003.708 7  90313366.224 7  22055402.258                    22055409.566
 116921342.674 7  91107621.58645  22249401.680                    22249409.961
 105916073.849 8  82532164.93246  20155145.195                    20155152.789
 122361922.741 7  95346914.562 6  23284680.648                    23284688.613
 126488523.431 7  98562545.261 6  24069967.633
 129128296.088 6 100619522.416 6  24572305.219                    24572317.949
 111008022.083 8  86499894.15846  21124112.195                    21124117.934
 119095260.205 7  92801552.73144  22663073.445                    22663082.141
 11  7 29  0 47  0.0000000  0 10G10G28G17G09G04G12G01G05G02G27
 115020619.861 7  89626537.43945  21887678.273                    21887687.512
 121528005.013 7  94697236.54143  23126011.656                    23126020.227
 115941745.347 7  90344333.718 7  22062965.344                    22062972.598
 116955227.729 7  91134025.48445  22255849.594                    22255857.902
 105954099.486 8  82561795.29846  20162381.148                    20162389.363
 122268578.283 7  95274178.597 6  23266918.391                    23266926.023
 126400200.100 7  98493721.916 6  24053159.305
 129023123.384 6 100537569.954 6  24552290.938                    24552303.895
 110962418.056 8  86464358.57846  21115434.313                    21115440.082
 119130208.100 7  92828784.81345  22669723.656                    22669733.016
 11  7 29  0 47 30.0000000  0 10G10G28G17G09G04G12G01G05G02G27
 114948091.617 7  89570021.97145  21873877.219                    21873885.762
 121613736.999 7  94764040.63144  23142326.344                    23142335.082
 115981582.107 7  90375375.336 7  22070545.813                    22070553.270
 116989663.609 7  91160858.61845  22262402.141                    22262411.090
 105992566.009 8  82591769.21846  20169701.156                    20169708.789
 122175360.459 7  95201541.429 6  23249178.930                    23249188.098
 126312097.731 6  98425070.825 7  24036394.094
 128917877.634 6 100455560.596 6  24532263.250                    24532275.539
 110917182.891 8  86429110.41846  21106826.258                    21106831.988
 119165542.613 7  92856318.15544  22676448.094                    22676456.953
 11  7 29  0 48  0.0000000  0 10G10G28G17G09G04G12G01G05G02G27
 114875939.618 7  89513799.66645  21860146.992                    21860155.785
 121699771.821 6  94831080.68143  23158697.477                    23158706.297
 116021513.740 7  90406490.882 7  22078144.383                    22078151.895
 117024647.561 7  91188118.81944  22269059.773                    22269068.254
 106031470.826 8  82622084.66246  20177104.102                    20177112.262
 122082271.898 7  95129004.921 6  23231466.172                    23231472.977
 126224217.162 7  98356592.612 7  24019671.164
 128812560.971 6 100373495.917 6  24512222.391                    24512234.867
 110872316.575 8  86394149.67146  21098288.242                    21098293.961
 119201261.408 7  92884150.96045  22683245.125                    22683253.938
 11  7 29  0 48 30.0000000  0 10G10G28G17G09G04G12G01G05G02G27
 114804167.599 7  89457873.46045  21846488.945                    21846497.578
 121786108.264 6  94898355.75543  23175127.398                    23175135.914
 116061541.152 7  90437681.051 7  22085761.656                    22085768.926
 117060178.202 7  91215805.00145  22275821.156                    22275829.809
 106070812.821 8  82652740.76746  20184590.594                    20184598.559
 121989314.870 7  95056570.868 6  23213776.063                    23213783.520
 126136560.340 7  98288288.693 6  24002991.156
 128707177.055 6 100291378.836 6  24492167.938                    24492180.391
 110827819.933 8  86359476.98446  21089820.773                    21089826.711
 119237363.479 6  92912282.40844  22690114.250                    22690123.590
 11  7 29  0 49  0.0000000  0 10G10G28G17G09G04G12G01G05G02G27
 114732777.689 7  89402245.00845  21832904.547                    21832912.574
 121872744.241 7  94965864.23044  23191613.555                    23191622.488
 116101663.733 7  90468945.388 7  22093396.086                    22093404.246
 117096251.799 7  91243914.26544  22282685.781                    22282694.020
 106110588.632 8  82683734.89846  20192159.766                    20192167.699
 121896491.098 7  94984240.708 6  23196112.523                    23196120.254
 126049127.502 7  98220159.252 6  23986352.766
 128601727.116 6 100209210.363 6  24472101.070                    24472113.523
 110783691.609 8  86325091.29146  21081423.695                    21081429.480
 119273845.464 7  92940709.89344  22697057.336                    22697066.000
 11  7 29  0 49 30.0000000  0 10G10G28G17G09G04G12G01G05G02G27
 114661773.410 7  89346917.03745  21819392.617                    21819401.285
 121959679.191 7  95033605.70844  23208156.578                    23208164.961
 116141882.956 7  90500285.012 7  22101049.828                    22101057.246
 117132866.698 7  91272445.32845  22289653.383                    22289662.230
 106150796.529 8  82715065.72946  20199811.258                    20199818.691
 121803803.404 7  94912016.561 6  23178474.875                    23178482.207
 125961919.950 6  98152205.403 6  23969756.750
 128496214.202 6 100126992.671 6  24452022.531                    24452034.426
 110739933.093 8  86290993.76646  21073096.273                    21073101.816
 119310706.030 7  92969432.37745  22704071.695                    22704080.621
 11  7 29  0 50  0.0000000  0 10G10G28G17G09G04G12G01G05G02G27
 114591158.597 7  89291892.56145  21805955.016                    21805963.125
 122046911.630 7  95101578.93343  23224756.172                    23224765.766
 116182199.172 7  90531700.231 7  22108722.273                    22108729.773
 117170021.469 7  91301397.07145  22296723.680                    22296732.402
 106191435.240 8  82746732.25946  20207544.766                    20207552.445
 121711254.571 7  94839900.578 6  23160862.906                    23160870.445
 125874939.455 7  98084428.502 6  23953205.766
 128390641.897 6 100044728.844 6  24431932.813                    24431944.926
 110696544.294 8  86257184.32946  21064839.922                    21064845.758
 119347943.650 7  92998448.64744  22711157.539                    22711166.988
 11  7 29  0 50 30.0000000  0 10G10G28G17G09G04G12G01G05G02G27
 114520935.530 7  89237173.32045  21792592.266                    21792600.297
 122134439.615 6  95169782.47444  23241412.922                    23241421.980
 116222611.805 7  90563190.565 7  22116411.883                    22116419.926
 117207712.943 7  91330767.01345  22303896.180                    22303905.090
 106232501.730 8  82778732.12046  20215359.016                    20215367.039
 121618846.261 7  94767894.135 7  23143279.094                    23143286.625
 125788186.483 7  98016828.872 6  23936697.406
 128285012.325 6  99962420.327 6  24411831.469                    24411843.734
 110653524.805 8  86223662.66146  21056653.563                    21056659.230
 119385555.572 7  93027756.60844  22718315.000                    22718324.031
 11  7 29  0 51  0.0000000  0 10G10G28G17G09G04G12G01G05G02G27
 114451107.217 7  89182761.69545  21779304.055                    21779312.387
 122222261.762 7  95238215.25044  23258125.969                    23258133.969
 116263121.364 7  90594756.435 7  22124120.695                    22124128.453
 117245938.952 7  91360553.49345  22311170.086                    22311179.027
 106273993.981 8  82811063.74846  20223254.789                    20223262.277
 121526580.957 7  94695999.127 7  23125720.070                    23125728.531
 125701662.304 6  97949407.511 6  23920232.078
 128179327.574 6  99880068.849 6  24391720.883                    24391732.340
 110610874.628 8  86190428.77146  21048537.383                    21048543.609
 119423539.642 7  93057354.53344  22725544.016                    22725552.164
 11  7 29  0 51 30.0000000  0 10G10G28G17G09G04G12G01G05G02G27
 114381676.770 7  89128660.08845  21766091.688                    21766100.031
 122310376.409 7  95306875.93943  23274892.180                    23274900.758
 116303728.609 7  90626398.423 7  22131848.516                    22131855.906
 117284696.741 7  91390754.34445  22318545.477                    22318554.453
 106315909.750 8  82843725.38246  20231231.414                    20231239.063
 121434461.098 7  94624217.444 6  23108190.898                    23108197.777
 125615367.936 7  97882165.205 6  23903810.563
 128073590.520 6  99797676.591 6  24371599.438                    24371611.270
 110568593.859 8  86157482.73146  21040491.781                    21040497.520
 119461893.839 7  93087240.88344  22732841.547                    22732850.902
 11  7 29  0 52  0.0000000  0 10G10G28G17G09G04G12G01G05G02G27
 114312647.616 7  89074871.18945  21752956.031                    21752964.195
 122398782.251 6  95375763.54843  23291715.219                    23291724.176
 116344434.295 7  90658117.111 7  22139594.125                    22139602.281
 117323984.484 7  91421368.13444  22326021.578                    22326029.980
 106358247.032 8  82876715.47146  20239287.422                    20239295.281
 121342489.371 7  94552551.165 7  23090689.211                    23090697.199
 125529304.830 7  97815103.119 6  23887433.898
 127967803.888 6  99715245.727 6  24351468.484                    24351480.664
 110526683.011 8  86124824.94646  21032516.367                    21032522.172
 119500616.365 7  93117414.25144  22740210.656                    22740219.109
 11  7 29  0 52 30.0000000  0 10G10G28G17G09G04G12G01G05G02G27
 114244022.626 7  89021397.20745  21739896.727                    21739905.070
 122487477.824 6  95444876.92443  23308593.594                    23308602.621
 116385238.220 7  90689912.351 7  22147359.242                    22147366.555
 117363799.614 6  91452392.89345  22333598.828                    22333606.914
 106401003.803 8  82910032.43846  20247424.055                    20247431.809
 121250667.756 7  94481001.914 7  23073216.117                    23073223.832
 125443473.755 7  97748221.848 6  23871099.906
 127861970.310 6  99632778.275 6  24331328.883                    24331340.949
 110485141.858 8  86092455.23146  21024611.375                    21024617.199
 119539705.049 7  93147872.91244  22747648.781                    22747658.043
 11  7 29  0 53  0.0000000  0 10G10G28G17G09G04G12G01G05G02G27
 114175804.862 7  88968240.55745  21726915.727                    21726923.715
 122576461.635 6  95514214.84543  23325526.703                    23325535.441
 116426140.786 7  90721784.473 7  22155142.672                    22155150.031
 117404139.784 7  91483826.76344  22341274.742                    22341283.852
 106444177.840 8  82943674.53846  20255639.844                    20255647.730
 121158998.703 7  94409571.494 6  23055772.102                    23055779.621
 125357875.882 6  97681522.326 6  23854810.703
 127756092.897 6  99550276.676 6  24311180.703                    24311192.398
 110443970.239 8  86060373.45646  21016776.727                    21016782.203
 119579157.881 7  93178615.32744  22755156.625                    22755165.211
 11  7 29  0 53 30.0000000  0 10G10G28G17G09G04G12G01G05G02G27
 114107996.961 7  88915403.27745  21714012.047                    21714020.691
 122665731.979 7  95583776.06143  23342515.383                    23342523.320
 116467142.093 7  90753733.522 7  22162945.195                    22162952.641
 117445001.779 6  91515667.23844  22349050.906                    22349059.430
 106487766.223 8  82977639.50446  20263934.352                    20263942.008
 121067484.434 7  94338261.668 6  23038357.367                    23038364.699
 125272511.883 7  97615004.977 6  23838567.242
 127650173.598 6  99467742.426 6  24291025.273                    24291036.773
 110403167.910 8  86028579.44746  21009012.297                    21009018.055
 119618972.260 7  93209639.48344  22762732.922                    22762742.223
 11  7 29  0 54  0.0000000  0 10G10G28G17G09G04G12G01G05G02G27
 114040602.426 7  88862888.09945  21701187.539                    21701195.773
 122755287.688 7  95653559.64143  23359556.906                    23359565.738
 116508243.205 7  90785760.341 7  22170766.453                    22170773.734
 117486383.926 7  91547913.03945  22356925.875                    22356934.531
 106531767.318 8  83011926.05746  20272307.531                    20272315.512
 120976127.649 7  94267074.617 7  23020972.555                    23020980.359
 125187383.186 7  97548670.964 6  23822367.461
 127544215.114 6  99385177.655 6  24270862.016                    24270873.457
 110362735.150 8  85997073.41746  21001317.891                    21001323.684
 119659146.564 6  93240944.10744  22770378.125                    22770387.000
 11  7 29  0 54 30.0000000  0 10G10G28G17G09G04G12G01G05G02G27
 113973623.633 7  88810696.88845  21688441.938                    21688450.531
 122845126.716 6  95723563.96343  23376652.633                    23376661.242
 116549444.046 7  90817864.872 7  22178606.836                    22178614.301
 117528283.327 7  91580561.88045  22364899.172                    22364907.543
 106576178.743 8  83046532.35146  20280759.016                    20280766.516
 120884930.516 7  94196011.912 6  23003618.695                    23003626.063
 125102490.713 6  97482521.094 6  23806212.656
 127438220.312 6  99302584.592 6  24250691.141                    24250702.574
 110322671.692 8  85965855.15046  20993694.109                    20993699.762
 119699678.249 7  93272527.18844  22778090.281                    22778100.051
 11  7 29  0 55  0.0000000  0 10G10G28G17G09G04G12G01G05G02G27
 113907064.591 7  88758832.73845  21675775.328                    21675784.109
 122935248.242 6  95793788.44643  23393801.445                    23393811.770
 116590745.279 7  90850047.625 7  22186465.656                    22186473.391
 117570697.672 7  91613611.96844  22372970.602                    22372978.773
 106620998.744 8  83081457.01246  20289287.695                    20289295.590
 120793895.614 7  94125075.640 6  22986295.047                    22986303.023
 125017835.728 7  97416556.261 6  23790103.688
 127332192.284 6  99219965.613 6  24230514.242                    24230526.105
 110282978.208 8  85934925.18746  20986140.898                    20986146.672
 119740565.700 7  93304387.49144  22785871.180                    22785880.711
 11  7 29  0 55 30.0000000  0 10G10G28G17G09G04G12G01G05G02G27
 113840928.238 7  88707297.97045  21663190.391                    21663199.172
 123025650.404 6  95864231.60443  23411005.289                    23411014.633
 116632147.555 7  90882309.115 7  22194344.773                    22194352.035
 117613624.559 7  91647061.44044  22381138.594                    22381147.906
 106666225.266 8  83116698.44946  20297894.266                    20297901.891
 120703025.774 7  94054267.999 7  22969003.594                    22969011.398
 124933419.631 7  97350777.523 6  23774039.711
 127226133.775 6  99137322.921 6  24210332.469                    24210343.176
 110243654.740 8  85904283.54746  20978657.711                    20978663.707
 119781806.694 7  93336523.28844  22793719.898                    22793728.543
 11  7 29  0 56  0.0000000  0 10G10G28G17G09G04G12G01G05G02G27
 113775216.608 7  88656094.14145  21650686.242                    21650694.520
 123116331.081 6  95934891.75843  23428261.469                    23428270.742
 116673650.526 7  90914649.081 7  22202242.398                    22202249.801
 117657060.821 7  91680907.85044  22389404.391                    22389412.805
 106711855.216 8  83152254.23346  20306577.031                    20306585.215
 120612322.650 7  93983590.261 6  22951743.133                    22951750.324
 124849242.453 7  97285184.971 6  23758021.219
 127120046.809 6  99054657.989 6  24190144.414                    24190155.879
 110204700.237 8  85873929.40446  20971244.523                    20971250.629
 119823398.366 7  93368932.33344  22801634.078                    22801643.352
 11  7 29  0 56 30.0000000  0 10G10G28G17G09G04G12G01G05G02G27
 113709933.401 7  88605224.14345  21638262.555                    21638271.418
 123207289.387 6  96005768.29644  23445570.594                    23445579.527
 116715255.085 7  90947068.201 7  22210159.250                    22210167.164
 117701004.407 7  91715149.56144  22397766.375                    22397775.199
 106757886.774 8  83188122.96846  20315336.750                    20315344.457
 120521789.226 7  93913044.757 7  22934515.227                    22934523.105
 124765305.806 7  97219779.897 7  23742048.281
 127013934.488 6  98971973.329 6  24169951.734                    24169962.914
 110166115.316 8  85843863.25246  20963902.258                    20963908.227
 119865338.936 7  93401613.25044  22809615.039                    22809624.160
 11  7 29  0 57  0.0000000  0 10G10G28G17G09G04G12G01G05G02G27
 113645081.509 7  88554690.24545  21625921.766                    21625930.441
 123298523.619 7  96076859.81743  23462931.367                    23462940.695
 116756961.665 7  90979566.806 7  22218095.734                    22218103.859
 117745452.851 7  91749784.66744  22406225.180                    22406233.227
 106804317.762 8  83224302.94746  20324172.289                    20324179.723
 120431427.631 7  93842633.163 7  22917319.836                    22917327.891
 124681610.713 7  97154563.010 6  23726122.055
 126907799.769 6  98889271.198 6  24149754.148                    24149766.070
 110127899.607 8  85814084.79446  20956629.891                    20956636.039
 119907626.229 7  93434564.34544  22817661.992                    22817671.195
 11  7 29  0 57 30.0000000  0 10G10G28G17G09G04G12G01G05G02G27
 113580663.434 7  88504494.37445  21613663.227                    21613672.266
 123390031.886 6  96148164.90343  23480344.555                    23480354.535
 116798770.449 7  91012145.058 7  22226051.805                    22226059.086
 117790403.472 7  91784811.09444  22414778.805                    22414787.000
 106851145.915 8  83260792.40346  20333083.273                    20333091.254
 120341240.354 7  93772357.405 7  22900157.555                    22900165.871
 124598158.091 7  97089535.046 6  23710241.055
 126801645.170 6  98806553.591 6  24129554.094                    24129565.426
 110090053.122 8  85784594.04946  20949428.297                    20949434.055
 119950257.844 7  93467783.72944  22825775.281                    22825784.383
 11  7 29  0 58  0.0000000  0 10G10G28G17G09G04G12G01G05G02G27
 113516681.808 7  88454638.58345  21601488.320                    21601496.652
 123481812.403 6  96219682.13543  23497808.742                    23497818.906
 116840681.870 7  91044803.303 7  22234027.234                    22234034.742
 117835853.082 7  91820226.33744  22423427.398                    22423436.461
 106898368.710 8  83297589.37646  20342069.750                    20342077.512
 120251229.589 7  93702219.176 7  22883029.180                    22883036.914
 124514948.530 7  97024696.494 7  23694407.047
 126695472.997 6  98723822.284 6  24109348.953                    24109361.305
 110052575.476 8  85755390.70846  20942296.641                    20942302.094
 119993231.434 6  93501269.60144  22833952.250                    22833961.699
 11  7 29  0 58 30.0000000  0 10G10G28G17G09G04G12G01G05G02G27
 113453140.122 7  88405125.61845  21589396.367                    21589405.102
 123573863.909 6  96291410.47743  23515326.336                    23515336.078
 116882696.795 7  91077542.182 7  22242022.297                    22242030.063
 117881799.405 7  91856028.63344  22432171.180                    22432179.875
 106945984.159 8  83334692.31046  20351130.344                    20351138.238
 120161398.484 7  93632220.968 7  22865934.938                    22865942.801
 124431983.511 7  96960048.516 7  23678618.727
 126589286.419 6  98641079.744 6  24089143.289                    24089153.938
 110015467.153 8  85726475.15346  20935235.023                    20935240.891
 120036545.104 7  93535020.46744  22842194.484                    22842204.199
 11  7 29  0 59  0.0000000  0 10G10G28G17G09G04G12G01G05G02G27
 113390041.239 7  88355957.69345  21577389.250                    21577397.184
 123666184.709 6  96363348.64543  23532895.859                    23532904.059
 116924815.668 7  91110362.059 7  22250037.555                    22250045.207
 117928239.715 7  91892215.84944  22441008.609                    22441017.086
 106993990.087 8  83372099.51646  20360265.672                    20360273.813
 120071748.942 7  93562364.235 6  22848875.141                    22848882.406
 124349263.909 7  96895591.785 7  23662877.867
 126483087.989 6  98558327.936 6  24068934.047                    24068944.520
 109978727.422 8  85697846.81846  20928243.422                    20928249.320
 120080196.466 7  93569034.45344  22850501.000                    22850510.367
 11  7 29  0 59 30.0000000  0 10G10G28G17G09G04G12G01G05G02G27
 113327388.129 7  88307137.10645  21565466.656                    21565474.598
 123758773.315 6  96435495.53843  23550514.938                    23550523.160
 116967038.645 7  91143263.059 7  22258072.656                    22258080.094
 117975171.554 7  91928786.07144  22449938.797                    22449947.746
 107042384.109 8  83409809.13546  20369474.695                    20369483.023
 119982283.729 7  93492651.121 7  22831850.273                    22831858.426
 124266790.973 7  96831327.243 6  23647183.953
 126376880.742 6  98475569.278 6  24048723.422                    24048734.012
 109942356.610 8  85669505.94946  20921322.789                    20921328.402
 120124183.470 7  93603310.00844  22858872.430                    22858881.086
 11  7 29  1  0  0.0000000  0 10G10G28G17G09G04G12G01G05G02G27
 113265182.961 7  88258665.57345  21553629.461                    21553637.719
 123851627.389 6  96507849.25343  23568184.211                    23568193.918
 117009365.686 7  91176245.140 7  22266126.516                    22266134.621
 118022591.736 7  91965736.81644  22458963.289                    22458972.137
 107091163.720 8  83447819.21246  20378757.359                    20378765.063
 119893004.989 7  93423083.332 7  22814861.594                    22814868.590
 124184564.726 7  96767254.913 7  23631537.086
 126270667.027 6  98392805.547 6  24028511.164                    24028522.367
 109906353.980 8  85641451.97146  20914471.430                    20914477.297
 120168503.141 7  93637844.76244  22867305.406                    22867314.863
 11  7 29  1  0 30.0000000  0 10G10G28G17G09G04G12G01G05G02G27
 113203429.520 7  88210546.04645  21541878.281                    21541886.266
 123944746.083 6  96580409.25343  23585904.664                    23585912.973
 117051797.941 7  91209309.209 7  22274201.664                    22274209.270
 118070497.998 7  92003066.34044  22468079.180                    22468088.059
 107140326.920 8  83486128.19246  20388112.688                    20388121.066
 119803915.309 7  93353662.849 7  22797908.070                    22797915.758
 124102587.026 7  96703376.275 7  23615936.617
 126164450.037 6  98310039.261 6  24008298.336                    24008309.488
 109870719.839 8  85613685.13346  20907690.578                    20907696.535
 120213153.789 6  93672637.40844  22875802.336                    22875811.473
 11  7 29  1  1  0.0000000  0 10G10G28G17G09G04G12G01G05G02G27
 113142130.216 7  88162780.38145  21530213.102                    21530221.129
 124038127.163 6  96653173.65243  23603674.164                    23603682.969
 117094335.661 7  91242455.472 7  22282296.016                    22282303.301
 118118887.168 7  92040772.15044  22477287.469                    22477296.027
 107189871.234 8  83524734.14146  20397540.891                    20397548.648
 119715017.018 7  93284391.511 7  22780990.867                    22780998.828
 124020858.224 7  96639691.606 7  23600384.234
 126058232.292 6  98227272.368 6  23988085.352                    23988096.754
 109835453.727 8  85586205.07446  20900979.625                    20900985.367
 120258132.729 7  93707685.90444  22884362.055                    22884371.012
 11  7 29  1  1 30.0000000  0 10G10G28G17G09G04G12G01G05G02G27
 113081288.144 7  88115370.99945  21518634.969                    21518643.184
 124131769.373 6  96726141.52943  23621493.961                    23621502.680
 117136979.212 7  91275684.189 7  22290411.164                    22290418.422
 118167756.764 7  92078852.32044  22486586.859                    22486595.559
 107239794.756 8  83563635.57446  20407040.742                    20407048.730
 119626313.016 7  93215271.572 7  22764111.445                    22764119.180
 123939379.820 7  96576202.010 7  23584879.258
 125952016.862 6  98144507.289 6  23967873.195                    23967884.438
 109800555.799 8  85559011.90846  20894338.586                    20894344.133
 120303438.058 7  93742988.71144  22892983.469                    22892992.242
 11  7 29  1  2  0.0000000  0 10G10G28G17G09G04G12G01G05G02G27
 113020905.705 7  88068319.78245  21507144.945                    21507153.180
 124225670.927 6  96799311.52443  23639362.063                    23639371.477
 117179729.163 7  91308995.805 7  22298546.133                    22298553.867
 118217104.201 7  92117304.84644  22495977.563                    22495986.148
 107290094.949 8  83602830.51946  20416612.445                    20416620.781
 119537805.566 7  93146304.779 7  22747268.484                    22747276.355
 123858152.208 7  96512907.839 7  23569422.148
 125845806.233 6  98061745.951 6  23947662.258                    23947672.637
 109766025.899 8  85532105.51946  20887767.586                    20887773.313
 120349067.246 7  93778543.89244  22901666.094                    22901675.539
 11  7 29  1  2 30.0000000  0 10G10G28G17G09G04G12G01G05G02G27
 112960986.027 7  88021629.14345  21495742.656                    21495750.805
 124319830.032 6  96872682.13743  23657279.898                    23657289.957
 117222586.160 7  91342390.857 7  22306701.883                    22306709.648
 118266926.787 7  92156127.61944  22505458.289                    22505466.535
 107340769.522 8  83642317.19346  20426255.961                    20426264.137
 119449497.396 7  93077493.265 7  22730464.383                    22730471.816
 123777176.701 7  96449810.137 7  23554013.172
 125739603.534 6  97978990.787 6  23927452.578                    23927463.133
 109731863.701 8  85505485.66446  20881266.914                    20881272.121
 120395018.156 7  93814349.73744  22910410.078                    22910419.293
 11  7 29  1  3  0.0000000  0 10G10G28G17G09G04G12G01G05G02G27
 112901530.655 7  87975300.31045  21484428.617                    21484436.809
 124414244.060 6  96946251.43743  23675246.750                    23675256.555
 117265549.580 7  91375868.822 7  22314876.836                    22314884.938
 118317220.262 7  92195317.30644  22515028.500                    22515038.309
 107391815.227 8  83682093.05146  20435969.406                    20435977.898
 119361390.287 7  93008838.419 7  22713698.211                    22713705.711
 123696453.023 7  96386908.639 7  23538652.047
 125633410.371 6  97896243.039 6  23907244.680                    23907255.402
 109698067.774 8  85479151.19746  20874835.852                    20874841.594
 120441287.213 7  93850403.50244  22919214.758                    22919224.422
 11  7 29  1  3 30.0000000  0 10G10G28G17G09G04G12G01G05G02G27
 112842544.254 7  87929336.90245  21473203.641                    21473212.395
 124508912.625 6  97020019.04443  23693261.273                    23693271.414
 117308621.403 7  91409431.239 7  22323073.758                    22323081.164
 118367983.692 7  92234873.18844  22524688.898                    22524697.621
 107443231.505 8  83722157.66946  20445753.297                    20445761.449
 119273487.405 7  92940342.708 7  22696970.695                    22696978.012
 123615983.640 7  96324205.289 7  23523338.813
 125527231.225 6  97813506.219 6  23887039.023                    23887049.664
 109664639.679 8  85453103.35946  20868474.531                    20868480.137
 120487873.651 7  93886704.56344  22928079.758                    22928089.141
 11  7 29  1  4  0.0000000  0 10G10G28G17G09G04G12G01G05G02G27
 112784029.153 7  87883740.74145  21462068.422                    21462076.871
 124603833.965 6  97093983.68443  23711323.773                    23711333.879
 117351801.484 7  91443078.036 7  22331290.898                    22331298.129
 118419213.707 7  92274792.64844  22534438.305                    22534446.777
 107495015.450 8  83762508.78746  20455607.680                    20455615.480
 119185791.288 7  92872008.094 7  22680282.344                    22680290.125
 123535769.068 7  96261700.518 7  23508074.664
 125421068.357 7  97730782.081 6  23866837.133                    23866847.371
 109631578.647 8  85427341.53846  20862183.172                    20862188.906
 120534774.745 7  93923250.83844  22937004.992                    22937014.105
 11  7 29  1  4 30.0000000  0 10G10G28G17G09G04G12G01G05G02G27
 112725987.182 7  87838513.25845  21451023.719                    21451032.410
 124699005.235 6  97168143.03843  23729434.281                    23729443.695
 117395090.002 7  91476809.324 7  22339528.250                    22339535.551
 118470906.794 7  92315072.93144  22544274.891                    22544283.793
 107547164.115 8  83803144.09546  20465531.594                    20465539.359
 119098303.653 7  92803835.951 7  22663634.461                    22663641.395
 123455809.409 7  96199394.357 7  23492858.813
 125314923.637 6  97648072.083 6  23846637.953                    23846648.566
 109598883.717 8  85401864.98846  20855961.508                    20855967.266
 120581987.362 7  93960039.85944  22945989.336                    22945998.156
 11  7 29  1  5  0.0000000  0 10G10G28G17G09G04G12G01G05G02G27
 112668421.357 7  87793656.80145  21440069.094                    21440077.906
 124794425.734 6  97242496.55643  23747592.305                    23747602.297
 117438487.513 7  91510625.533 7  22347786.289                    22347794.160
 118523060.534 7  92355712.17145  22554198.945                    22554208.305
 107599675.483 8  83844062.03046  20475524.195                    20475532.367
 119011027.666 7  92735828.698 7  22647026.172                    22647033.617
 123376106.119 7  96137287.964 7  23477691.992
 125208800.806 6  97565379.121 6  23826442.859                    23826453.277
 109566554.967 8  85376673.76946  20849809.453                    20849815.367
 120629509.758 7  93997070.25744  22955032.586                    22955042.098
 11  7 29  1  5 30.0000000  0 10G10G28G17G09G04G12G01G05G02G27
 112611334.947 7  87749173.91045  21429206.516                    21429214.750
 124890093.255 6  97317042.56543  23765797.461                    23765807.590
 117481994.844 7  91544527.312 7  22356065.500                    22356073.426
 118575672.154 7  92396708.20744  22564210.695                    22564219.648
 107652547.592 8  83885261.06446  20485585.422                    20485593.156
 118923965.920 7  92667988.401 7  22630458.688                    22630466.219
 123296659.971 7  96075381.968 7  23462573.547
 125102702.820 6  97482705.515 6  23806253.758                    23806264.367
 109534592.547 8  85351768.00046  20843726.977                    20843733.207
 120677339.524 7  94034340.14444  22964134.539                    22964144.422
 11  7 29  1  6  0.0000000  0 10G10G28G17G09G04G12G01G05G02G27
 112554729.428 7  87705065.72645  21418434.695                    21418442.789
 124986005.161 6  97391779.07743  23784047.969                    23784058.887
 117525612.025 7  91578514.691 7  22364365.156                    22364373.523
 118628737.864 7  92438058.06844  22574309.266                    22574317.551
 107705777.302 8  83926738.75146  20495714.727                    20495722.074
 118837120.617 7  92600316.751 7  22613932.727                    22613940.691
 123217471.109 7  96013676.453 7  23447504.328
 124996631.741 6  97400052.884 6  23786069.039                    23786079.426
 109502995.036 8  85327146.57046  20837714.523                    20837720.070
 120725473.374 7  94071846.99044  22973293.852                    22973303.434
 11  7 29  1  6 30.0000000  0 10G10G28G17G09G04G12G01G05G02G27
 112498608.682 7  87661335.30345  21407755.484                    21407763.516
 125082160.859 6  97466705.54143  23802346.750                    23802356.148
 117569339.827 7  91612588.260 7  22372686.953                    22372694.180
 118682256.039 7  92479760.51144  22584493.414                    22584501.559
 107759362.979 8  83968493.80446  20505911.594                    20505919.656
 118750494.511 7  92532815.906 7  22597448.328                    22597455.984
 123138541.197 7  95952172.691 7  23432484.141
 124890591.177 6  97317424.043 6  23765889.945                    23765900.223
 109471763.263 8  85302810.13746  20831771.000                    20831776.988
 120773909.943 7  94109589.74344  22982511.320                    22982520.125
 11  7 29  1  7  0.0000000  0 10G10G28G17G09G04G12G01G05G02G27
 112442975.381 7  87617984.70945  21397168.453                    21397177.195
 125178558.356 6  97541820.33042  23820690.328                    23820699.793
 117613178.868 7  91646748.512 7  22381029.430                    22381036.949
 118736223.320 7  92521812.89044  22594763.055                    22594771.566
 107813302.308 8  84010524.44246  20516175.875                    20516183.676
 118664089.977 7  92465487.705 7  22581006.141                    22581014.098
 123059871.047 7  95890871.346 7  23417513.656
 124784583.637 6  97234820.910 6  23745717.344                    23745726.918
 109440896.735 8  85278758.30346  20825897.422                    20825903.258
 120822646.557 7  94147566.28944  22991785.898                    22991794.797
 11  7 29  1  7 30.0000000  0 10G10G28G17G09G04G12G01G05G02G27
 112387831.534 7  87575015.51145  21386674.633                    21386683.391
 125275195.407 6  97617121.84542  23839079.477                    23839089.824
 117657129.047 7  91680995.372 7  22389392.664                    22389400.352
 118790636.366 7  92564212.62744  22605117.133                    22605126.262
 107867592.550 8  84052828.51446  20526507.055                    20526515.031
 118577909.422 7  92398334.043 7  22564606.203                    22564614.258
 122981460.775 7  95829772.524 7  23402592.492
 124678611.605 6  97152245.469 6  23725551.289                    23725561.402
 109410394.427 8  85254990.28346  20820093.055                    20820098.746
 120871680.467 7  94185774.50444  23001116.438                    23001125.898
 11  7 29  1  8  0.0000000  0 10G10G28G17G09G04G12G01G05G02G27
 112333179.500 7  87532429.54145  21376275.313                    21376283.406
 125372070.436 6  97692608.80743  23857515.180                    23857525.090
 117701191.298 7  91715329.550 7  22397776.578                    22397785.340
 118845492.466 7  92606957.60944  22615556.219                    22615565.164
 107922231.665 8  84095404.43546  20536904.695                    20536912.211
 118491955.278 7  92331356.784 7  22548250.305                    22548257.684
 122903311.613 7  95768877.156 7  23387721.438
 124572678.388 6  97069700.261 6  23705392.219                    23705402.551
 109380256.486 8  85231506.17846  20814357.883                    20814363.742
 120921009.536 7  94224212.67944  23010503.609                    23010513.301
 11  7 29  1  8 30.0000000  0 10G10G28G17G09G04G12G01G05G02G27
 112279022.512 7  87490229.31045  21365969.023                    21365977.813
 125469182.058 6  97768280.12943  23875995.055                    23876004.770
 117745366.405 7  91749751.662 7  22406183.047                    22406191.770
 118900788.802 7  92650045.63744  22626078.531                    22626087.504
 107977217.595 8  84138250.59946  20547367.828                    20547375.941
 118406230.859 7  92264558.556 7  22531937.141                    22531945.176
 122825424.670 7  95708186.072 7  23372900.469
 124466787.277 7  96987187.849 6  23685242.008                    23685252.363
 109350483.030 8  85208306.09646  20808692.219                    20808697.902
 120970631.633 7  94262879.20544  23019946.258                    23019955.652
 11  7 29  1  9  0.0000000  0 10G10G28G17G09G04G12G01G05G02G27
 112225362.455 8  87448416.30245  21355757.883                    21355766.250
 125566527.861 6  97844133.90643  23894518.906                    23894528.938
 117789654.233 7  91784261.608 7  22414610.898                    22414619.230
 118956521.571 7  92693473.73144  22636684.039                    22636692.945
 108032547.084 8  84181364.47146  20557896.680                    20557904.613
 118320737.868 7  92197940.655 7  22515668.273                    22515676.012
 122747799.831 7  95647699.254 7  23358128.406
 124360940.119 7  96904709.725 6  23665099.695                    23665110.070
 109321072.744 8  85185388.99746  20803095.625                    20803101.723
 121020543.296 7  94301771.37944  23029444.281                    23029453.504
 11  7 29  1  9 30.0000000  0 10G10G28G17G09G04G12G01G05G02G27
 112172202.899 7  87406993.30145  21345642.102                    21345650.531
 125664106.122 6  97920168.80043  23913088.172                    23913098.301
 117834055.703 7  91818860.145 7  22423060.141                    22423068.539
 119012688.835 7  92737240.39344  22647372.750                    22647381.910
 108088218.986 8  84224745.16746  20568490.859                    20568498.531
 118235479.698 7  92131505.727 7  22499444.383                    22499451.836
 122670438.547 7  95587417.810 7  23343406.813
 124255140.447 7  96822268.558 6  23644966.805                    23644976.703
 109292025.807 8  85162755.04046  20797568.453                    20797574.344
 121070742.813 7  94340887.84744  23038996.992                    23039006.004
 11  7 29  1 10  0.0000000  0 10G10G28G17G09G04G12G01G05G02G27
 112119545.754 7  87365961.79345  21335621.539                    21335630.098
 125761914.691 6  97996383.21243  23931701.141                    23931710.027
 117878571.221 7  91853547.520 7  22431531.242                    22431539.566
 119069287.024 7  92781342.83444  22658142.914                    22658151.715
 108144230.085 8  84268390.16246  20579149.359                    20579157.586
 118150458.187 7  92065255.225 7  22483264.836                    22483272.594
 122593341.410 7  95527342.180 7  23328736.102
 124149390.835 7  96739866.416 6  23624843.367                    23624852.973
 109263341.555 8  85140403.68946  20792109.938                    20792115.785
 121121227.158 7  94380226.25144  23048604.055                    23048613.305
 11  7 29  1 10 30.0000000  0 10G10G28G17G09G04G12G01G05G02G27
 112067393.861 7  87325323.97545  21325697.695                    21325705.750
 125859952.381 6  98072776.14443  23950356.320                    23950366.270
 117923201.257 7  91888324.143 7  22440024.438                    22440031.797
 119126313.181 7  92825778.78544  22668994.734                    22669003.828
 108200578.463 8  84312297.97746  20589872.031                    20589879.738
 118065676.059 7  91999191.251 7  22467131.672                    22467139.348
 122516508.925 7  95467472.778 7  23314114.992
 124043694.234 7  96657505.579 6  23604729.539                    23604739.617
 109235019.793 8  85118334.80546  20786720.539                    20786725.984
 121171994.051 7  94419784.81344  23058264.586                    23058273.641
 11  7 29  1 11  0.0000000  0 10G10G28G17G09G04G12G01G05G02G27
 112015749.289 7  87285081.47145  21315870.055                    21315878.082
 125958217.021 6  98149345.93743  23969055.805                    23969065.496
 117967946.211 7  91923190.339 7  22448539.516                    22448547.102
 119183764.377 7  92870545.91344  22679927.641                    22679936.613
 108257261.498 8  84356466.56446  20600658.563                    20600666.441
 117981135.829 7  91933315.778 7  22451043.938                    22451051.711
 122439941.990 7  95407810.295 7  23299544.484
 123938053.543 7  96575188.310 6  23584626.844                    23584636.992
 109207060.046 8  85096548.00246  20781400.234                    20781405.633
 121223041.065 7  94459561.66344  23067978.000                    23067987.000
 11  7 29  1 11 30.0000000  0 10G10G28G17G09G04G12G01G05G02G27
 111964614.451 7  87245236.17845  21306138.953                    21306147.305
 126056706.384 6  98226090.76943  23987798.648                    23987807.699
 118012806.559 7  91958146.446 7  22457075.750                    22457083.578
 119241637.085 7  92915641.48644  22690940.375                    22690949.266
 108314276.423 8  84400893.76546  20611508.359                    20611516.191
 117896839.763 7  91867630.558 7  22435002.969                    22435010.109
 122363640.943 7  95348354.992 7  23285025.125
 123832471.193 7  96492916.482 6  23564535.070                    23564545.313
 109179461.555 8  85075042.70246  20776148.102                    20776153.633
 121274365.273 7  94499554.51844  23077744.695                    23077753.832
 11  7 29  1 12  0.0000000  0 10G10G28G17G09G04G12G01G05G02G27
 111913992.611 7  87205790.61345  21296506.086                    21296513.871
 126155419.345 6  98303009.90743  24006583.359                    24006591.914
 118057783.118 7  91993193.107 7  22465634.320                    22465641.949
 119299929.137 7  92961063.82644  22702032.750                    22702041.516
 108371622.058 8  84445578.67446  20622420.352                    20622428.316
 117812791.019 7  91802138.059 7  22419009.367                    22419016.594
 122287607.470 7  95289108.187 7  23270556.961
 123726950.883 7  96410693.003 6  23544455.102                    23544464.344
 109152224.681 8  85053819.17746  20770965.320                    20770970.496
 121325964.783 7  94539761.86344  23087563.805                    23087573.449
 11  7 29  1 12 30.0000000  0 10G10G28G17G09G04G12G01G05G02G27
 111863885.962 7  87166746.49545  21286971.180                    21286979.199
 126254353.738 6  98380101.58843  24025409.820                    24025418.582
 118102876.556 7  92028330.832 7  22474215.813                    22474223.031
 119358637.237 7  93006810.35744  22713204.859                    22713213.730
 108429295.696 8  84490519.15446  20633395.742                    20633403.645
 117728992.374 7  91736840.440 7  22403062.750                    22403070.277
 122211841.871 7  95230070.120 7  23256139.070
 123621495.183 7  96328519.856 6  23524387.750                    23524397.266
 109125348.664 8  85032876.85146  20765850.773                    20765856.508
 121377837.033 7  94580181.74644  23097435.359                    23097444.898
 11  7 29  1 13  0.0000000  0 10G10G28G17G09G04G12G01G05G02G27
 111814295.825 8  87128104.85945  21277534.414                    21277542.395
 126353506.968 6  98457363.73643  24044276.836                    24044286.723
 118148086.331 7  92063559.261 6  22482819.203                    22482826.285
 119417757.330 7  93052877.93444  22724455.102                    22724463.359
 108487293.969 8  84535712.60646  20644432.289                    20644440.262
 117645445.297 7  91671738.861 7  22387164.117                    22387171.750
 122136344.264 7  95171240.881 7  23241771.734
 123516106.513 7  96246398.938 6  23504332.188                    23504342.926
 109098832.063 8  85012214.59146  20760804.742                    20760810.016
 121429978.581 7  94620811.47844  23107356.969                    23107367.191
 11  7 29  1 13 30.0000000  0 10G10G28G17G09G04G12G01G05G02G27
 111765225.731 7  87089868.45945  21268196.648                    21268204.602
 126452877.708 6  98534795.39943  24063186.734                    24063196.750
 118193413.894 7  92098879.436 7  22491444.609                    22491452.184
 119477287.129 7  93099264.76444  22735782.500                    22735791.855
 108545615.435 8  84581157.89546  20655530.523                    20655538.496
 117562153.080 7  91606835.873 7  22371314.234                    22371321.934
 122061115.858 7  95112621.378 7  23227456.805
 123410788.419 7  96164333.023 6  23484291.305                    23484301.086
 109072675.449 8  84991832.84546  20755827.273                    20755833.191
 121482387.690 7  94661649.68744  23117330.258                    23117340.125
 11  7 29  1 14  0.0000000  0 10G10G28G17G09G04G12G01G05G02G27
 111716678.045 7  87052039.12045  21258958.383                    21258966.250
 126552464.105 6  98612395.13742  24082137.336                    24082147.664
 118238859.717 7  92134291.745 7  22500092.508                    22500100.258
 119537223.483 7  93145968.38344  22747188.859                    22747197.723
 108604257.761 8  84626853.20746  20666689.852                    20666697.934
 117479118.193 7  91542133.403 7  22355513.211                    22355521.043
 121986157.540 7  95054212.344 7  23213192.430
 123305543.384 7  96082324.022 6  23464264.172                    23464273.598
 109046878.205 8  84971731.12446  20750918.070                    20750923.563
 121535061.867 7  94702694.42144  23127354.359                    23127363.633
 11  7 29  1 14 30.0000000  0 10G10G28G17G09G04G12G01G05G02G27
 111668655.224 7  87014618.77945  21249819.820                    21249828.031
 126652264.314 6  98690161.40342  24101129.586                    24101138.680
 118284424.486 7  92169796.758 7  22508763.672                    22508771.066
 119597563.583 7  93192986.61444  22758670.133                    22758679.699
 108663218.735 8  84672796.81646  20677909.813                    20677917.391
 117396343.470 7  91477633.654 7  22339761.641                    22339768.691
 121911469.872 7  94996014.220 7  23198979.117
 123200374.813 7  96000374.600 6  23444250.383                    23444260.359
 109021440.231 8  84951909.34546  20746077.453                    20746083.219
 121587998.713 7  94743943.86344  23137427.664                    23137437.496
 11  7 29  1 15  0.0000000  0 10G10G28G17G09G04G12G01G05G02G27
 111621158.818 7  86977608.63145  21240781.531                    21240789.727
 126752275.849 6  98768092.43842  24120160.570                    24120170.621
 118330107.911 7  92205394.253 7  22517455.992                    22517464.078
 119658303.409 7  93240316.30644  22770229.539                    22770238.301
 108722495.382 8  84718986.41446  20689189.828                    20689197.926
 117313830.943 7  91413338.215 7  22324060.391                    22324067.652
 121837052.703 7  94938026.866 7  23184818.570
 123095285.238 7  95918486.725 6  23424252.453                    23424261.957
 108996360.050 8  84932366.37446  20741305.039                    20741310.555
 121641194.922 7  94785395.39144  23147550.813                    23147560.203
 11  7 29  1 15 30.0000000  0 10G10G28G17G09G04G12G01G05G02G27
 111574191.658 8  86941010.88745  21231843.773                    21231852.082
 126852497.597 6  98846187.15843  24139232.555                    24139241.707
 118375911.171 7  92241085.108 7  22526172.297                    22526180.453
 119719440.608 7  93287955.65244  22781863.781                    22781872.875
 108782085.910 8  84765420.58546  20700529.297                    20700537.504
 117231583.447 7  91349249.286 7  22308408.859                    22308416.141
 121762907.599 7  94880251.495 7  23170709.359
 122990277.712 7  95836662.784 6  23404270.609                    23404280.152
 108971637.715 8  84913102.24346  20736600.008                    20736606.176
 121694648.437 7  94827047.40344  23157722.391                    23157732.527
 11  7 29  1 16  0.0000000  0 10G10G28G17G09G04G12G01G05G02G27
 111527756.361 7  86904827.56845  21223007.109                    21223015.719
 126952927.068 6  98924443.80442  24158343.922                    24158353.699
 118421834.897 7  92276869.785 7  22534911.141                    22534919.418
 119780971.871 7  93335902.05344  22793572.391                    22793581.621
 108841987.844 8  84812097.41246  20711928.086                    20711936.477
 117149603.690 7  91285368.990 7  22292808.641                    22292816.262
 121689034.746 7  94822688.275 7  23156651.633
 122885355.220 7  95754905.118 6  23384304.367                    23384313.434
 108947273.071 8  84894116.83746  20731963.852                    20731970.008
 121748356.677 7  94868897.91044  23167943.078                    23167953.367
 11  7 29  1 16 30.0000000  0 10G10G28G17G09G04G12G01G05G02G27
 111481855.010 7  86869060.32845  21214272.836                    21214280.941
 127053562.580 6  99002860.97743  24177494.875                    24177503.664
 118467879.300 7  92312748.532 7  22543674.078                    22543681.520
 119842894.023 7  93384153.03244  22805355.852                    22805365.133
 108902198.699 8  84859014.96046  20723385.953                    20723394.207
 117067894.262 7  91221699.335 7  22277259.641                    22277266.898
 121615435.086 7  94765337.961 7  23142645.844
 122780520.666 7  95673215.957 6  23364354.266                    23364364.070
 108923265.120 8  84875409.36746  20727395.242                    20727400.648
 121802316.756 7  94910944.66644  23178211.180                    23178220.250
 11  7 29  1 17  0.0000000  0 10G10G28G17G09G04G12G01G05G02G27
 111436489.129 7  86833710.32445  21205639.766                    21205647.914
 127154401.406 5  99081436.53742  24196681.695                    24196692.691
 118514044.497 7  92348721.406 7  22552458.453                    22552466.500
 119905203.186 6  93432705.59244  22817213.148                    22817222.125
 108962715.703 8  84906171.06546  20734902.297                    20734910.090
 116986457.001 7  91158241.752 7  22261762.703                    22261770.359
 121542108.303 7  94708200.250 7  23128691.992
 122675776.356 7  95591597.135 6  23344422.289                    23344431.844
 108899612.262 8  84856978.60146  20722894.461                    20722900.141
 121856525.746 7  94953185.38844  23188527.445                    23188536.301
 11  7 29  1 17 30.0000000  0 10G10G28G17G09G04G12G01G05G02G27
 111391661.768 7  86798779.94245  21197109.367                    21197117.375
 127255442.204 5  99160169.54042  24215909.750                    24215920.262
 118560331.810 7  92384789.420 7  22561265.898                    22561274.492
 119967896.746 7  93481557.67844  22829142.875                    22829152.594
 109023537.036 8  84953564.30946  20746475.828                    20746483.949
 116905295.209 7  91094998.830 7  22246318.203                    22246325.645
 121469055.816 7  94651276.282 7  23114790.414
 122571125.869 7  95510051.426 6  23324508.156                    23324517.199
 108876315.554 8  84838825.35046  20718460.781                    20718466.590
 121910981.644 7  94995618.49944  23198889.984                    23198899.391
 11  7 29  1 18  0.0000000  0 10G10G28G17G09G04G12G01G05G02G27
 111347375.078 8  86764270.86545  21188682.273                    21188689.598
 127356682.889 6  99239058.24042  24235176.008                    24235186.563
 118606741.598 7  92420952.859 7  22570097.727                    22570105.668
 120030971.497 7  93530706.77044  22841145.289                    22841155.098
 109084660.637 8  85001193.08646  20758107.492                    20758115.223
 116824411.553 7  91031972.608 7  22230926.766                    22230933.859
 121396278.391 7  94594566.666 7  23100941.391
 122466572.055 7  95428581.021 6  23304611.883                    23304621.316
 108853374.072 8  84820948.90946  20714095.773                    20714101.184
 121965681.806 7  95038241.93144  23209298.922                    23209308.488
 11  7 29  1 18 30.0000000  0 10G10G28G17G09G04G12G01G05G02G27
 111303631.022 8  86730184.62945  21180357.492                    21180365.738
 127458121.688 6  99318101.39342  24254479.320                    24254489.270
 118653274.051 7  92457211.911 7  22578953.266                    22578961.395
 120094424.251 7  93580150.43844  22853220.813                    22853229.402
 109146083.661 8  85049055.18046  20769796.070                    20769803.969
 116743808.341 7  90969164.935 7  22215588.234                    22215595.766
 121323776.303 7  94538071.588 7  23087144.406
 122362117.995 7  95347188.367 6  23284734.773                    23284744.418
 108830787.170 8  84803348.76146  20709797.383                    20709802.770
 122020623.630 7  95081053.69444  23219753.828                    23219762.941
 11  7 29  1 19  0.0000000  0 10G10G28G17G09G04G12G01G05G02G27
 111260431.965 7  86696523.06345  21172137.188                    21172145.266
 127559756.416 6  99397297.15843  24273819.586                    24273830.277
 118699929.725 7  92493566.979 7  22587831.586                    22587839.039
 120158251.723 7  93629886.09244  22865366.773                    22865375.570
 109207803.898 8  85097148.87146  20781540.672                    20781549.055
 116663487.934 7  90906577.623 7  22200304.094                    22200311.465
 121251549.818 7  94481791.258 7  23073400.430
 122257766.216 7  95265875.402 6  23264877.102                    23264886.887
 108808553.959 8  84786024.21346  20705566.180                    20705571.586
 122075804.252 7  95124051.54244  23230253.633                    23230263.734
 11  7 29  1 19 30.0000000  0 10G10G28G17G09G04G12G01G05G02G27
 111217779.813 7  86663287.65345  21164020.828                    21164028.895
 127661585.386 6  99476644.40642  24293196.734                    24293207.590
 118746709.280 7  92530018.573 7  22596733.594                    22596741.480
 120222450.665 7  93679911.17344  22877583.141                    22877591.969
 109269819.013 8  85145472.32846  20793341.844                    20793349.688
 116583453.414 7  90844213.080 7  22185073.688                    22185081.023
 121179599.897 7  94425726.431 7  23059708.813
 122153520.027 7  95184644.737 6  23245040.250                    23245049.332
 108786674.104 8  84768975.00646  20701402.820                    20701408.020
 122131221.291 7  95167233.57444  23240800.133                    23240809.531
 11  7 29  1 20  0.0000000  0 10G10G28G17G09G04G12G01G05G02G27
 111175676.339 7  86630479.79245  21156008.695                    21156016.605
 127763605.691 6  99556140.60343  24312611.539                    24312621.762
 118793612.934 7  92566566.862 7  22605658.547                    22605666.539
 120287017.242 7  93730222.75344  22889869.836                    22889878.859
 109332126.313 8  85194023.46346  20805198.586                    20805206.336
 116503706.468 7  90782072.615 7  22169897.977                    22169905.547
 121107926.627 7  94369877.197 7  23046070.109
 122049381.723 7  95103498.105 6  23225222.953                    23225232.273
 108765146.330 8  84752200.13246  20697306.188                    20697311.332
 122186871.544 7  95210597.33544  23251390.000                    23251399.875
 11  7 29  1 20 30.0000000  0  9G10G17G09G04G12G01G05G02G27
 111134125.654 7  86598102.65845  21148102.047                    21148109.906
 118840642.623 7  92603213.353 7  22614608.086                    22614615.918
 120351949.980 6  93780819.64544  22902225.813                    22902235.336
 109394724.970 8  85242801.63446  20817110.469                    20817118.875
 116424251.365 7  90720159.573 7  22154778.359                    22154785.848
 121036531.884 7  94314244.986 7  23032484.367
 121945356.026 7  95022439.240 6  23205426.984                    23205436.836
 108743971.666 8  84735700.42046  20693276.758                    20693282.125
 122242753.899 7  95254141.95444  23262023.945                    23262033.809
 11  7 29  1 21  0.0000000  0  9G10G17G09G04G12G01G05G02G27
 111093128.611 7  86566156.94745  21140300.398                    21140308.707
 118887797.982 7  92639957.782 7  22623581.570                    22623589.441
 120417244.684 7  93831698.56544  22914651.164                    22914660.293
 109457611.514 8  85291804.11446  20829077.563                    20829085.469
 116345089.829 7  90658475.277 7  22139714.789                    22139721.762
 120965415.176 7  94258829.426 7  23018950.852
 121841444.564 7  94941469.381 6  23185653.539                    23185662.941
 108723148.612 8  84719474.68946  20689314.195                    20689319.664
 122298864.609 7  95297864.53143  23272701.859                    23272710.707
 11  7 29  1 21 30.0000000  0  9G10G17G09G04G12G01G05G02G27
 111052687.163 8  86534644.15645  21132604.133                    21132612.203
 118935079.591 7  92676800.585 7  22632578.617                    22632586.234
 120482898.116 7  93882857.02244  22927145.383                    22927154.559
 109520783.887 8  85341029.32646  20841099.289                    20841106.965
 116266224.370 7  90597021.713 7  22124707.125                    22124714.230
 120894577.307 7  94203631.135 7  23005471.086
 121737650.585 7  94860591.079 6  23165902.813                    23165911.441
 108702676.738 8  84703522.60346  20685418.555                    20685423.898
 122355201.253 7  95341763.17044  23283422.977                    23283431.820
 11  7 29  1 22  0.0000000  0  9G10G17G09G04G12G01G05G02G27
 111012801.849 7  86503564.72345  21125014.555                    21125022.188
 118982486.891 7  92713741.316 7  22641600.063                    22641607.867
 120548905.648 7  93934291.40244  22939706.039                    22939715.316
 109584238.398 8  85390474.38946  20853174.164                    20853181.949
 116187656.803 7  90535800.247 7  22109756.063                    22109762.891
 120824017.377 7  94148649.428 7  22992043.359
 121633975.763 6  94779805.609 6  23146173.242                    23146182.984
 108682553.857 8  84687842.45346  20681589.359                    20681594.848
 122411759.805 7  95385834.70344  23294185.070                    23294195.492
 11  7 29  1 22 30.0000000  0  9G10G17G09G04G12G01G05G02G27
 110973476.829 8  86472921.88045  21117531.422                    21117539.387
 119030021.947 7  92750781.625 7  22650645.563                    22650653.246
 120615265.790 7  93986000.54444  22952333.898                    22952343.063
 109647974.499 8  85440138.86846  20865302.438                    20865310.652
 116109390.839 7  90474813.808 7  22094862.344                    22094869.637
 120753737.923 7  94093886.277 7  22978670.031
 121530424.730 7  94699116.621 6  23126468.484                    23126478.152
 108662781.311 8  84672435.29846  20677826.352                    20677831.941
 122468539.635 6  95430078.64744  23304989.625                    23304999.898
 11  7 29  1 23  0.0000000  0  9G10G17G09G04G12G01G05G02G27
 110934713.083 7  86442716.38945  21110154.672                    21110163.023
 119077684.490 7  92787921.263 6  22659715.352                    22659723.285
 120681974.106 6  94037981.01444  22965027.727                    22965036.516
 109711989.041 8  85490020.31546  20877484.125                    20877491.973
 116031428.196 7  90414063.720 7  22080026.547                    22080033.703
 120683738.475 7  94039341.301 7  22965349.508
 121426999.715 7  94618525.805 6  23106787.383                    23106796.551
 108643357.476 8  84657299.86446  20674130.305                    20674135.984
 122525536.994 6  95474492.10044  23315836.305                    23315845.441
 11  7 29  1 23 30.0000000  0  9G10G17G09G04G12G01G05G02G27
 110896512.888 8  86412950.02645  21102885.117                    21102893.828
 119125475.278 7  92825160.826 6  22668809.555                    22668817.746
 120749027.820 7  94090230.60044  22977787.758                    22977796.461
 109776279.660 8  85540116.88846  20889718.281                    20889726.594
 115953771.674 7  90353552.177 7  22065249.000                    22065256.492
 120614019.326 7  93985014.736 7  22952082.398
 121323703.612 7  94538035.446 7  23087130.383                    23087140.141
 108624281.683 8  84642435.63146  20670500.383                    20670505.852
 122582749.386 6  95519073.13444  23326723.250                    23326733.086
 11  7 29  1 24  0.0000000  0  9G10G17G09G04G12G01G05G02G27
 110858878.279 8  86383624.38145  21095723.563                    21095731.957
 119173394.918 7  92862500.784 6  22677928.539                    22677936.277
 120816423.915 7  94142746.98144  22990612.922                    22990622.125
 109840844.209 8  85590426.90446  20902004.289                    20902012.387
 115876424.025 7  90293281.308 7  22050529.750                    22050537.359
 120544581.255 7  93930907.198 7  22938868.148
 121220539.632 7  94457648.045 7  23067499.039                    23067507.809
 108605553.565 8  84627842.30746  20666936.594                    20666941.918
 122640174.272 6  95563819.72644  23337650.633                    23337660.887
 11  7 29  1 24 30.0000000  0  9G10G17G09G04G12G01G05G02G27
 110821810.698 8  86354740.56945  21088670.344                    21088678.301
 119221443.611 7  92899941.306 6  22687071.641                    22687079.734
 120884158.347 7  94195527.01444  23003501.617                    23003511.938
 109905680.162 8  85640948.41246  20914342.398                    20914350.164
 115799387.647 7  90233252.991 7  22035870.719                    22035878.453
 120475424.129 7  93877018.580 7  22925708.203
 121117510.300 7  94377365.559 7  23047892.813                    23047902.016
 108587171.791 8  84613518.88946  20663438.617                    20663443.895
 122697808.342 6  95608729.30444  23348618.656                    23348628.602
 11  7 29  1 25  0.0000000  0  9G10G17G09G04G12G01G05G02G27
 110785312.436 7  86326300.38645  21081724.789                    21081732.719
 119269622.232 7  92937483.075 7  22696239.617                    22696247.609
 120952228.367 7  94248568.53044  23016454.953                    23016465.148
 109970785.296 8  85691679.67146  20926731.445                    20926739.504
 115722665.285 7  90173469.358 7  22021270.992                    22021278.367
 120406548.961 7  93823349.673 7  22912601.828
 121014619.228 7  94297190.803 6  23028313.523                    23028322.418
 108569136.316 8  84599465.29846  20660006.523                    20660012.129
 122755649.466 6  95653800.25144  23359625.773                    23359635.438
 11  7 29  1 25 30.0000000  0  9G10G17G09G04G12G01G05G02G27
 110749385.274 7  86298305.21345  21074887.656                    21074896.320
 119317931.017 7  92975126.258 6  22705432.516                    22705440.582
 121020630.464 7  94301868.79444  23029472.352                    23029481.832
 110036157.414 8  85742618.97246  20939171.195                    20939179.184
 115646259.249 7  90113932.220 7  22006731.563                    22006738.594
 120337956.136 7  93769900.760 7  22899549.211
 120911868.965 7  94217125.772 6  23008761.016                    23008769.246
 108551446.076 8  84585680.70446  20656639.859                    20656645.633
 122813694.789 6  95699030.31244  23370670.961                    23370680.832
 11  7 29  1 26  0.0000000  0  9G10G17G09G04G12G01G05G02G27
 110714031.146 8  86270756.56045  21068160.344                    21068168.332
 119366370.899 7  93012871.600 7  22714650.391                    22714658.891
 121089361.351 7  94355425.27644  23042552.188                    23042560.535
 110101794.344 8  85793764.61846  20951661.867                    20951669.922
 115570172.547 7  90054643.907 7  21992252.594                    21992260.039
 120269646.199 7  93716672.289 7  22886550.055
 120809262.627 7  94137172.877 6  22989234.742                    22989243.992
 108534100.845 8  84572164.95646  20653339.305                    20653344.813
 122871941.921 6  95744417.62044  23381755.320                    23381764.801
 11  7 29  1 26 30.0000000  0  9G10G17G09G04G12G01G05G02G27
 110679251.945 8  86243655.90545  21061541.664                    21061550.012
 119414942.262 7  93050719.383 7  22723893.820                    22723901.633
 121158417.782 7  94409235.44144  23055692.609                    23055701.668
 110167693.582 8  85845114.66046  20964201.820                    20964210.098
 115494407.303 7  89995606.077 7  21977834.547                    21977841.969
 120201619.399 7  93663664.449 7  22873605.133
 120706803.018 7  94057334.322 6  22969737.867                    22969746.219
 108517099.365 8  84558917.06546  20650104.336                    20650109.691
 122930387.759 6  95789959.77244  23392876.344                    23392887.152
 11  7 29  1 27  0.0000000  0  9G10G17G09G04G12G01G05G02G27
 110645049.799 7  86217004.90345  21055033.383                    21055041.691
 119463645.899 7  93088670.237 7  22733161.469                    22733169.289
 121227796.717 6  94463296.89644  23068895.039                    23068904.293
 110233853.141 8  85896667.55946  20976791.352                    20976799.613
 115418966.508 7  89936821.040 7  21963478.617                    21963486.441
 120133876.447 7  93610877.787 7  22860713.961
 120604493.542 7  93977612.749 6  22950268.453                    22950276.836
 108500441.429 8  84545936.85546  20646934.508                    20646939.566
 122989029.895 6  95835654.84544  23404036.594                    23404046.746
 11  7 29  1 27 30.0000000  0  9G10G17G09G04G12G01G05G02G27
 110611425.574 8  86190804.23745  21048634.914                    21048643.098
 119512481.655 7  93126724.047 7  22742455.016                    22742462.566
 121297494.048 7  94517606.43644  23082157.398                    23082167.324
 110300270.051 8  85948420.99046  20989430.469                    20989438.074
 115343851.989 7  89878290.240 7  21949184.836                    21949192.406
 120066416.933 7  93558311.987 7  22847876.664
 120502336.629 7  93898010.045 6  22930828.555                    22930837.793
 108484125.193 8  84533222.92246  20643829.211                    20643834.672
 123047864.996 6  95881500.30844  23415232.836                    23415242.645
 11  7 29  1 28  0.0000000  0  9G10G17G09G04G12G01G05G02G27
 110578381.251 8  86165055.43446  21042346.828                    21042354.949
 119561450.502 7  93164881.555 7  22751773.547                    22751780.988
 121367506.481 7  94572161.52244  23095481.016                    23095490.188
 110366942.099 8  86000373.23246  21002117.641                    21002125.527
 115269066.803 7  89820016.096 7  21934953.867                    21934961.145
 119999241.227 7  93505967.324 7  22835093.742
 120400335.301 7  93818528.588 7  22911418.633                    22911427.352
 108468150.678 8  84520775.26146  20640789.336                    20640795.004
 123106890.679 6  95927494.26444  23426464.773                    23426474.738
 11  7 29  1 28 30.0000000  0  9G10G17G09G04G12G01G05G02G27
 110545918.863 7  86139760.08245  21036169.789                    21036177.875
 119610553.311 7  93203143.478 7  22761117.492                    22761125.059
 121437831.255 7  94626959.97544  23108863.305                    23108872.559
 110433867.287 8  86052522.72246  21014853.258                    21014861.035
 115194613.763 7  89762000.749 7  21920785.938                    21920793.691
 119932350.647 7  93453844.849 7  22822364.672
 120298492.894 7  93739170.951 7  22892038.344                    22892047.605
 108452517.453 8  84508593.53946  20637814.930                    20637820.125
 123166104.612 6  95973634.91343  23437732.742                    23437742.633
 11  7 29  1 29  0.0000000  0  9G10G17G09G04G12G01G05G02G27
 110514039.584 7  86114919.11245  21030103.211                    21030111.203
 119659789.935 7  93241509.661 7  22770486.797                    22770494.781
 121508464.581 7  94681998.87644  23122304.922                    23122313.457
 110501043.221 8  86104867.59946  21027636.359                    21027644.730
 115120494.837 7  89704245.741 7  21906681.750                    21906689.195
 119865744.762 7  93401944.214 7  22809690.320
 120196812.085 7  93659939.262 7  22872689.289                    22872698.285
 108437223.981 8  84496676.54846  20634904.469                    20634909.828
 123225503.611 6  96019919.78944  23449036.258                    23449045.855
 11  7 29  1 29 30.0000000  0  9G10G17G09G04G12G01G05G02G27
 110482745.433 8  86090534.08945  21024148.469                    21024156.020
 119709161.175 7  93279980.727 7  22779881.047                    22779889.305
 121579402.866 7  94737275.42844  23135803.836                    23135812.250
 110568467.535 8  86157406.02146  21040466.984                    21040475.074
 115046712.750 7  89646753.207 7  21892641.609                    21892649.043
 119799423.908 7  93350265.680 7  22797069.414
 120095295.826 7  93580835.782 7  22853371.391                    22853380.336
 108422269.854 8  84485023.98846  20632058.906                    20632064.102
 123285084.923 6  96066346.73244  23460374.172                    23460384.195
 11  7 29  1 30  0.0000000  0  9G10G17G09G04G12G01G05G02G27
 110452038.611 8  86066606.73045  21018304.758                    21018312.613
 119758667.996 7  93318557.446 7  22789302.203                    22789310.410
 121650643.372 7  94792787.45344  23149359.656                    23149369.051
 110636138.472 8  86210136.62046  21053344.008                    21053351.988
 114973270.536 7  89589525.524 7  21878666.086                    21878672.934
 119733389.273 7  93298810.182 7  22784503.727
 119993947.674 7  93501863.295 7  22834084.922                    22834094.488
 108407654.504 8  84473635.41346  20629277.320                    20629282.652
 123344846.389 6  96112914.00843  23471746.211                    23471756.484
 11  7 29  1 30 30.0000000  0  9G10G17G09G04G12G01G05G02G27
 110421920.567 8  86043138.15145  21012573.438                    21012581.230
 119808310.643 7  93357240.002 7  22798749.273                    22798757.078
 121722182.639 7  94848532.27744  23162973.180                    23162983.750
 110704053.348 8  86263057.30446  21066267.852                    21066276.219
 114900170.521 7  89532564.474 7  21864754.953                    21864762.645
 119667640.511 7  93247577.436 7  22771991.906
 119892770.130 7  93423023.747 7  22814831.461                    22814840.867
 108393377.010 8  84462510.10146  20626560.313                    20626565.738
 123404785.080 6  96159619.40343  23483152.234                    23483161.969
 11  7 29  1 31  0.0000000  0  9G10G17G09G04G12G01G05G02G27
 110392392.395 7  86020129.22045  21006954.117                    21006961.816
 119858089.587 7  93396028.777 7  22808221.820                    22808230.109
 121794017.002 7  94904507.00844  23176642.883                    23176653.039
 110772209.619 8  86316166.08946  21079237.492                    21079245.547
 114827414.707 7  89475871.644 7  21850910.422                    21850917.809
 119602177.992 7  93196567.735 7  22759534.820
 119791766.002 7  93344319.331 7  22795611.297                    22795620.008
 108379436.311 8  84451647.22546  20623907.781                    20623912.973
 123464897.998 7  96206460.60443  23494590.859                    23494600.203
 11  7 29  1 31 30.0000000  0  9G10G17G09G04G12G01G05G02G27
 110363455.714 8  85997581.18645  21001447.867                    21001455.336
 119908005.392 7  93434924.214 7  22817720.406                    22817728.336
 121866142.994 7  94960709.00344  23190368.461                    23190378.043
 110840605.272 8  86369461.39846  21092252.883                    21092260.578
 114755005.950 7  89419449.245 7  21837131.117                    21837138.836
 119537001.968 7  93145781.278 7  22747131.844
 119690938.723 7  93265752.729 7  22776424.539                    22776433.246
 108365831.698 8  84441046.21946  20621318.656                    20621324.359
 123525182.469 6  96253435.48543  23506063.109                    23506072.988
 11  7 29  1 32  0.0000000  0  9G10G17G09G04G12G01G05G02G27
 110335112.301 7  85975495.43945  20996054.461                    20996061.762
 119958058.586 7  93473926.696 6  22827245.930                    22827253.785
 121938557.356 6  95017135.71144  23204148.336                    23204157.371
 110909238.046 8  86422941.47846  21105313.477                    21105321.188
 114682946.974 7  89363299.413 7  21823418.859                    21823426.160
 119472112.861 7  93095218.403 7  22734783.984
 119590290.881 7  93187325.943 7  22757271.211                    22757280.234
 108352562.458 8  84430706.55046  20618793.914                    20618799.707
 123585635.879 6  96300541.95643  23517567.320                    23517577.430
 11  7 29  1 32 30.0000000  0  9G10G17G09G04G12G01G05G02G27
 110307363.791 8  85953873.25445  20990773.531                    20990781.574
 120008249.676 7  93513036.622 7  22836796.516                    22836804.605
 122011256.810 7  95073784.57744  23217982.242                    23217992.164
 110978105.808 8  86476604.66646  21118417.977                    21118426.164
 114611240.164 7  89307423.986 7  21809773.305                    21809780.848
 119407510.753 7  93044879.147 7  22722490.477
 119489825.589 7  93109041.412 7  22738153.391                    22738162.188
 108339627.783 8  84420627.61546  20616332.422                    20616338.012
 123646255.424 6  96347777.87643  23529103.008                    23529112.781
 11  7 29  1 33  0.0000000  0  9G10G17G09G04G12G01G05G02G27
 110280211.735 8  85932715.83345  20985606.945                    20985614.441
 120058579.719 7  93552254.826 6  22846373.758                    22846381.938
 122084238.160 6  95130653.09044  23231870.680                    23231880.535
 111047206.418 8  86530449.28546  21131567.570                    21131575.730
 114539888.642 7  89251825.420 7  21796195.828                    21796203.621
 119343196.434 7  92994764.155 7  22710252.422
 119389546.296 7  93030901.798 7  22719070.641                    22719079.855
 108327027.047 8  84410808.86546  20613935.094                    20613940.207
 123707038.496 6  96395141.25543  23540669.992                    23540678.844
 11  7 29  1 33 30.0000000  0  9G10G17G09G04G12G01G05G02G27
 110253657.763 8  85912024.45645  20980554.063                    20980561.766
 120109048.980 7  93591581.506 7  22855978.234                    22855986.273
 122157497.661 7  95187738.35344  23245812.281                    23245821.742
 111116537.589 8  86584473.57146  21144761.133                    21144769.047
 114468894.559 7  89196505.385 7  21782686.133                    21782693.605
 119279170.079 7  92944873.558 7  22698067.914
 119289455.871 7  92952909.374 7  22700024.313                    22700032.934
 108314759.445 8  84401249.71346  20611600.000                    20611605.742
 123767982.308 6  96442629.93843  23552266.070                    23552276.109
 11  7 29  1 34  0.0000000  0  9G10G17G09G04G12G01G05G02G27
 110227702.391 8  85891799.51945  20975615.172                    20975622.863
 120159657.552 7  93631016.747 7  22865608.367                    22865616.703
 122231031.625 7  95245037.48644  23259804.641                    23259814.738
 111186096.515 8  86638675.32545  21157997.742                    21158005.508
 114398259.796 7  89141465.334 7  21769244.875                    21769252.309
 119215431.462 7  92895207.164 7  22685938.766
 119189556.679 7  92875065.956 7  22681013.953                    22681022.922
 108302823.293 8  84391948.82246  20609328.828                    20609334.285
 123829083.603 6  96490241.23343  23563893.844                    23563903.535
 11  7 29  1 34 30.0000000  0  9G10G17G09G04G12G01G05G02G27
 110202347.691 8  85872042.63645  20970789.680                    20970797.461
 120210406.277 7  93670561.201 7  22875265.531                    22875273.926
 122304837.112 7  95302548.16344  23273849.734                    23273859.020
 111255881.296 8  86693053.06945  21171276.953                    21171285.254
 114327987.538 7  89086707.768 7  21755872.305                    21755879.793
 119151981.161 7  92845765.433 7  22673864.508
 119089851.771 7  92797373.918 7  22662040.906                    22662049.238
 108291218.244 8  84382905.93746  20607120.508                    20607125.938
 123890339.947 6  96537973.37744  23575550.836                    23575560.699
 11  7 29  1 35  0.0000000  0  9G10G17G09G04G12G01G05G02G27
 110177595.101 8  85852754.92846  20966079.734                    20966087.684
 120261295.421 7  93710215.061 6  22884949.719                    22884957.762
 122378911.003 7  95360268.03644  23287945.422                    23287954.848
 111325889.903 8  86747605.22045  21184599.375                    21184607.613
 114258080.043 7  89032234.427 7  21742569.266                    21742576.973
 119088819.241 7  92796548.416 7  22661845.633
 118990344.700 7  92719836.041 7  22643105.398                    22643114.477
 108279943.625 8  84374120.52646  20604974.953                    20604980.453
 123951748.916 6  96585824.45443  23587236.750                    23587247.352
 11  7 29  1 35 30.0000000  0 10G10G25G17G09G04G12G01G05G02G27
 110153446.336 8  85833937.74046  20961484.445                    20961492.121
 129619289.57116 101002091.42516  24665736.297
 120312326.464 7  93749979.509 6  22894659.688                    22894668.016
 122453249.904 7  95418194.38944  23302091.531                    23302101.008
 111396120.313 8  86802330.20245  21197964.141                    21197971.719
 114188540.248 7  88978047.604 7  21729336.359                    21729343.586
 119025946.422 7  92747556.670 7  22649881.109
 118891038.568 7  92642454.727 7  22624207.844                    22624216.016
 108268998.978 8  84365592.24246  20602892.078                    20602897.570
 124013307.858 6  96633792.41943  23598950.133                    23598960.980
 11  7 29  1 36  0.0000000  0 10G10G25G17G09G04G12G01G05G02G27
 110129900.692 8  85815590.50345  20957003.602                    20957011.176
 129515945.917 6 100921563.960 6  24646071.492
 120363498.326 7  93789853.670 6  22904397.750                    22904406.008
 122527848.505 7  95476323.10544  23316287.523                    23316297.051
 111466568.509 8  86857224.89145  21211369.742                    21211377.883
 114119368.892 7  88924147.883 7  21716173.664                    21716180.633
 118963361.222 7  92698789.037 7  22637971.297
 118791934.445 7  92565230.828 7  22605348.703                    22605357.336
 108258381.391 8  84357318.80346  20600871.711                    20600876.680
 124075012.281 6  96681873.73843  23610693.008                    23610702.543
 11  7 29  1 36 30.0000000  0 10G10G25G17G09G04G12G01G05G02G27
 110106960.526 8  85797715.07245  20952638.336                    20952645.770
 129412709.172 6 100841119.767 6  24626425.813
 120414811.810 7  93829838.194 6  22914162.875                    22914170.695
 122602704.466 7  95534652.36344  23330532.500                    23330541.750
 111537233.608 8  86912288.59445  21224816.648                    21224824.465
 114050569.551 8  88870538.048 7  21703081.406                    21703088.523
 118901064.887 7  92650246.509 7  22626116.492
 118693036.699 7  92488167.747 7  22586528.969                    22586537.691
 108248091.168 8  84349300.46446  20598913.438                    20598918.836
 124136860.552 6  96730067.15744  23622462.461                    23622472.250
 11  7 29  1 37  0.0000000  0 10G10G25G17G09G04G12G01G05G02G27
 110084627.874 7  85780313.02745  20948388.469                    20948396.566
 129309582.185 6 100760761.085 6  24606801.492
 120466268.082 7  93869933.974 6  22923953.930                    22923962.781
 122677814.839 6  95593179.85644  23344825.273                    23344835.512
 111608113.467 7  86967519.64346  21238304.602                    21238312.879
 113982145.353 7  88817220.519 7  21690060.547                    21690067.809
 118839057.971 7  92601929.488 7  22614317.461
 118594348.253 7  92411267.749 7  22567749.195                    22567758.352
 108238127.727 8  84341536.75146  20597017.633                    20597022.531
 124198850.126 6  96778370.65044  23634258.891                    23634268.793
 11  7 29  1 37 30.0000000  0 10G10G25G17G09G04G12G01G05G02G27
 110062903.951 8  85763385.32246  20944254.477                    20944262.285
 129206567.434 6 100680489.867 5  24587197.922
 120517868.228 7  93910141.849 6  22933773.844                    22933781.648
 122753176.390 7  95651903.05644  23359166.094                    23359175.363
 111679206.127 8  87022916.50945  21251833.383                    21251841.066
 113914098.579 7  88764197.091 7  21677111.859                    21677118.977
 118777340.759 7  92553838.209 7  22602572.836
 118495872.563 7  92334533.539 7  22549009.883                    22549019.266
 108228490.480 8  84334027.23046  20595183.789                    20595189.051
 124260978.508 6  96826782.28744  23646081.633                    23646091.785
 11  7 29  1 38  0.0000000  0 10G10G25G17G09G04G12G01G05G02G27
 110041789.429 7  85746932.47546  20940236.867                    20940244.902
 129103667.185 6 100600307.886 5  24567617.281
 120569612.306 7  93950461.869 6  22943620.414                    22943628.035
 122828785.460 7  95710819.17044  23373554.445                    23373563.285
 111750509.068 7  87078477.23945  21265401.680                    21265409.973
 113846431.404 8  88711469.448 7  21664235.422                    21664242.660
 118715913.014 7  92505972.491 7  22590883.398
 118397612.202 7  92257967.121 7  22530310.805                    22530319.953
 108219177.887 8  84326770.67246  20593411.734                    20593417.074
 124323242.537 6  96875299.64943  23657928.750                    23657940.555
 11  7 29  1 38 30.0000000  0 10G10G25G17G09G04G12G01G05G02G27
 110021286.256 8  85730955.99946  20936334.945                    20936342.977
 129000884.310 6 100520217.371 6  24548058.078
 120621500.953 7  93990894.540 6  22953494.156                    22953502.625
 122904639.026 7  95769925.82244  23387988.680                    23387997.777
 111822020.497 7  87134200.41545  21279010.125                    21279017.703
 113779146.816 7  88659039.933 7  21651431.180                    21651438.695
 118654775.486 7  92458332.921 7  22579249.297
 118299570.598 7  92181571.152 7  22511654.914                    22511663.191
 108210189.714 8  84319766.91546  20591701.250                    20591706.211
 124385639.956 6  96923920.96143  23669803.945                    23669813.684
 11  7 29  1 39  0.0000000  0 10G10G25G17G09G04G12G01G05G02G27
 110001395.333 8  85715456.59646  20932549.875                    20932557.406
 128898221.391 6 100440220.323 6  24528521.641
 120673534.900 7  94031440.429 6  22963396.445                    22963404.242
 122980733.738 7  95829220.36144  23402468.461                    23402478.516
 111893738.325 8  87190084.42145  21292657.320                    21292665.773
 113712247.390 7  88606910.535 7  21638700.742                    21638707.848
 118593928.256 7  92410919.557 7  22567669.953
 118201750.849 7  92105348.053 7  22493039.586                    22493048.859
 108201525.068 8  84313015.26246  20590052.156                    20590057.480
 124448167.983 7  96972644.08044  23681702.836                    23681712.563
 11  7 29  1 39 30.0000000  0 10G10G25G17G09G04G12G01G05G02G27
 109982117.869 8  85700435.22346  20928881.570                    20928889.191
 128795680.634 6 100360318.496 6  24509008.898
 120725714.509 7  94072099.824 6  22973325.328                    22973334.105
 123057065.812 7  95888699.84344  23416993.922                    23417004.180
 111965660.062 8  87246127.32145  21306344.125                    21306351.906
 113645735.247 7  88555082.919 7  21626043.703                    21626051.266
 118533371.214 7  92363732.315 7  22556146.508
 118104155.381 7  92029299.714 7  22474468.430                    22474477.055
 108193182.843 8  84306514.84146  20588464.680                    20588470.195
 124510823.506 6  97021466.51644  23693625.086                    23693635.895
 11  7 29  1 40  0.0000000  0 10G10G25G17G09G04G12G01G05G02G27
 109963454.088 8  85685892.03945  20925330.109                    20925338.020
 128693263.784 6 100280513.233 6  24489518.883
 120778039.904 7  94112872.836 6  22983283.117                    22983291.141
 123133631.199 7  95948361.08644  23431564.016                    23431574.418
 112037782.918 8  87302326.93745  21320068.016                    21320076.285
 113579612.499 8  88503558.727 7  21613460.750                    21613468.441
 118473103.861 7  92316770.792 7  22544678.125
 118006786.554 7  91953427.970 7  22455939.727                    22455947.961
 108185160.977 8  84300264.04746  20586938.219                    20586943.641
 124573603.160 6  97070385.63243  23705571.102                    23705582.754
 11  7 29  1 40 30.0000000  0 10G10G25G17G09G04G12G01G05G02G27
 109945406.051 8  85671828.66246  20921895.570                    20921903.645
 128590974.412 6 100200807.332 6  24470054.992
 120830512.203 7  94153760.321 6  22993268.125                    22993276.113
 123210427.514 7  96008202.29843  23446178.484                    23446188.133
 112110105.545 8  87358682.22345  21333830.641                    21333839.199
 113513881.979 7  88452340.164 7  21600952.914                    21600959.965
 118413127.208 7  92270035.796 7  22533264.625
 117909648.554 7  91877736.092 7  22437454.844                    22437462.730
 108177459.927 8  84294263.24046  20585472.648                    20585478.227
 124636505.427 6  97119400.28643  23717541.055                    23717552.645
 11  7 29  1 41  0.0000000  0 10G10G25G17G09G04G12G01G05G02G27
 109927974.185 8  85658245.40946  20918578.125                    20918586.016
 128488814.322 7 100121202.161 6  24450614.156
 120883131.454 7  94194762.305 6  23003280.945                    23003289.434
 123287450.468 7  96068220.19143  23460835.352                    23460844.633
 112182625.394 8  87415191.19145  21347630.859                    21347638.648
 113448545.651 7  88401428.748 7  21588520.141                    21588527.059
 118353440.919 7  92223527.056 7  22521906.992
 117812743.631 7  91802225.842 7  22419014.438                    22419022.672
 108170078.116 8  84288511.18546  20584068.047                    20584073.219
 124699526.716 6  97168507.75443  23729534.953                    23729544.230
 11  7 29  1 41 30.0000000  0 10G10G25G17G09G04G12G01G05G02G27
 109911160.146 8  85645143.58446  20915378.484                    20915386.137
 128386786.627 7 100041700.126 6  24431198.945
 120935898.247 7  94235879.235 6  23013322.430                    23013330.316
 123364697.413 7  96128412.59044  23475535.141                    23475544.520
 112255340.592 8  87471852.34745  21361467.938                    21361476.250
 113383606.692 7  88350826.986 7  21576162.188                    21576169.613
 118294045.339 7  92177244.834 7  22510604.422
 117716075.161 7  91726899.818 7  22400618.992                    22400627.234
 108163014.978 8  84283007.45346  20582723.758                    20582729.473
 124762664.655 6  97217706.16143  23741549.125                    23741558.922
 11  7 29  1 42  0.0000000  0 10G10G25G17G09G04G12G01G05G02G27
 109894964.494 8  85632523.61546  20912296.320                    20912304.090
 128284893.468 7  99962302.916 6  24411809.227
 120988813.139 7  94277111.589 6  23023391.813                    23023399.109
 123442164.441 6  96188776.46244  23490276.477                    23490285.793
 112328248.825 8  87528663.94345  21375342.031                    21375350.145
 113319066.994 7  88300536.331 7  21563880.828                    21563887.984
 118234940.281 7  92131188.993 7  22499356.664
 117619645.964 7  91651760.272 7  22382269.055                    22382277.184
 108156269.214 8  84277751.02446  20581440.313                    20581445.594
 124825916.221 6  97266993.01943  23753585.023                    23753596.176
 11  7 29  1 42 30.0000000  0 10G10G25G17G09G04G12G01G05G02G27
 109879388.789 8  85620386.72545  20909332.344                    20909340.391
 128183137.617 7  99883012.730 6  24392445.695
 121041876.938 7  94318459.990 6  23033489.508                    23033497.332
 123519848.402 6  96249309.34744  23505058.867                    23505069.031
 112401348.176 7  87585624.48345  21389252.313                    21389260.379
 113254929.340 7  88250558.956 7  21551675.711                    21551682.730
 118176126.180 7  92085359.875 7  22488164.945
 117523458.886 7  91576809.364 7  22363965.359                    22363973.305
 108149840.092 8  84272741.33146  20580216.906                    20580222.547
 124889278.959 6  97316366.45843  23765642.734                    23765654.270
 11  7 29  1 43  0.0000000  0 10G10G25G17G09G04G12G01G05G02G27
 109864432.901 7  85608732.81246  20906486.570                    20906494.395
 128081521.056 6  99803831.114 6  24373108.867
 121095089.729 7  94359924.493 6  23043616.070                    23043623.293
 123597745.149 7  96310008.03744  23519882.492                    23519892.383
 112474635.822 7  87642731.72145  21403198.758                    21403206.352
 113191195.783 7  88200896.456 7  21539547.641                    21539555.012
 118117602.635 7  92039757.146 7  22477028.266
 117427516.683 7  91502049.273 7  22345707.469                    22345716.324
 108143726.041 8  84267977.13746  20579053.484                    20579058.645
 124952749.262 6  97365823.78843  23777721.102                    23777732.195
 11  7 29  1 43 30.0000000  0 10G10G25G17G09G04G12G01G05G02G27
 109850098.624 8  85597563.26345  20903758.648                    20903766.672
 127980046.958 6  99724760.508 6  24353798.055
 121148452.544 7  94401505.895 6  23053769.883                    23053777.715
 123675852.057 7  96370870.52443  23534745.844                    23534755.516
 112548110.275 8  87699984.53145  21417180.250                    21417188.578
 113127869.194 7  88151551.083 7  21527497.031                    21527504.508
 118059370.483 7  91994381.487 7  22465947.133
 117331822.737 7  91427482.644 7  22327498.094                    22327506.004
 108137927.024 8  84263458.43446  20577949.977                    20577955.109
 125016325.164 6  97415363.44143  23789819.438                    23789829.375
 11  7 29  1 44  0.0000000  0 10G10G25G17G09G04G12G01G05G02G27
 109836386.554 8  85586878.55446  20901149.758                    20901157.488
 127878717.565 6  99645802.612 6  24334515.734
 121201965.562 6  94443204.299 6  23063953.406                    23063961.602
 123754165.385 6  96431893.87244  23549648.367                    23549657.508
 112621769.190 8  87757381.08245  21431196.898                    21431204.773
 113064951.482 7  88102524.311 7  21515524.055                    21515531.500
 118001429.040 7  91949232.349 7  22454921.211
 117236379.890 7  91353111.666 7  22309335.555                    22309343.863
 108132441.531 8  84259184.02946  20576906.063                    20576911.535
 125080003.779 6  97464983.11443  23801936.297                    23801946.539
 11  7 29  1 44 30.0000000  0 10G10G25G17G09G04G12G01G05G02G27
 109823296.953 8  85576678.89146  20898658.766                    20898665.934
 127777535.016 6  99566959.099 6  24315260.797
 121255628.977 7  94485019.936 6  23074165.492                    23074173.746
 123832681.411 6  96493075.10743  23564589.492                    23564598.430
 112695610.209 8  87814919.50645  21445248.844                    21445256.988
 113002444.736 7  88053817.766 7  21503629.547                    21503636.418
 117943778.188 7  91904309.651 7  22443950.688
 117141190.814 7  91278938.435 7  22291221.977                    22291230.051
 108127268.074 8  84255152.76946  20575921.547                    20575926.211
 125143781.984 6  97514680.33943  23814074.211                    23814083.801
 11  7 29  1 45  0.0000000  0 10G10G25G17G09G04G12G01G05G02G27
 109810831.621 8  85566965.66545  20896286.594                    20896294.750
 127676502.780 6  99488232.757 6  24296035.813
 121309443.983 7  94526953.689 6  23084405.383                    23084414.539
 123911397.494 6  96554412.26844  23579569.102                    23579578.668
 112769631.752 8  87872598.59945  21459334.234                    21459342.293
 112940352.401 7  88005434.131 7  21491813.727                    21491821.156
 117886419.001 7  91859614.221 7  22433035.180
 117046259.107 7  91204965.751 7  22273156.438                    22273165.086
 108122406.857 8  84251364.81146  20574996.313                    20575001.578
 125207657.616 6  97564453.46044  23826229.133                    23826240.055
 11  7 29  1 45 30.0000000  0 10G10G25G17G09G04G12G01G05G02G27
 109798990.813 8  85557739.08646  20894033.391                    20894040.840
 127575622.838 6  99409625.108 6  24276839.484
 121363410.670 7  94569005.641 6  23094675.609                    23094684.063
 123990309.647 7  96615902.20544  23594585.500                    23594595.305
 112843831.487 8  87930416.56145  21473454.695                    21473462.289
 112878676.208 7  87957374.773 7  21480076.906                    21480084.223
 117829350.617 7  91815145.380 7  22422176.086
 116951587.190 7  91131195.495 7  22255141.430                    22255149.539
 108117856.279 8  84247818.92246  20574130.242                    20574135.789
 125271627.399 6  97614299.99544  23838402.023                    23838412.668
 11  7 29  1 46  0.0000000  0 10G10G25G17G09G04G12G01G05G02G27
 109787775.175 8  85548999.65046  20891899.164                    20891906.836
 127474897.540 6  99331137.929 6  24257671.391
 121417529.407 7  94611176.073 6  23104974.070                    23104981.770
 124069414.165 7  96677542.02944  23609638.055                    23609648.992
 112918206.932 8  87988371.45845  21487607.727                    21487615.426
 112817418.683 7  87909641.646 7  21468420.172                    21468427.563
 117772573.021 7  91770903.143 7  22411371.461
 116857177.734 7  91057629.761 7  22237175.875                    22237184.145
 108113614.891 8  84244513.95446  20573323.406                    20573328.762
 125335688.537 6  97664217.66943  23850592.219                    23850603.082
 11  7 29  1 46 30.0000000  0 10G10G25G17G09G04G12G01G05G02G27
 109777185.872 8  85540748.26046  20889883.930                    20889891.320
 127374329.858 7  99252773.522 6  24238534.516
 121471800.918 7  94653465.567 6  23115301.852                    23115309.180
 124148708.120 6  96739329.45143  23624727.188                    23624737.637
 112992756.430 8  88046461.96545  21501793.750                    21501801.691
 112756581.915 7  87862236.365 7  21456843.484                    21456850.488
 117716086.697 8  91726887.861 7  22400622.570
 116763034.209 7  90984271.234 7  22219260.938                    22219269.094
 108109682.061 8  84241449.42046  20572575.055                    20572580.660
 125399838.639 6  97714204.70043  23862799.594                    23862809.922
 11  7 29  1 47  0.0000000  0 10G10G25G17G09G04G12G01G05G02G27
 109767223.593 8  85532985.46646  20887987.961                    20887995.781
 127273922.262 7  99174533.850 6  24219427.445
 121526225.609 7  94695874.413 6  23125658.398                    23125666.070
 124228187.853 6  96801261.63643  23639850.875                    23639861.547
 113067478.042 8  88104686.58445  21516012.430                    21516020.656
 112696168.376 7  87815160.884 7  21445346.984                    21445354.168
 117659891.699 8  91683099.582 7  22389928.352
 116669159.113 7  90911121.877 7  22201397.055                    22201405.000
 108106056.737 8  84238624.51246  20571885.047                    20571889.969
 125464074.742 6  97764258.75443  23875023.594                    23875034.246
 11  7 29  1 47 30.0000000  0 10G10G25G17G09G04G12G01G05G02G27
 109757888.773 8  85525711.60346  20886211.547                    20886219.469
 127173677.262 7  99096420.881 6  24200351.594
 121580804.096 7  94738403.104 6  23136044.164                    23136051.387
 124307849.978 7  96863336.00343  23655012.055                    23655020.953
 113142369.335 8  88163043.40645  21530264.430                    21530272.387
 112636180.339 8  87768416.969 7  21433931.664                    21433938.855
 117603987.255 7  91639537.703 7  22379290.430
 116575555.688 7  90838184.216 7  22183584.195                    22183592.695
 108102737.924 8  84236038.43446  20571253.633                    20571259.004
 125528394.034 7  97814377.62044  23887263.664                    23887274.445
 11  7 29  1 48  0.0000000  0 10G10G25G17G09G04G12G01G05G02G27
 109749182.193 8  85518927.26446  20884554.563                    20884562.617
 127073597.425 7  99018436.609 6  24181306.961
 121635536.733 7  94781051.907 6  23146459.289                    23146467.527
 124387691.018 6  96925549.73344  23670205.422                    23670214.723
 113217428.128 8  88221530.76945  21544547.414                    21544555.355
 112576620.348 7  87722006.588 7  21422597.984                    21422604.859
 117548373.756 8  91596202.531 7  22368707.617
 116482226.725 7  90765460.405 7  22165824.664                    22165832.469
 108099724.440 8  84233690.27546  20570679.938                    20570684.996
 125592793.707 6  97864559.09944  23899517.797                    23899529.652
 11  7 29  1 48 30.0000000  0 10G10G25G17G09G04G12G01G05G02G27
 109741103.655 8  85512632.30546  20883017.547                    20883025.066
 126973685.113 7  98940582.884 6  24162294.352
 121690423.867 7  94823821.107 6  23156904.109                    23156911.844
 124467707.412 6  96987900.12944  23685431.000                    23685441.051
 113292652.203 8  88280146.90345  21558861.539                    21558869.984
 112517490.093 7  87675931.068 7  21411345.547                    21411352.477
 117493051.095 7  91553093.996 7  22358179.852
 116389174.846 7  90692952.509 7  22148117.203                    22148125.598
 108097015.145 8  84231579.14946  20570164.602                    20570169.680
 125657270.766 6  97914800.85143  23911787.547                    23911799.008
 11  7 29  1 49  0.0000000  0 10G10G25G17G09G04G12G01G05G02G27
 109733654.430 8  85506827.73746  20881600.055                    20881608.035
 126873943.083 6  98862861.895 6  24143313.227
 121745466.234 6  94866711.259 6  23167378.320                    23167386.281
 124547896.248 6  97050384.86744  23700689.969                    23700701.094
 113368040.079 7  88338890.67945  21573208.031                    21573216.348
 112458792.395 7  87630192.613 7  21400175.758                    21400183.031
 117438019.067 8  91510211.924 7  22347707.602
 116296403.426 7  90620663.158 7  22130463.820                    22130471.668
 108094609.312 8  84229704.49346  20569706.531                    20569712.238
 125721822.762 6  97965100.97543  23924072.141                    23924082.281
 11  7 29  1 49 30.0000000  0 10G10G25G17G09G04G12G01G05G02G27
 109726835.416 8  85501514.22646  20880302.289                    20880310.348
 126774374.337 6  98785275.904 6  24124366.203
 121800664.632 6  94909722.981 6  23177881.836                    23177889.668
 124628254.046 6  97113001.24544  23715982.977                    23715992.133
 113443589.781 8  88397760.54745  21587584.813                    21587592.742
 112400529.733 7  87584793.134 7  21389088.859                    21389096.328
 117383278.178 7  91467556.734 7  22337290.516
 116203915.271 7  90548594.531 7  22112863.438                    22112871.996
 108092506.195 8  84228065.71646  20569306.133                    20569311.738
 125786447.124 6  98015457.59243  23936369.680                    23936379.742
 11  7 29  1 50  0.0000000  0 10G10G25G17G09G04G12G01G05G02G27
 109720646.386 8  85496691.60946  20879124.844                    20879132.816
 126674981.127 7  98707826.655 6  24105452.289
 121856018.818 6  94952856.107 6  23188416.078                    23188423.047
 124708776.984 7  97175746.35644  23731306.094                    23731314.918
 113519298.917 8  88456754.65545  21601991.617                    21601999.691
 112342704.039 7  87539734.151 7  21378084.688                    21378091.762
 117328827.856 8  91425127.953 7  22326929.086
 116111713.017 7  90476748.685 7  22095317.875                    22095326.359
 108090704.033 8  84226661.45246  20568963.391                    20568968.609
 125851140.650 6  98065868.08043  23948680.250                    23948690.703
 11  7 29  1 50 30.0000000  0 10G10G25G17G09G04G12G01G05G02G27
 109715088.422 8  85492360.73546  20878067.352                    20878075.090
 126575765.947 6  98630516.165 6  24086571.453
 121911529.351 7  94996111.085 6  23198979.313                    23198986.563
 124789461.742 6  97238617.56043  23746659.047                    23746669.066
 113595165.315 8  88515871.31045  21616428.703                    21616436.465
 112285317.466 7  87495017.342 7  21367164.641                    21367172.063
 117274668.146 7  91382925.615 7  22316622.617
 116019799.916 7  90405128.146 7  22077827.406                    22077835.840
 108089202.032 8  84225491.08046  20568677.547                    20568683.102
 125915900.559 6  98116330.23643  23961002.859                    23961014.887
 11  7 29  1 51  0.0000000  0 10G10G25G17G09G04G12G01G05G02G27
 109710162.019 8  85488521.98446  20877129.797                    20877137.531
 126476731.541 6  98553346.638 6  24067726.328
 121967197.110 7  95039488.568 6  23209572.531                    23209580.227
 124870304.989 6  97301612.22643  23762043.039                    23762053.066
 113671187.286 8  88575109.19845  21630895.125                    21630903.086
 112228372.610 8  87450644.726 7  21356328.539                    21356335.887
 117220799.153 8  91340949.781 7  22306371.734
 115928178.864 7  90333735.177 7  22060392.820                    22060400.801
 108087999.266 8  84224553.87146  20568448.766                    20568454.133
 125980724.530 5  98166842.25843  23973339.320                    23973350.695
 11  7 29  1 51 30.0000000  0 10G10G25G17G09G04G12G01G05G02G27
 109705867.590 8  85485175.68546  20876312.609                    20876320.207
 126377881.003 7  98476320.260 6  24048915.773
 122023022.815 7  95082989.118 6  23220195.594                    23220203.480
 124951303.689 6  97364727.99743  23777456.531                    23777467.059
 113747363.034 8  88634466.90045  21645390.336                    21645398.707
 112171872.107 8  87406618.363 7  21345576.922                    21345583.820
 117167220.994 8  91299200.568 7  22296176.414
 115836852.933 7  90262572.171 7  22043014.180                    22043022.012
 108087094.926 8  84223849.20146  20568276.883                    20568281.691
 126045609.858 6  98217402.15643  23985687.297                    23985697.648
 11  7 29  1 52  0.0000000  0 10G10G25G17G09G04G12G01G05G02G27
 109702205.030 8  85482321.76346  20875615.414                    20875623.129
 126279216.094 7  98399438.478 6  24030141.164
 122079006.107 6  95126612.458 7  23230849.266                    23230856.992
 125032454.029 7  97427961.96343  23792899.844                    23792909.512
 113823689.826 8  88693942.30745  21659914.797                    21659923.199
 112115817.374 8  87362939.354 7  21334910.125                    21334917.160
 117113932.687 8  91257677.223 7  22286036.070
 115745824.309 7  90191640.831 7  22025691.719                    22025699.523
 108086487.268 8  84223375.71246  20568161.039                    20568166.438
 126110553.210 6  98268007.30343  23998045.391                    23998055.652
 11  7 29  1 52 30.0000000  0 10G10G25G17G09G04G12G01G05G02G27
 109699175.099 8  85479960.79046  20875039.031                    20875046.598
 126180739.807 6  98322703.790 6  24011400.656
 122135148.017 6  95170359.349 7  23241531.984                    23241540.777
 125113752.587 7  97491311.45143  23808369.891                    23808379.992
 113900166.113 8  88753534.19445  21674468.234                    21674476.566
 112060211.254 8  87319609.920 7  21324328.258                    21324335.574
 117060934.644 8  91216380.057 7  22275950.758
 115655096.362 7  90120943.789 7  22008426.656                    22008434.617
 108086175.614 8  84223132.88146  20568101.594                    20568106.758
 126175552.232 6  98318655.85043  24010414.211                    24010424.516
 11  7 29  1 53  0.0000000  0 10G10G25G17G09G04G12G01G05G02G27
 109696778.001 7  85478092.93346  20874582.617                    20874590.285
 126082454.641 7  98246118.066 6  23992698.594
 122191448.914 6  95214230.130 6  23252245.719                    23252254.395
 125195195.761 6  97554773.61043  23823868.078                    23823877.984
 113976789.870 8  88813241.01345  21689049.492                    21689057.781
 112005055.380 7  87276631.323 7  21313832.297                    21313839.496
 117008226.614 7  91175308.873 7  22265920.859
 115564671.460 7  90050482.883 7  21991219.086                    21991227.199
 108086158.862 8  84223119.84046  20568098.289                    20568103.746
 126240603.765 6  98369345.25043  24022792.172                    24022803.152
 11  7 29  1 53 30.0000000  0 10G10G25G17G09G04G12G01G05G02G27
 109695013.822 8  85476718.26346  20874246.727                    20874254.758
 125984363.398 7  98169683.298 6  23974032.078
 122247909.078 7  95258225.057 6  23262990.148                    23262998.645
 125276780.139 6  97618345.80243  23839392.945                    23839403.016
 114053558.945 8  88873061.04945  21703657.664                    21703666.402
 111950352.169 8  87234005.451 7  21303422.781                    21303429.926
 116955808.635 8  91134463.725 7  22255945.781
 115474553.038 7  89980260.778 7  21974070.789                    21974078.156
 108086435.797 8  84223335.63946  20568151.039                    20568156.500
 126305705.388 6  98420073.68143  24035181.375                    24035192.332
 11  7 29  1 54  0.0000000  0 10G10G25G17G09G04G12G01G05G02G27
 109693882.679 7  85475836.86546  20874031.477                    20874039.578
 125886468.146 7  98093401.264 6  23955402.883
 122304528.459 7  95302344.066 6  23273764.797                    23273772.824
 125358502.307 6  97682025.29443  23854944.641                    23854954.738
 114130470.945 7  88932992.46445  21718293.898                    21718302.344
 111896103.726 8  87191733.951 7  21293099.414                    21293106.672
 116903679.824 7  91093843.899 7  22246026.156
 115384743.093 7  89910279.049 7  21956979.820                    21956988.285
 108087004.918 8  84223779.11746  20568259.633                    20568264.816
 126370853.767 6  98470838.56343  24047579.242                    24047589.887
 11  7 29  1 54 30.0000000  0 10G10G25G17G09G04G12G01G05G02G27
 109693385.815 8  85475449.70846  20873937.273                    20873944.676
 125788772.225 7  98017274.686 6  23936812.156
 122361308.411 6  95346588.206 6  23284569.328                    23284577.133
 125440359.468 6  97745810.02944  23870521.734                    23870531.676
 114207524.900 8  88993034.48745  21732957.063                    21732965.090
 111842312.559 8  87149818.768 7  21282863.742                    21282870.891
 116851841.267 8  91053450.251 7  22236161.359
 115295245.679 7  89840540.847 7  21939948.656                    21939956.742
 108087866.054 8  84224450.14446  20568423.648                    20568428.488
 126436047.119 6  98521638.50343  24059984.844                    24059996.188
 11  7 29  1 55  0.0000000  0 10G10G25G17G09G04G12G01G05G02G27
 109693523.136 8  85475556.71046  20873963.328                    20873970.801
 125691278.335 7  97941305.490 6  23918259.922
 122418249.451 6  95390957.840 6  23295404.633                    23295412.602
 125522348.171 7  97809697.26043  23886123.930                    23886133.766
 114284718.660 7  89053185.44945  21747646.273                    21747654.645
 111788980.804 8  87108261.573 7  21272714.813                    21272722.043
 116800292.093 8  91013282.104 7  22226351.883
 115206063.230 7  89771048.076 7  21922978.531                    21922986.352
 108089017.887 8  84225347.68446  20568642.461                    20568647.969
 126501282.627 6  98572471.25042  24072399.500                    24072409.758
 11  7 29  1 55 30.0000000  0 10G10G25G17G09G04G12G01G05G02G27
 109694293.975 8  85476157.37545  20874110.109                    20874117.559
 125593988.218 7  97865494.962 5  23899746.492
 122475351.155 6  95435452.642 6  23306270.203                    23306279.305
 125604464.064 6  97873683.59943  23901748.570                    23901759.586
 114362049.473 7  89113443.21845  21762361.977                    21762369.820
 111736110.121 8  87067063.658 7  21262653.688                    21262661.039
 116749031.690 8  90973338.963 7  22216597.398
 115117197.757 7  89701802.309 7  21906067.313                    21906075.793
 108090458.469 8  84226470.21546  20568916.750                    20568921.578
 126566556.536 6  98623333.94242  24084819.938                    24084831.047
 11  7 29  1 56  0.0000000  0 10G10G25G17G09G04G12G01G05G02G27
 109695699.646 8  85477252.71346  20874377.711                    20874384.824
 125496905.625 6  97789846.194 6  23881270.617
 122532614.747 6  95480073.595 6  23317167.398                    23317176.402
 125686705.314 6  97937767.62243  23917399.711                    23917409.375
 114439516.413 8  89173807.05145  21777103.250                    21777111.570
 111683703.524 8  87026227.366 7  21252681.578                    21252688.566
 116698061.098 8  90933621.661 7  22206897.930
 115028653.483 7  89632806.815 7  21889218.367                    21889225.961
 108092188.145 8  84227818.01546  20569246.055                    20569250.996
 126631867.310 6  98674225.39843  24097248.516                    24097258.867
 11  7 29  1 56 30.0000000  0 10G10G25G17G09G04G12G01G05G02G27
 109697740.145 8  85478842.72246  20874765.586                    20874773.367
 125400032.988 7  97714361.134 6  23862837.453
 122590040.754 7  95524821.098 6  23328095.898                    23328104.414
 125769068.121 6  98001946.37043  23933073.359                    23933082.867
 114517117.324 7  89234275.28345  21791870.344                    21791878.980
 111631762.848 8  86985754.134 7  21242796.930                    21242804.543
 116647379.503 8  90894129.548 7  22197253.734
 114940432.576 7  89564063.296 7  21872430.680                    21872438.633
 108094205.402 8  84229389.90446  20569629.656                    20569634.641
 126697212.056 6  98725143.31443  24109683.875                    24109694.398
 11  7 29  1 57  0.0000000  0 10G10G25G17G09G04G12G01G05G02G27
 109700415.032 8  85480927.05245  20875275.008                    20875282.234
 125303372.380 7  97639041.232 6  23844443.797
 122647628.900 7  95569694.949 6  23339054.766                    23339062.676
 125851548.281 6  98066216.56144  23948768.523                    23948778.754
 114594849.753 7  89294845.99545  21806662.367                    21806670.613
 111580290.021 8  86945645.466 7  21233002.297                    21233009.566
 116596986.316 8  90854862.172 7  22187663.906
 114852537.457 7  89495573.649 7  21855704.563                    21855712.234
 108096508.365 8  84231184.42646  20570067.789                    20570073.098
 126762587.111 6  98776084.83243  24122123.734                    24122134.980
 11  7 29  1 57 30.0000000  0 10G10G25G17G09G04G12G01G05G02G27
 109703725.044 8  85483506.29545  20875904.555                    20875912.137
 125206927.096 6  97563889.154 6  23826088.266
 122705380.252 7  95614696.006 6  23350043.938                    23350052.344
 125934143.279 6  98130576.21744  23964485.539                    23964496.391
 114672712.493 7  89355518.24545  21821479.328                    21821487.324
 111529287.630 8  86905903.359 7  21223297.203                    21223303.719
 116546882.244 8  90815820.092 7  22178129.414
 114764971.785 7  89427340.699 7  21839041.008                    21839049.137
 108099096.826 8  84233201.41546  20570560.305                    20570565.504
 126827990.850 6  98827048.69243  24134569.656                    24134580.918
 11  7 29  1 58  0.0000000  0 10G10G25G17G09G04G12G01G05G02G27
 109707669.506 8  85486579.90445  20876655.016                    20876662.520
 125110699.266 7  97488906.385 6  23807779.266
 122763294.938 6  95659824.323 6  23361064.789                    23361073.094
 126016849.303 6  98195022.35343  23980223.695                    23980234.480
 114750703.220 7  89416290.23345  21836320.320                    21836328.492
 111478756.662 8  86866528.608 7  21213681.180                    21213688.586
 116497066.321 8  90777002.533 7  22168649.766
 114677737.755 7  89359366.183 7  21822441.289                    21822449.137
 108101969.194 8  84235439.63346  20571106.719                    20571112.215
 126893420.052 6  98878032.35343  24147020.508                    24147031.910
 11  7 29  1 58 30.0000000  0 10G10G25G17G09G04G12G01G05G02G27
 109712248.412 8  85490147.89846  20877526.461                    20877534.289
 125014691.628 7  97414095.249 7  23789509.695
 122821373.218 7  95705080.113 6  23372116.672                    23372124.953
 126099662.926 6  98259552.35843  23995982.922                    23995993.020
 114828819.736 7  89477160.22745  21851185.344                    21851193.734
 111428699.684 8  86827523.192 7  21204155.719                    21204162.867
 116447538.148 8  90738409.192 7  22159224.805
 114590838.187 7  89291652.282 7  21805904.406                    21805912.410
 108105123.975 8  84237897.90446  20571707.875                    20571712.844
 126958871.843 6  98929033.68342  24159475.938                    24159486.582
 11  7 29  1 59  0.0000000  0 10G10G25G17G09G04G12G01G05G02G27
 109717462.328 7  85494210.68646  20878518.633                    20878526.453
 124918907.130 6  97339458.114 7  23771281.344
 122879615.598 7  95750463.760 6  23383199.938                    23383207.645
 126182581.084 6  98324163.87243  24011762.078                    24011771.832
 114907060.984 7  89538127.44945  21866074.305                    21866081.984
 111379119.405 8  86788889.228 7  21194720.727                    21194728.176
 116398298.269 8  90700040.499 7  22149855.031
 114504276.426 7  89224201.607 7  21789432.188                    21789440.297
 108108560.850 8  84240575.99546  20572361.180                    20572366.652
 127024343.963 6  98980050.89443  24171935.508                    24171945.191
 11  7 29  1 59 30.0000000  0 10G10G25G17G09G04G12G01G05G02G27
 109723310.765 8  85498767.91245  20879631.406                    20879638.934
 124823348.251 7  97264996.728 6  23753098.203
 122938022.819 7  95795975.862 6  23394314.813                    23394322.871
 126265600.373 7  98388854.18643  24027560.109                    24027570.195
 114985424.574 7  89599189.97145  21880985.859                    21880994.414
 111330017.224 8  86750627.815 7  21185376.906                    21185384.223
 116349346.018 8  90661895.941 7  22140539.648
 114418054.849 7  89157016.013 7  21773024.281                    21773032.738
 108112278.311 8  84243472.71046  20573068.883                    20573074.664
 127089833.412 6  99031081.57343  24184397.703                    24184407.758
 11  7 29  2  0  0.0000000  0 10G10G25G17G09G04G12G01G05G02G27
 109729793.511 7  85503819.41445  20880864.984                    20880872.762
 124728017.414 7  97190712.777 6  23734957.125
 122996594.940 7  95841616.455 6  23405461.141                    23405468.332
 126348716.910 6  98453620.24343  24043377.055                    24043386.879
 115063908.337 7  89660346.15345  21895921.109                    21895929.172
 111281395.705 8  86712740.940 7  21176124.539                    21176131.488
 116300680.837 8  90623975.080 7  22131278.570
 114332175.857 7  89090097.361 7  21756682.453                    21756690.941
 108116274.981 8  84246586.98746  20573829.383                    20573834.734
 127155337.062 6  99082123.27343  24196862.539                    24196873.113
 11  7 29  2  0 30.0000000  0 10G10G25G17G09G04G12G01G05G02G27
 109736911.202 7  85509365.66545  20882219.688                    20882226.754
 124632917.751 6  97116609.160 6  23716859.352
 123055332.704 7  95887386.122 6  23416638.039                    23416645.340
 126431928.120 6  98518460.05144  24059211.320                    24059221.922
 115142511.017 7  89721594.99745  21910878.516                    21910886.762
 111233256.730 8  86675230.068 7  21166963.789                    21166970.855
 116252302.877 8  90586278.007 7  22122072.984
 114246642.926 7  89023448.372 7  21740406.219                    21740413.754
 108120550.303 8  84249918.40046  20574643.094                    20574648.426
 127220852.925 6  99133174.48243  24209329.422                    24209340.988
 11  7 29  2  1  0.0000000  0 10G10G25G17G09G04G12G01G05G02G27
 109744663.517 8  85515406.43545  20883694.523                    20883702.449
 124538051.591 7  97042687.600 6  23698807.563
 123114236.379 7  95933285.061 6  23427846.914                    23427854.902
 126515230.510 6  98583370.91444  24075063.156                    24075073.957
 115221230.568 7  89782934.90045  21925858.250                    21925866.711
 111185602.048 8  86638096.561 7  21157895.477                    21157902.676
 116204212.116 7  90548804.738 7  22112921.406
 114161458.464 7  88957070.915 7  21724196.227                    21724204.305
 108125102.756 8  84253465.76146  20575509.398                    20575514.258
 127286377.909 6  99184232.78543  24221798.000                    24221809.383
 11  7 29  2  1 30.0000000  0 10G10G25G17G09G04G12G01G05G02G27
 109753049.994 8  85521941.36345  20885290.469                    20885298.418
 124443421.822 7  96968950.120 6  23680800.930
 123173306.196 7  95979313.474 6  23439087.688                    23439095.516
 126598620.301 6  98648349.84344  24090932.375                    24090942.664
 115300065.245 7  89844364.53145  21940860.102                    21940868.895
 111138433.725 8  86601342.051 7  21148920.188                    21148926.727
 116156407.768 8  90511554.642 7  22103824.383
 114076625.178 7  88890967.103 7  21708052.891                    21708061.105
 108129931.519 8  84257228.42046  20576428.000                    20576433.398
 127351909.401 6  99235296.20643  24234269.406                    24234279.605
 11  7 29  2  2  0.0000000  0 10G10G25G17G09G04G12G01G05G02G27
 109762070.542 7  85528970.38345  20887007.227                    20887014.723
 124349030.927 7  96895398.671 6  23662838.070
 123232542.722 7  96025471.786 6  23450359.766                    23450367.648
 126682094.471 6  98713394.57843  24106816.305                    24106826.695
 115379012.902 7  89905882.19145  21955883.516                    21955891.672
 111091753.569 8  86564967.914 7  21140036.703                    21140043.402
 116108889.578 8  90474527.526 7  22094781.867
 113992145.917 7  88825139.153 7  21691977.258                    21691984.977
 108135035.320 8  84261205.40646  20577399.555                    20577404.422
 127417444.578 6  99286362.54443  24246739.516                    24246750.684
 11  7 29  2  2 30.0000000  0 10G10G25G17G09G04G12G01G05G02G27
 109771724.742 7  85536493.14845  20888844.242                    20888851.699
 124254881.722 7  96822035.651 6  23644922.125
 123291946.047 6  96071760.079 6  23461663.586                    23461671.383
 126765649.884 6  98778502.66543  24122717.070                    24122727.000
 115458071.848 7  89967486.57545  21970927.734                    21970936.031
 111045563.774 8  86528975.881 7  21131247.375                    21131254.164
 116061657.306 8  90437723.195 7  22085793.906
 113908023.359 8  88759589.163 7  21675968.750                    21675976.508
 108140412.757 8  84265395.61746  20578422.594                    20578427.781
 127482980.956 6  99337429.78143  24259210.508                    24259222.168
 11  7 29  2  3  0.0000000  0 10G10G25G17G09G04G12G01G05G02G27
 109782012.058 8  85544509.25245  20890801.875                    20890809.258
 124160976.299 7  96748862.655 6  23627052.398
 123351516.446 6  96118178.563 6  23473000.078                    23473007.598
 126849282.515 6  98843670.88543  24138631.352                    24138641.941
 115537240.072 7  90029176.10145  21985992.820                    21986001.367
 110999866.065 8  86493367.285 7  21122551.102                    21122558.516
 116014710.194 8  90401141.078 7  22076860.148
 113824259.628 7  88694318.769 7  21660029.109                    21660037.055
 108146062.156 8  84269797.74946  20579497.688                    20579503.031
 127548515.338 6  99388495.46043  24271681.703                    24271692.672
 11  7 29  2  3 30.0000000  0 10G10G25G17G09G04G12G01G05G02G27
 109792932.645 7  85553018.81545  20892880.313                    20892887.625
 124067317.882 7  96675882.083 6  23609230.250
 123411254.583 6  96164727.752 6  23484367.914                    23484375.625
 126932989.545 6  98908897.03243  24154560.914                    24154570.969
 115616515.833 7  90090949.44745  22001079.188                    22001086.844
 110954662.660 8  86458143.857 7  21113949.195                    21113956.090
 115968048.411 8  90364781.280 7  22067980.836
 113740858.200 7  88629330.685 7  21644158.445                    21644166.289
 108151983.112 8  84274411.49246  20580624.383                    20580629.813
 127614045.291 6  99439557.63443  24284151.180                    24284162.879
 11  7 29  2  4  0.0000000  0 10G10G25G17G09G04G12G01G05G02G27
 109804486.496 7  85562021.82845  20895078.695                    20895086.309
 123973909.492 6  96603096.308 6  23591455.055
 123471161.348 6  96211408.320 6  23495767.781                    23495775.754
 127016768.071 6  98974178.89743  24170503.078                    24170513.816
 115695897.930 7  90152805.64945  22016184.813                    22016192.680
 110909955.563 8  86423307.170 7  21105441.797                    21105448.578
 115921672.020 8  90328643.878 7  22059155.688
 113657822.001 7  88564627.199 7  21628357.258                    21628364.711
 108158175.267 8  84279236.54846  20581802.555                    20581808.059
 127679568.838 6  99490614.82043  24296620.828                    24296631.816
 11  7 29  2  4 30.0000000  0 10G10G25G17G09G04G12G01G05G02G27
 109816673.300 7  85571518.05245  20897397.758                    20897404.977
 123880753.505 7  96530507.278 6  23573727.992
 123531236.626 6  96258220.211 6  23507199.039                    23507207.941
 127100614.630 6  99039513.79043  24186458.875                    24186469.703
 115775384.437 7  90214743.20045  22031310.578                    22031318.695
 110865746.792 8  86388858.782 7  21097029.078                    21097036.117
 115875580.591 8  90292728.519 7  22050384.563
 113575153.566 7  88500210.290 7  21612625.391                    21612633.328
 108164636.890 8  84284271.58646  20583032.617                    20583037.586
 127745082.993 6  99541664.67843  24309087.500                    24309098.488
 11  7 29  2  5  0.0000000  0 10G10G25G17G09G04G12G01G05G02G27
 109829492.355 7  85581506.93845  20899837.344                    20899844.941
 123787852.518 7  96458116.903 6  23556050.156
 123591480.403 6  96305163.394 6  23518663.133                    23518672.027
 127184525.890 6  99104899.16343  24202426.273                    24202437.355
 115854973.016 7  90276760.29345  22046455.891                    22046464.020
 110822037.610 8  86354799.680 7  21088711.391                    21088718.281
 115829773.547 8  90257034.747 7  22041667.750
 113492855.257 7  88436081.782 7  21596964.688                    21596973.000
 108171366.852 8  84289515.71846  20584313.477                    20584318.313
 127810584.733 6  99592704.91743  24321552.688                    24321563.484
 11  7 29  2  5 30.0000000  0 10G10G25G17G09G04G12G01G05G02G27
 109842943.303 7  85591988.20445  20902396.695                    20902404.320
 123695209.311 6  96385927.429 6  23538419.570
 123651893.697 6  96352238.681 6  23530159.289                    23530168.043
 127268498.582 6  99170332.37943  24218405.164                    24218416.539
 115934662.511 7  90338856.00945  22061620.656                    22061627.832
 110778830.545 8  86321131.844 7  21080489.609                    21080496.867
 115784250.495 7  90221562.265 7  22033005.008
 113410929.997 7  88372243.966 7  21581374.766                    21581382.766
 108178363.618 8  84294967.75046  20585644.578                    20585649.664
 127876071.542 6  99643733.53142  24334014.102                    24334024.895
 11  7 29  2  6  0.0000000  0 10G10G25G17G09G04G12G01G05G02G27
 109857025.835 8  85602961.61745  20905076.516                    20905084.184
 123602826.414 7  96313940.873 6  23520839.727
 123712476.696 6  96399446.180 6  23541687.914                    23541696.258
 127352529.363 6  99235810.86343  24234395.461                    24234406.738
 116014450.789 7  90401028.71845  22076802.977                    22076811.484
 110736127.160 7  86287856.484 7  21072363.484                    21072370.164
 115739011.227 7  90186310.922 7  22024396.234
 113329380.355 7  88308698.836 7  21565856.586                    21565864.602
 108185626.327 8  84300627.02146  20587026.305                    20587031.895
 127941540.869 6  99694748.57942  24346472.219                    24346482.859
 11  7 29  2  6 30.0000000  0 10G10G25G17G09G04G12G01G05G02G27
 109871739.229 7  85614426.60745  20907876.477                    20907883.867
 123510706.465 7  96242159.044 6  23503310.648
 123773229.534 6  96446786.037 6  23553249.008                    23553257.711
 127436614.573 6  99301331.75943  24250397.500                    24250407.590
 116094336.086 7  90463277.00445  22092005.164                    22092013.707
 110693929.318 8  86254975.053 7  21064333.359                    21064340.410
 115694055.044 8  90151280.167 7  22015841.219
 113248208.802 8  88245448.318 7  21550409.961                    21550417.926
 108193153.658 8  84306492.48846  20588458.617                    20588464.270
 128006989.659 6  99745747.58142  24358926.039                    24358937.352
 11  7 29  2  7  0.0000000  0 10G10G25G17G09G04G12G01G05G02G27
 109887083.159 7  85626382.92045  20910796.141                    20910803.934
 123418852.272 7  96170584.416 7  23485830.695
 123834152.431 6  96494258.436 6  23564842.484                    23564850.520
 127520751.312 7  99366892.79843  24266408.406                    24266419.113
 116174316.725 7  90525599.60745  22107224.906                    22107232.809
 110652238.625 8  86222488.796 7  21056399.484                    21056406.902
 115649381.882 8  90116469.944 7  22007340.172
 113167418.258 7  88182494.699 7  21535036.234                    21535043.980
 108200944.368 8  84312563.18246  20589941.789                    20589946.895
 128072415.585 6  99796728.71742  24371377.234                    24371387.855
 11  7 29  2  7 30.0000000  0 10G10G25G17G09G04G12G01G05G02G27
 109903057.205 7  85638830.24745  20913836.195                    20913843.953
 123327266.513 7  96099219.038 7  23468402.117
 123895246.223 6  96541863.996 6  23576468.242                    23576475.977
 127604936.408 6  99432491.52843  24282427.922                    24282438.414
 116254391.356 7  90587995.44945  22122462.461                    22122470.777
 110611057.185 8  86190399.363 7  21048563.250                    21048570.270
 115604991.246 8  90081879.877 7  21998892.984
 113087011.282 7  88119839.952 7  21519735.117                    21519742.563
 108208997.865 8  84318838.64046  20591473.984                    20591478.887
 128137815.948 6  99847689.90143  24383822.375                    24383833.973
 11  7 29  2  8  0.0000000  0 10G10G25G17G09G04G12G01G05G02G27
 109919660.317 7  85651767.74245  20916995.352                    20917003.547
 123235951.379 7  96028064.438 6  23451026.109
 123956510.537 6  96589602.404 6  23588126.367                    23588134.988
 127689166.139 6  99498125.01443  24298455.539                    24298466.586
 116334557.339 7  90650462.47345  22137717.656                    22137725.605
 110570386.264 8  86158707.733 7  21040823.734                    21040830.547
 115560882.497 8  90047509.460 7  21990499.250
 113006989.771 7  88057485.564 7  21504507.672                    21504515.191
 108217312.120 8  84325317.29746  20593056.195                    20593061.355
 128203187.706 6  99898628.80443  24396262.664                    24396274.059
 11  7 29  2  8 30.0000000  0 10G10G25G17G09G04G12G01G05G02G27
 109936892.682 7  85665195.56245  20920275.031                    20920282.637
 123144910.111 7  95957123.178 6  23433701.477
 124017946.217 6  96637474.340 6  23599817.289                    23599825.410
 127773437.592 6  99563791.08743  24314492.250                    24314502.797
 116414813.665 7  90712999.89345  22152989.820                    22152998.035
 110530228.212 8  86127415.746 7  21033182.211                    21033189.035
 115517055.398 8  90013358.488 7  21982159.469
 112927357.297 8  87995434.335 7  21489353.961                    21489361.875
 108225886.514 8  84331998.64946  20594688.008                    20594693.004
 128268528.884 6  99949543.92443  24408696.813                    24408707.941
 11  7 29  2  9  0.0000000  0 10G10G25G17G09G04G12G01G05G02G27
 109954753.697 7  85679113.24445  20923673.594                    20923681.629
 123054145.578 7  95886397.693 7  23416429.508
 124079553.759 6  96685480.183 6  23611541.164                    23611549.391
 127857747.698 6  99629487.24643  24330536.469                    24330546.930
 116495158.830 7  90775606.54345  22168278.695                    22168286.648
 110490585.084 8  86096524.991 7  21025638.234                    21025645.113
 115473510.030 7  89979427.055 7  21973872.984
 112848116.798 7  87933688.528 7  21474275.016                    21474282.781
 108234720.440 8  84338882.24246  20596368.570                    20596373.887
 128333836.924 6 100000433.24442  24421124.773                    24421136.098
 11  7 29  2  9 30.0000000  0 10G10G25G17G09G04G12G01G05G02G27
 109973242.432 7  85693520.05645  20927191.383                    20927199.574
 122963660.170 7  95815889.698 7  23399210.531
 124141333.306 6  96733620.068 6  23623297.352                    23623305.563
 127942092.993 6  99695210.83343  24346587.664                    24346597.414
 116575590.861 7  90838280.86545  22183585.039                    22183592.543
 110451458.484 8  86066036.732 7  21018192.633                    21018199.441
 115430245.725 8  89945714.633 7  21965640.023
 112769270.243 7  87872249.691 7  21459270.977                    21459278.457
 108243812.194 8  84345966.71746  20598098.594                    20598104.305
 128399108.859 5 100051294.34342  24433544.406                    24433556.656
 11  7 29  2 10  0.0000000  0 10G10G25G17G09G04G12G01G05G02G27
 109992358.060 7  85708415.35845  20930829.242                    20930837.031
 122873456.368 7  95745601.061 6  23382045.617
 124203285.257 6  96781894.276 6  23635086.680                    23635094.531
 128026470.195 6  99760959.24343  24362644.242                    24362654.035
 116656107.921 7  90901021.46944  22198905.977                    22198915.102
 110412849.374 8  86035951.712 7  21010845.727                    21010852.750
 115387261.886 7  89912220.749 7  21957460.313
 112690820.125 7  87811119.770 7  21444342.250                    21444350.117
 108253160.370 8  84353251.01746  20599877.688                    20599883.344
 128464342.087 5 100102125.42142  24445957.164                    24445970.098
 11  7 29  2 10 30.0000000  0 10G10G25G17G09G04G12G01G05G02G27
 110012099.499 7  85723798.30446  20934586.359                    20934594.004
 122783536.665 7  95675533.808 6  23364934.203
 124265409.339 7  96830302.630 6  23646908.336                    23646916.074
 128110875.900 6  99826729.86343  24378705.195                    24378715.969
 116736708.317 7  90963826.98945  22214244.414                    22214252.250
 110374759.524 8  86006271.315 7  21003597.469                    21003604.445
 115344557.590 8  89878944.697 7  21949334.023
 112612768.709 7  87750300.527 7  21429489.461                    21429497.219
 108262763.509 8  84360733.99646  20601705.352                    20601710.652
 128529533.482 5                  24458364.133
 11  7 29  2 11  0.0000000  0 10G10G25G17G09G04G12G01G05G02G27
 110032467.025 7  85739669.10545  20938461.852                    20938469.898
 122693904.344 7  95605690.530 6  23347877.539
 124327706.712 7  96878846.024 6  23658763.305                    23658770.641
 128195307.501 6  99892520.65143  24394771.180                    24394782.973
 116817390.925 7  91026696.59245  22229597.219                    22229605.699
 110337191.423 8  85976997.473 7  20996447.805                    20996455.602
 115302133.471 8  89845886.965 7  21941260.688
 112535119.452 8  87689794.643 7  21414713.398                    21414720.953
 108272621.354 8  84368415.44946  20603581.086                    20603586.328
 128594681.147 6 100203720.99653  24470761.609                    24470772.848
 11  7 29  2 11 30.0000000  0 10G10G25G17G09G04G12G01G05G02G27
 110053459.342 7  85756026.75845  20942456.930                    20942464.113
 122604561.654 7  95536072.913 6  23330876.586
 124390176.820 6  96927524.016 6  23670650.336                    23670658.684
 128279761.266 6  99958328.75543  24410842.930                    24410853.426
 116898153.561 7  91089628.52744  22244966.156                    22244974.293
 110300146.243 8  85948131.111 7  20989398.992                    20989405.902
 115259988.295 8  89813046.592 7  21933240.828
 112457874.101 7  87629603.506 7  21400014.211                    21400021.840
 108282732.339 8  84376294.14946  20605505.477                    20605510.527
 128659782.114 6 100254448.94743  24483150.203                    24483161.941
 11  7 29  2 12  0.0000000  0  9G10G25G17G09G04G12G01G05G02
 110075076.638 7  85772871.41845  20946570.430                    20946577.930
 122515512.238 7  95466683.824 6  23313929.875
 124452821.187 6  96976337.786 6  23682570.672                    23682579.367
 128364235.265 6 100024152.59543  24426918.117                    24426928.477
 116978995.528 7  91152622.30244  22260349.367                    22260357.379
 110263626.523 8  85919674.198 7  20982449.609                    20982456.238
 115218122.853 8  89780424.201 7  21925274.148
 112381036.463 7  87569730.063 7  21385391.617                    21385399.781
 108293096.261 8  84384369.95846  20607477.172                    20607482.598
 11  7 29  2 12 30.0000000  0  9G10G25G17G09G04G12G01G05G02
 110097316.863 7  85790201.46946  20950802.086                    20950810.176
 122426757.495 7  95397524.337 6  23297040.430
 124515639.029 6  97025286.718 6  23694525.625                    23694533.121
 128448725.011 6 100089988.72943  24442995.719                    24443006.270
 117059914.041 7  91215675.70045  22275748.281                    22275756.738
 110227632.765 8  85891627.125 7  20975600.172                    20975607.078
 115176535.296 8  89748018.351 7  21917360.336
 112304607.871 7  87510175.347 7  21370848.516                    21370856.203
 108303710.744 8  84392640.99846  20609496.820                    20609502.547
 11  7 29  2 13  0.0000000  0  9G10G25G17G09G04G12G01G05G02
 110120179.362 7  85808016.40446  20955153.016                    20955160.922
 122338300.506 7  95328596.836 7  23280208.617
 124578630.726 6  97074371.151 6  23706511.445                    23706520.137
 128533227.580 6 100155834.86043  24459075.992                    24459086.992
 117140907.632 7  91278787.57444  22291160.750                    22291168.746
 110192166.763 8  85863991.305 7  20968851.195                    20968857.887
 115135225.423 8  89715828.862 7  21909499.086
 112228590.965 7  87450941.436 7  21356383.031                    21356390.918
 108314574.734 8  84401106.46246  20611564.148                    20611569.539
 11  7 29  2 13 30.0000000  0  9G10G25G17G09G04G12G01G05G02
 110143663.389 7  85826315.65546  20959621.898                    20959629.703
 122250143.646 7  95259903.280 6  23263431.805
 124641796.393 6  97123591.099 6  23718531.867                    23718540.496
 128617739.485 5 100221688.19643  24475157.281                    24475169.316
 117221974.680 7  91341956.73445  22306587.078                    22306595.285
 110157229.977 8  85836767.849 7  20962202.781                    20962210.043
 115094192.661 8  89683855.310 7  21901691.250
 112152988.049 8  87392030.110 7  21341996.250                    21342003.500
 108325687.162 8  84409765.51146  20613679.055                    20613684.539
 11  7 29  2 14  0.0000000  0  9G10G25G17G09G04G12G01G05G02
 110167768.343 7  85845098.74646  20964209.125                    20964216.582
 122162290.249 7  95191446.150 6  23246714.398
 124705137.078 6  97172947.431 6  23730586.094                    23730594.074
 128702258.231 6 100287546.84543  24491241.688                    24491252.645
 117303114.192 7  91405182.29944  22322027.617                    22322036.078
 110122824.487 8  85809958.399 7  20955655.773                    20955662.359
 115053437.013 8  89652097.677 7  21893935.352
 112077802.238 8  87333443.807 7  21327688.523                    21327696.383
 108337047.168 8  84418617.47946  20615840.898                    20615846.109
 11  7 29  2 14 30.0000000  0  9G10G25G17G09G04G12G01G05G02
 110192493.149 8  85864364.83546  20968913.695                    20968921.176
 122074742.539 7  95123227.126 6  23230055.148
 124768652.418 6  97222439.863 6  23742671.656                    23742680.215
 128786779.969 6 100353407.86643  24507326.336                    24507336.613
 117384324.229 7  91468462.84645  22337481.461                    22337489.391
 110088951.731 8  85783564.058 7  20949209.844                    20949216.559
 115012957.766 8  89620555.436 7  21886232.344
 112003035.685 7  87275184.196 7  21313460.859                    21313468.605
 108348653.231 8  84427661.17846  20618049.438                    20618054.504
 11  7 29  2 15  0.0000000  0  9G10G25G17G09G04G12G01G05G02
 110217837.109 7  85884113.38346  20973736.664                    20973743.969
 121987503.419 7  95055248.625 7  23213453.039
 124832343.194 6  97272069.026 6  23754792.008                    23754800.309
 128871301.898 6 100419269.06343  24523410.422                    24523420.813
 117465603.291 7  91531797.16145  22352948.297                    22352957.148
 110055613.535 7  85757586.248 7  20942865.859                    20942872.566
 114972754.771 8  89589228.439 7  21878582.359
 111928691.076 8  87217253.377 7  21299313.672                    21299321.059
 108360504.601 8  84436896.02046  20620304.391                    20620309.594
 11  7 29  2 15 30.0000000  0  9G10G25G17G09G04G12G01G05G02
 110243799.132 8  85904343.54646  20978677.195                    20978684.773
 121900575.005 7  94987512.288 7  23196911.422
 124896208.815 6  97321834.411 6  23766945.961                    23766954.371
 128955820.529 6 100485127.72243  24539493.813                    24539504.633
 117546949.478 7  91595183.74744  22368427.984                    22368436.734
 110022810.432 8  85732025.395 7  20936623.734                    20936630.422
 114932826.761 8  89558115.727 7  21870984.328
 111854770.408 8  87159652.883 7  21285247.352                    21285254.539
 108372599.655 8  84446320.75346  20622606.281                    20622611.883
 11  7 29  2 16  0.0000000  0  9G10G25G17G09G04G12G01G05G02
 110270378.169 7  85925054.50046  20983735.297                    20983742.316
 121813960.357 7  94920020.351 6  23180429.641
 124960250.056 6  97371736.662 6  23779131.805                    23779140.406
 129040333.128 6 100550981.64943  24555576.188                    24555586.469
 117628361.441 7  91658621.61344  22383919.578                    22383928.391
 109990544.348 7  85706883.004 7  20930483.555                    20930490.668
 114893173.688 8  89527217.256 7  21863438.531
 111781276.250 8  87102384.748 7  21271262.258                    21271269.770
 108384937.132 8  84455934.38246  20624954.047                    20624959.254
 11  7 29  2 16 30.0000000  0  9G10G25G17G09G04G12G01G05G02
 110297572.584 7  85946244.96546  20988909.852                    20988917.508
 121727661.545 7  94852774.504 6  23164007.203
 125024466.876 6  97421775.714 6  23791352.125                    23791361.008
 129124836.108 5 100616828.03443  24571655.430                    24571666.828
 117709837.121 7  91722109.09144  22399424.586                    22399433.117
 109958816.342 8  85682159.890 7  20924446.125                    20924452.715
 114853794.674 8  89496532.330 7  21855944.422
 111708210.589 8  87045450.503 7  21257357.313                    21257364.910
 108397515.942 8  84465736.06546  20627347.852                    20627352.930
 11  7 29  2 17  0.0000000  0  9G10G25G17G09G04G12G01G05G02
 110325382.354 7  85967914.93945  20994201.805                    20994209.211
 121641682.130 7  94785777.604 7  23147646.195
 125088860.111 6  97471952.232 6  23803605.023                    23803613.953
 129209327.203 6 100682665.19843  24587735.023                    24587744.875
 117791375.902 7  91785645.73444  22414940.688                    22414949.156
 109927628.865 8  85657857.973 7  20918511.344                    20918518.199
 114814689.898 8  89466061.104 7  21848503.242
 111635576.683 8  86988852.688 7  21243535.891                    21243543.398
 108410335.747 8  84475725.54246  20629787.172                    20629792.082
 11  7 29  2 17 30.0000000  0  9G10G25G17G09G04G12G01G05G02
 110353805.538 7  85990062.88746  20999610.813                    20999618.258
 121556024.075 7  94719031.094 6  23131346.242
 125153429.323 6  97522265.854 6  23815893.438                    23815901.570
 129293802.672 6 100748490.16243  24603809.891                    24603820.211
 117872975.787 7  91849230.03444  22430469.227                    22430477.164
 109896982.646 8  85633977.815 7  20912679.320                    20912686.453
 114775857.943 8  89435802.460 7  21841113.961
 111563376.255 8  86932592.656 7  21229796.406                    21229803.898
 108423394.462 8  84485901.17246  20632271.961                    20632277.375
 11  7 29  2 18  0.0000000  0  9G10G25G17G09G04G12G01G05G02
 110382841.335 8  86012688.19646  21005135.992                    21005143.621
 121470690.359 7  94652537.274 6  23115106.984
 125218174.976 6  97572717.001 6  23828214.359                    23828221.895
 129378259.428 6 100814300.55943  24619881.367                    24619891.727
 117954635.226 7  91912860.69744  22446008.484                    22446016.211
 109866879.328 8  85610520.685 7  20906951.227                    20906957.930
 114737298.741 8  89405756.342 7  21833776.117
 111491611.965 8  86876672.462 7  21216140.133                    21216147.813
 108436691.301 8  84496262.35646  20634802.281                    20634807.531
 11  7 29  2 18 30.0000000  0  9G10G25G17G09G04G12G01G05G02
 110412488.997 8  86035790.28346  21010777.813                    21010784.945
 121385683.502 7  94586298.161 7  23098930.633
 125283097.226 6  97623305.727 6  23840567.367                    23840576.422
 129462694.411 6 100880093.99443  24635948.906                    24635959.160
 118036352.818 7  91976536.71544  22461558.844                    22461565.887
 109837320.401 8  85587487.762 7  20901325.734                    20901332.926
 114699011.702 8  89375922.321 7  21826490.523
 111420286.361 8  86821094.104 7  21202567.328                    21202575.145
 108450225.069 8  84506808.15746  20637377.594                    20637382.730
 11  7 29  2 19  0.0000000  0  9G10G25G17G09G04G12G01G05G02
 110442746.760 8  86059367.78746  21016535.313                    21016543.191
 121301006.051 7  94520315.741 7  23082817.523
 125348196.203 6  97674032.193 6  23852956.242                    23852964.250
 129547104.203 6 100945867.80543  24652011.813                    24652021.852
 118118126.910 7  92040256.76044  22477119.617                    22477127.160
 109808306.790 8  85564879.768 7  20895804.891                    20895811.859
 114660996.499 8  89346300.118 7  21819256.547
 111349401.313 8  86765859.041 7  21189078.227                    21189085.805
 108463994.455 8  84517537.55646  20639998.008                    20640003.246
 11  7 29  2 19 30.0000000  0  9G10G25G17G09G04G12G01G05G02
 110473613.958 8  86083420.15945  21022409.031                    21022417.004
 121216660.886 7  94454592.247 6  23066766.320
 125413472.321 6  97724896.662 6  23865377.422                    23865386.070
 129631486.211 6 101011619.97442  24668068.992                    24668078.961
 118199956.355 7  92104019.91244  22492691.898                    22492699.027
 109779840.268 8  85542698.066 7  20890388.016                    20890394.941
 114623252.561 8  89316889.283 7  21812074.133
 111278959.700 8  86710969.506 7  21175673.719                    21175680.883
 108477998.333 8  84528449.67346  20642663.039                    20642667.949
 11  7 29  2 20  0.0000000  0  9G10G25G17G09G04G12G01G05G02
 110505088.698 8  86107945.94445  21028398.875                    21028406.430
 121132650.281 7  94389129.414 6  23050780.297
 125478925.547 6  97775899.183 6  23877832.641                    23877840.949
 129715837.106 6 101077347.90643  24684120.219                    24684130.273
 118281839.135 7  92167824.67144  22508273.047                    22508280.715
 109751922.340 8  85520943.849 7  20885075.031                    20885082.430
 114585778.635 8  89287688.849 7  21804942.852
 111208963.328 8  86656426.924 7  21162353.328                    21162361.129
 108492235.137 8  84539543.29546  20645372.242                    20645377.273
 11  7 29  2 20 30.0000000  0  9G10G25G17G09G04G12G01G05G02
 110537170.869 8  86132945.04745  21034503.984                    21034511.555
 121048977.491 7  94323929.817 6  23034858.102
 125544556.741 6  97827040.372 6  23890321.977                    23890330.254
 129800154.263 6 101143049.53843  24700165.211                    24700175.668
 118363774.515 7  92231670.36844  22523865.211                    22523873.059
 109724554.036 8  85499617.905 7  20879867.266                    20879874.574
 114548575.267 8  89258699.225 7  21797863.023
 111139415.146 8  86602233.564 7  21149119.234                    21149126.965
 108506704.984 8  84550818.49346  20648125.641                    20648130.676
 11  7 29  2 21  0.0000000  0  9G10G25G17G09G04G12G01G05G02
 110569858.563 8  86158415.99245  21040724.320                    21040731.848
 120965644.679 7  94258995.170 7  23019000.172
 125610365.715 6  97878320.087 6  23902845.156                    23902854.012
 129884434.204 6 101208722.13743  24716204.031                    24716213.781
 118445760.626 7  92295555.62144  22539466.297                    22539474.559
 109697736.626 8  85478721.226 7  20874763.773                    20874771.367
 114511641.107 8  89229919.389 7  21790834.898
 111070317.082 8  86548390.952 7  21135970.711                    21135977.738
 108521406.183 8  84562273.97846  20650923.094                    20650928.297
 11  7 29  2 21 30.0000000  0  9G10G25G17G09G04G12G01G05G02
 110603150.439 8  86184357.72345  21047059.125                    21047066.836
 120882654.347 7  94194327.399 7  23003207.852
 125676352.236 6  97929738.163 6  23915401.922                    23915410.363
 129968674.045 6 101274363.48443  24732233.734                    24732243.754
 118527795.760 7  92359479.07244  22555077.273                    22555085.496
 109671471.029 8  85458254.545 7  20869766.039                    20869772.691
 114474975.774 8  89201349.020 7  21783857.852
 111001671.196 8  86494900.683 7  21122907.664                    21122914.898
 108536337.082 8  84573908.44346  20653764.234                    20653769.953
 11  7 29  2 22  0.0000000  0  9G10G25G17G09G04G12G01G05G02
 110637045.895 8  86210769.78046  21053509.023                    21053517.141
 120800009.789 7  94129929.010 6  22987480.594
 125742517.120 6  97981295.196 6  23927992.930                    23928001.055
 130052871.075 6 101339971.46843  24748255.875                    24748266.496
 118609879.467 7  92423440.36044  22570697.461                    22570705.785
 109645759.519 8  85438219.616 7  20864872.945                    20864880.043
 114438578.892 8  89172987.827 7  21776931.656
 110933480.310 8  86441764.963 7  21109931.313                    21109938.688
 108551497.343 8  84585721.63946  20656649.398                    20656654.043
 11  7 29  2 22 30.0000000  0  9G10G25G17G09G04G12G01G05G02
 110671542.899 8  86237650.56945  21060073.656                    21060081.027
 120717712.985 7  94065801.652 7  22971820.211
 125808860.069 6  98032991.026 6  23940617.422                    23940625.066
 130137021.830 6 101405543.42343  24764269.414                    24764279.953
 118692009.411 7  92487437.67844  22586325.719                    22586334.660
 109620602.470 8  85418616.728 7  20860085.695                    20860092.863
 114402449.656 8  89144835.199 7  21770056.453
 110865746.267 8  86388985.229 7  21097041.313                    21097048.781
 108566885.139 8  84597712.13246  20659577.570                    20659582.637
 11  7 29  2 23  0.0000000  0  9G10G25G17G09G04G12G01G05G02
 110706640.163 8  86264999.11145  21066752.680                    21066760.039
 120635766.721 7  94001947.469 7  22956226.320
 125875381.623 6  98084825.999 6  23953275.570                    23953284.297
 130221123.571 6 101471077.16042  24780272.109                    24780284.188
 118774184.515 7  92551470.18844  22601963.781                    22601972.141
 109596001.548 8  85399447.192 7  20855404.070                    20855411.582
 114366587.506 8  89116890.681 7  21763231.977
 110798471.263 8  86336563.181 7  21084239.641                    21084247.051
 108582499.450 8  84609879.13846  20662548.875                    20662554.219
 11  7 29  2 23 30.0000000  0  9G10G25G17G09G04G12G01G05G02
 110742336.268 7  86292814.27145  21073545.203                    21073552.910
 120554173.314 7  93938368.197 6  22940700.063
 125942081.441 6  98136799.934 6  23965968.391                    23965976.547
 130305172.78515 101536569.92752  24796267.305                    24796278.691
 118856402.970 7  92615536.46544  22617608.664                    22617617.434
 109571957.236 8  85380711.374 7  20850828.727                    20850835.875
 114330991.575 8  89089153.614 7  21756458.563
 110731657.421 8  86284500.481 7  21071525.484                    21071532.859
 108598338.858 8  84622221.53046  20665563.125                    20665568.012
 11  7 29  2 24  0.0000000  0  9G10G25G17G09G04G12G01G05G02
 110778630.092 7  86321095.18345  21080451.945                    21080460.000
 120472935.670 7  93875066.182 7  22925240.609
 126008959.857 6  98188912.989 6  23978695.141                    23978703.484
 130389167.053 6 101602019.91342  24812251.336                    24812262.340
 118938663.729 7  92679635.73344  22633263.195                    22633271.570
 109548471.458 8  85362410.780 7  20846359.914                    20846366.875
 114295661.596 8  89061623.781 7  21749735.195
 110665306.767 8  86232798.703 7  21058899.242                    21058906.570
 108614402.772 8  84634738.86746  20668619.719                    20668624.996
 11  7 29  2 24 30.0000000  0  9G10G25G17G09G04G12G01G05G02
 110815519.995 7  86349840.57745  21087471.359                    21087479.152
 120392056.254 7  93812043.318 7  22909849.836
 126076017.032 6  98241165.348 6  23991455.773                    23991463.188
 130473103.222 6 101667424.64843  24828223.922                    24828234.414
 119020965.320 7  92743766.80144  22648924.125                    22648932.949
 109525544.992 8  85344546.012 7  20841997.063                    20842003.754
 114260597.015 8  89034300.747 7  21743062.688
 110599422.227 8  86181460.125 7  21046361.461                    21046368.961
 108630689.706 8  84647429.99046  20671718.977                    20671724.258
 11  7 29  2 25  0.0000000  0  9G10G25G17G09G04G12G01G05G02
 110853004.470 8  86379049.28745  21094604.453                    21094612.758
 120311537.641 7  93749301.590 7  22894527.430
 126143252.975 6  98293557.022 6  24004249.602                    24004258.199
 130556977.863 6 101732781.46843  24844184.648                    24844195.539
 119103306.321 7  92807928.58844  22664594.094                    22664601.824
 109503178.789 8  85327117.808 7  20837740.531                    20837747.801
 114225796.676 8  89007183.604 7  21736440.320
 110534005.392 8  86130485.994 7  21033913.117                    21033920.695
 108647198.334 8  84660293.86746  20674860.297                    20674865.785
 11  7 29  2 25 30.0000000  0  8G10G25G17G04G12G01G05G02
 110891084.065 7  86408721.73445  21101850.727                    21101858.078
 120231384.401 7  93686844.588 7  22879275.047
 126210669.840 6  98346089.675 6  24017078.773                    24017086.988
 119185687.390 7  92872121.59044  22680270.055                    22680278.645
 109481376.115 8  85310128.721 7  20833591.719                    20833598.715
 114191262.199 8  88980273.635 7  21729868.727
 110469060.413 8  86079879.554 7  21021554.438                    21021561.895
 108663929.841 8  84673331.42046  20678044.453                    20678049.410
 11  7 29  2 26  0.0000000  0  8G10G25G17G04G12G01G05G02
 110929755.756 7  86438855.53045  21109210.047                    21109217.504
 120151597.609 7  93624673.122 7  22864092.102
 126278266.406 6  98398762.346 6  24029942.258                    24029950.590
 119268105.753 7  92936343.67244  22695953.773                    22695961.980
 109460136.548 8  85293578.418 7  20829549.727                    20829556.941
 114156991.674 8  88953569.356 7  21723347.047
 110404588.054 8  86029641.368 7  21009286.039                    21009293.613
 108680881.631 8  84686540.62246  20681270.211                    20681274.980
 11  7 29  2 26 30.0000000  0  8G10G25G17G04G12G01G05G02
 110969017.251 7  86469448.91545  21116681.578                    21116688.594
 120072179.040 7  93562788.591 7  22848979.102
 126346042.086 6  98451574.561 6  24042839.180                    24042848.383
 119350559.132 7  93000593.04444  22711644.297                    22711652.676
 109439460.612 8  85277467.305 7  20825615.250                    20825622.293
 114122983.266 8  88927069.357 7  21716875.422
 110340589.569 8  85979772.458 7  20997107.438                    20997115.125
 108698051.688 8  84699919.89946  20684537.547                    20684542.578
 11  7 29  2 27  0.0000000  0  8G10G25G17G04G12G01G05G02
 111008866.960 8  86500500.66045  21124264.508                    21124271.984
 119993131.195 7  93501192.940 7  22833936.648
 126413996.739 6  98504526.221 6  24055770.648                    24055779.070
 119433046.260 7  93064868.69644  22727340.844                    22727349.410
 109419348.771 8  85261795.754 7  20821788.289                    20821795.367
 114089236.668 8  88900773.346 7  21710454.063
 110277067.226 8  85930274.574 7  20985019.539                    20985026.863
 108715438.880 8  84713468.35546  20687846.008                    20687851.660
 11  7 29  2 27 30.0000000  0  8G10G25G17G04G12G01G05G02
 111049303.097 8  86532009.36445  21131959.047                    21131966.156
 119914456.354 7  93439887.929 7  22818965.313
 126482130.374 6  98557617.336 6  24068736.164                    24068744.742
 119515565.652 7  93129169.53244  22743043.531                    22743051.613
 109399801.805 8  85246564.360 7  20818068.797                    20818075.488
 114055750.923 8  88874680.591 7  21704081.648
 110214022.527 7  85881148.874 7  20973022.281                    20973029.387
 108733041.624 8  84727184.78946  20691196.063                    20691201.297
 11  7 29  2 28  0.0000000  0  8G10G25G17G04G12G01G05G02
 111090325.158 8  86563974.63145  21139765.055                    21139772.660
 119836158.151 7  93378876.399 7  22804065.578
 126550443.853 6  98610848.610 6  24081735.898                    24081744.414
 119598116.942 7  93193495.21344  22758752.305                    22758761.094
 109380822.035 8  85231774.936 7  20814457.031                    20814463.852
 114022526.478 8  88848791.436 7  21697759.219
 110151458.654 7  85832397.834 7  20961116.563                    20961123.879
 108750859.933 8  84741069.18446  20694586.664                    20694591.500
 11  7 29  2 28 30.0000000  0  8G10G25G17G04G12G01G05G02
 111131930.686 8  86596394.54545  21147682.766                    21147690.176
 119758238.392 7  93318159.783 7  22789237.844
 126618936.643 6  98664219.636 6  24094769.992                    24094777.754
 119680698.204 7  93257844.20944  22774467.125                    22774475.578
 109362409.711 8  85217427.679 7  20810953.188                    20810959.906
 113989561.716 8  88823104.650 7  21691486.172
 110089377.220 8  85784022.719 7  20949303.195                    20949310.676
 108768892.064 8  84755120.20146  20698018.273                    20698023.414
 11  7 29  2 29  0.0000000  0  8G10G25G17G04G12G01G05G02
 111174117.882 7  86629267.71445  21155710.547                    21155717.777
 119680699.205 7  93257739.691 7  22774482.297
 126687608.744 6  98717730.365 5  24107837.734                    24107845.965
 119763307.641 7  93322215.20944  22790187.188                    22790195.555
 109344565.122 8  85203522.812 7  20807557.500                    20807564.445
 113956855.816 8  88797619.576 7  21685262.445
 110027779.523 8  85736024.542 7  20937581.531                    20937588.574
 108787136.279 8  84769336.47446  20701489.906                    20701494.965
 11  7 29  2 29 30.0000000  0  8G10G25G17G04G12G01G05G02
 111216885.827 8  86662593.42945  21163849.047                    21163855.820
 119603543.907 7  93197618.724 7  22759800.266
 126756460.744 6  98771381.332 5  24120939.750                    24120947.055
 119845944.699 7  93386607.70244  22805913.016                    22805921.574
 109327290.222 8  85190061.859 7  20804270.438                    20804277.250
 113924408.630 8  88772336.089 7  21679087.789
 109966668.477 8  85688405.578 7  20925952.383                    20925959.570
 108805592.348 8  84783717.83146  20705001.695                    20705006.766
 11  7 29  2 30  0.0000000  0  8G10G25G17G04G12G01G05G02
 111260232.615 8  86696370.17345  21172097.852                    21172105.336
 119526775.086 7  93137798.915 7  22745191.438
 126825492.643 6  98825172.448 5  24134075.875                    24134084.051
 119928608.332 7  93451020.91344  22821643.109                    22821651.797
 109310585.887 8  85177045.498 7  20801091.586                    20801098.438
 113892219.916 8  88747254.008 7  21672962.180
 109906046.085 8  85641167.383 7  20914416.391                    20914423.375
 108824259.467 8  84798263.63046  20708553.859                    20708559.070
 11  7 29  2 30 30.0000000  0  8G10G25G17G04G12G01G05G02
 111304156.283 7  86730596.43545  21180455.828                    21180463.883
 119450395.007 7  93078282.002 7  22730656.766
 126894704.236 6  98879103.571 6  24147247.102                    24147254.555
 120011296.981 7  93515453.63944  22837378.625                    22837386.289
 109294452.748 8  85164474.237 7  20798021.398                    20798028.168
 113860288.497 8  88722372.406 7  21666886.125
 109845914.042 8  85594311.273 7  20902973.508                    20902980.914
 108843136.325 8  84812972.86546  20712146.195                    20712151.410
 11  7 29  2 31  0.0000000  0  8G10G25G17G04G12G01G05G02
 111348655.355 7  86765271.07145  21188923.633                    21188930.664
 119374406.092 7  93019069.897 7  22716196.539
 126964095.963 6  98933175.018 6  24160451.688                    24160459.461
 120094009.320 7  93579904.81644  22853118.430                    22853126.309
 109278891.625 8  85152348.699 7  20795060.430                    20795067.293
 113828613.483 8  88697690.612 7  21660858.508
 109786274.414 7  85547838.874 7  20891624.484                    20891631.918
 108862221.460 8  84827844.39746  20715778.203                    20715782.781
 11  7 29  2 31 30.0000000  0  8G10G25G17G04G12G01G05G02
 111393727.909 7  86800392.57845  21197500.680                    21197508.070
 119298810.807 7  92960164.482 7  22701811.547
 127033667.632 6  98987386.684 6  24173690.828                    24173698.609
 120176744.040 7  93644373.41244  22868862.039                    22868870.129
 109263902.902 8  85140669.184 7  20792208.297                    20792215.156
 113797194.553 8  88673208.376 7  21654879.461
 109727129.194 8  85501751.723 7  20880369.570                    20880377.004
 108881513.783 8  84842877.36846  20719449.047                    20719454.543
 11  7 29  2 32  0.0000000  0  8G10G25G17G04G12G01G05G02
 111439371.907 7  86835959.37845  21206186.281                    21206193.625
 119223611.423 7  92901567.574 7  22687501.500
 127103419.016 6  99041738.419 6  24186963.703                    24186971.828
 120259499.799 7  93708858.41344  22884609.281                    22884618.082
 109249487.628 8  85129436.509 7  20789465.078                    20789471.887
 113766030.611 8  88648924.820 7  21648949.484
 109668479.885 7  85456050.997 7  20869208.781                    20869216.113
 108901012.022 8  84858070.83146  20723159.539                    20723164.637
 11  7 29  2 32 30.0000000  0  8G10G25G17G04G12G01G05G02
 111485585.920 7  86871970.31645  21214980.914                    21214988.449
 119148810.852 7  92843281.427 7  22673267.719
 127173350.530 6  99096230.514 6  24200270.781                    24200279.008
 120342275.677 7  93773359.08644  22900361.984                    22900369.746
 109235646.678 8  85118651.366 7  20786830.781                    20786837.902
 113735121.301 8  88624839.674 7  21643067.648
 109610328.635 7  85410738.354 7  20858143.234                    20858150.762
 108920715.432 8  84873424.12746  20726908.758                    20726914.156
 11  7 29  2 33  0.0000000  0  8G10G25G17G04G12G01G05G02
 111532368.129 7  86908424.00945  21223883.586                    21223889.805
 119074411.401 7  92785307.836 7  22659110.008
 127243461.933 6  99150862.795 6  24213612.344                    24213621.102
 120425070.531 7  93837874.59644  22916117.063                    22916124.941
 109222380.783 8  85108314.303 7  20784307.047                    20784313.918
 113704465.727 8  88600952.257 7  21637234.109
 109552677.393 8  85365815.328 7  20847172.328                    20847179.461
 108940622.760 8  84888936.32546  20730697.516                    20730702.496
 11  7 29  2 33 30.0000000  0  8G10G25G17G04G12G01G05G02
 111579716.286 7  86945318.73945  21232892.898                    21232900.211
 119000415.278 7  92727648.515 7  22645028.484
 127313753.135 6  99205635.181 6  24226988.844                    24226996.965
 120507882.662 7  93902403.56743  22931875.758                    22931883.828
 109209690.477 8  85098425.764 7  20781892.008                    20781898.848
 113674063.083 8  88577261.931 7  21631448.359
 109495527.792 8  85321283.203 7  20836297.352                    20836304.621
 108960732.566 8  84904606.29346  20734524.078                    20734529.496
 11  7 29  2 34  0.0000000  0  8G10G25G17G04G12G01G05G02
 111627629.126 7  86982653.45045  21242010.453                    21242018.129
 118926825.423 7  92670305.773 7  22631025.477
 127384224.741 6  99260548.157 6  24240399.133                    24240407.469
 120590711.495 7  93966945.51843  22947637.078                    22947645.035
 109197576.667 7  85088986.432 7  20779586.438                    20779593.523
 113643913.255 8  88553768.605 7  21625711.039
 109438882.193 8  85277143.802 7  20825517.906                    20825525.090
 108981044.372 8  84920433.66746  20738389.313                    20738394.137
 11  7 29  2 34 30.0000000  0  9G10G25G17G29G04G12G01G05G02
 111676104.887 7  87020426.77945  21251235.273                    21251242.914
 118853644.336 7  92613281.540 7  22617099.266
 127454876.652 6  99315601.594 6  24253843.367                    24253852.027
 129593313.31016 100981876.11416  24660795.219                    24660803.375
 120673555.901 7  94031499.60044  22963402.234                    22963410.281
 109186040.300 8  85079997.059 7  20777391.055                    20777398.160
 113614015.298 8  88530471.532 7  21620021.602
 109382741.811 8  85233398.085 7  20814834.305                    20814842.129
 109001557.193 8  84936417.68346  20742292.523                    20742298.074
 11  7 29  2 35  0.0000000  0  9G10G25G17G29G04G12G01G05G02
 111725140.764 7  87058636.59945  21260566.266                    21260573.387
 118780873.699 7  92556577.156 7  22603251.555
 127525707.686 6  99370794.650 6  24267322.813                    24267330.934
 129513256.173 6 100919493.981 6  24645561.461                    24645570.438
 120756413.979 6  94096064.35843  22979168.492                    22979177.184
 109175081.628 8  85071457.838 7  20775305.711                    20775312.605
 113584367.780 8  88507369.605 7  21614379.930
 109327108.650 8  85190047.604 7  20804248.234                    20804255.297
 109022269.130 7  84952556.84646  20746233.883                    20746239.383
 11  7 29  2 35 30.0000000  0  9G10G25G17G29G04G12G01G05G02
 111774735.197 7  87097281.64445  21270003.273                    21270011.016
 118708516.374 7  92500194.801 7  22589482.141
 127596718.942 6  99426128.102 6  24280835.430                    24280843.926
 129433129.216 6 100857057.439 6  24630312.781                    24630322.641
 120839284.994 6  94160639.19844  22994939.070                    22994947.102
 109164701.024 8  85063369.054 7  20773330.586                    20773337.652
 113554970.530 8  88484462.692 7  21608785.875
 109271984.527 8  85147093.780 7  20793758.297                    20793765.719
 109043179.594 8  84968850.70946  20750213.031                    20750218.430
 11  7 29  2 36  0.0000000  0  9G10G25G17G29G04G12G01G05G02
 111824886.513 7  87136360.60045  21279547.117                    21279554.875
 118636574.825 7  92444136.475 7  22575791.758
 127667910.327 6  99481601.934 6  24294382.922                    24294390.617
 129352933.116 6 100794567.007 6  24615052.211                    24615062.293
 120922167.738 6  94225223.13844  23010711.133                    23010719.543
 109154899.371 8  85055731.406 7  20771465.273                    20771472.383
 113525822.799 8  88461750.201 7  21603239.102
 109217371.250 8  85104538.015 7  20783365.453                    20783373.109
 109064287.404 8  84985298.34746  20754229.813                    20754235.320
 11  7 29  2 36 30.0000000  0  9G10G25G17G29G04G12G01G05G02
 111875592.493 7  87175871.77045  21289196.109                    21289203.727
 118565051.489 7  92388404.014 7  22562182.180
 127739281.855 6  99537216.134 6  24307964.555                    24307972.902
 129272668.392 6 100732023.055 6  24599778.414                    24599788.410
 121005061.156 6  94289815.45444  23026485.305                    23026493.688
 109145677.329 8  85048545.404 7  20769710.781                    20769717.520
 113496923.840 8  88439231.564 7  21597739.836
 109163270.551 8  85062381.662 7  20773070.688                    20773077.801
 109085591.664 8  85001899.06446  20758283.945                    20758289.355
 11  7 29  2 37  0.0000000  0  9G10G25G17G29G04G12G01G05G02
 111926850.855 7  87215813.37345  21298950.148                    21298957.613
 118493948.462 7  92332999.095 7  22548651.125
 127810832.891 6  99592970.201 6  24321580.305                    24321588.215
 129192335.053 6 100669425.638 6  24584491.633                    24584501.496
 121087963.984 6  94354415.10144  23042261.086                    23042269.820
 109137035.284 8  85041811.343 7  20768066.008                    20768072.801
 113468272.544 8  88416905.912 7  21592287.742
 109109683.876 8  85020625.839 7  20762873.523                    20762880.570
 109107090.912 8  85018651.71646  20762375.078                    20762380.449
 11  7 29  2 37 30.0000000  0  9G10G25G17G29G04G12G01G05G02
 111978660.381 7  87256184.44045  21308809.742                    21308816.398
 118423268.694 7  92277923.978 7  22535201.648
 127882564.103 6  99648864.700 6  24335230.109                    24335238.457
 129111934.073 7 100606775.493 6  24569192.094                    24569201.555
 121170875.476 6  94419021.43944  23058038.508                    23058047.234
 109128974.022 8  85035529.837 7  20766531.844                    20766538.801
 113439868.835 8  88394773.173 7  21586882.813
 109056613.491 8  84979272.318 7  20752774.250                    20752781.391
 109128784.539 8  85035555.83746  20766502.992                    20766508.496
 11  7 29  2 38  0.0000000  0  9G10G25G17G29G04G12G01G05G02
 112031018.794 7  87296983.20945  21318773.086                    21318780.613
 118353014.255 7  92223180.270 7  22521832.367
 127954475.328 6  99704899.387 6  24348914.344                    24348922.750
 129031465.890 7 100544072.996 6  24553879.703                    24553888.996
 121253794.350 6  94483633.57644  23073817.531                    23073825.988
 109121493.820 8  85029701.106 7  20765108.164                    20765115.328
 113411712.044 8  88372832.842 7  21581524.266
 109004060.539 8  84938321.997 7  20742773.859                    20742781.066
 109150671.125 8  85052610.32946  20770668.109                    20770673.629
 11  7 29  2 38 30.0000000  0  9G10G25G17G29G04G12G01G05G02
 112083923.939 7  87338208.00345  21328840.234                    21328847.699
 118283187.290 7  92168769.704 7  22508544.594
 128026566.108 6  99761074.031 6  24362632.141                    24362640.566
 128950930.967 6 100481318.470 6  24538554.141                    24538563.906
 121336719.187 7  94548250.34044  23089597.438                    23089606.070
 109114595.167 8  85024325.534 7  20763795.484                    20763802.586
 113383800.766 8  88351083.828 7  21576212.883
 108952026.902 8  84897776.331 7  20732872.398                    20732879.473
 109172749.661 8  85069814.38946  20774869.664                    20774874.703
 11  7 29  2 39  0.0000000  0  9G10G25G17G29G04G12G01G05G02
 112137374.430 7  87379857.73545  21339011.430                    21339019.004
 118213790.986 7  92114694.690 7  22495338.508
 128098836.694 6  99817388.761 6  24376385.250                    24376393.422
 128870330.571 6 100418512.954 6  24523216.578                    24523226.555
 121419649.718 6  94612871.51344  23105378.742                    23105387.074
 109108278.913 7  85019403.772 7  20762593.688                    20762600.770
 113356135.215 8  88329526.280 7  21570948.570
 108900515.008 8  84857637.224 7  20723069.727                    20723076.992
 109195019.900 7  85087167.82246  20779107.523                    20779112.582
 11  7 29  2 39 30.0000000  0  9G10G25G17G29G04G12G01G05G02
 112191367.527 7  87421930.27245  21349286.344                    21349293.457
 118144827.103 7  92060956.652 7  22482215.609
 128171287.314 6  99873843.788 6  24390172.000                    24390180.227
 128789664.522 6 100355656.303 6  24507866.547                    24507876.344
 121502584.357 6  94677495.91343  23121160.859                    23121168.844
 109102544.940 8  85014935.744 7  20761502.414                    20761509.605
 113328713.948 8  88308159.077 7  21565730.469
 108849525.709 8  84817905.330 7  20713366.742                    20713373.895
 109217480.178 8  85104669.34246  20783381.789                    20783386.621
 11  7 29  2 40  0.0000000  0  9G10G25G17G29G04G12G01G05G02
 112245900.857 7  87464423.76645  21359663.922                    21359670.855
 118076297.820 7  92007557.255 7  22469175.000
 128243917.447 6  99930438.683 6  24403993.281                    24404001.176
 128708933.310 6 100292748.877 6  24492503.781                    24492513.520
 121585522.007 6  94742122.62143  23136942.578                    23136951.434
 109097393.839 8  85010921.894 7  20760522.523                    20760529.453
 113301536.026 8  88286981.507 7  21560558.742
 108799060.275 8  84778581.636 7  20703763.531                    20703770.551
 109240129.258 7  85122317.97146  20787691.156                    20787696.633
 11  7 29  2 40 30.0000000  0  9G10G25G17G29G04G12G01G05G02
 112300972.981 7  87507337.10845  21370143.313                    21370150.586
 118008205.863 7  91954498.647 7  22456217.336
 128316727.272 6  99987173.563 6  24417847.656                    24417856.219
 128628138.138 6 100229791.616 6  24477128.273                    24477138.918
 121668461.937 6  94806751.14544  23152726.453                    23152734.844
 109092826.402 8  85007362.846 7  20759653.094                    20759660.152
 113274601.294 8  88265993.421 7  21555433.102
 108749120.934 8  84739667.886 7  20694260.133                    20694267.621
 109262966.354 7  85140113.10546  20792037.102                    20792042.262
 11  7 29  2 41  0.0000000  0  9G10G25G17G29G04G12G01G05G02
 112356581.124 7  87550668.10145  21380725.195                    21380732.930
 117940552.955 7  91901782.140 7  22443343.289
 128389715.831 6 100044047.759 6  24431737.430                    24431745.266
 128547279.077 6 100166784.590 6  24461741.469                    24461751.660
 121751402.370 6  94871380.07543  23168509.352                    23168517.770
 109088842.092 8  85004258.191 7  20758895.000                    20758902.250
 113247908.217 8  88245193.651 7  21550353.406
 108699708.676 8  84701164.853 7  20684857.086                    20684864.805
 109285990.017 7  85158053.60446  20796418.461                    20796423.809
 11  7 29  2 41 30.0000000  0  9G10G25G17G29G04G12G01G05G02
 112412723.599 7  87594415.47745  21391409.227                    21391416.809
 117873341.835 7  91849409.877 7  22430553.563
 128462884.063 6 100101061.955 6  24445660.664                    24445669.266
 128466356.921 6 100103728.409 6  24446342.250                    24446352.648
 121834342.982 6  94936009.11243  23184292.297                    23184299.992
 109085441.878 8  85001608.673 7  20758248.188                    20758254.781
 113221456.643 8  88224582.066 7  21545319.922
 108650825.211 8  84663073.863 7  20675555.617                    20675562.727
 109309199.544 8  85176138.92146  20800835.094                    20800840.379
 11  7 29  2 42  0.0000000  0  9G10G25G17G29G04G12G01G05G02
 112469397.792 7  87638577.18545  21402193.781                    21402200.941
 117806574.575 7  91797383.490 7  22417848.258
 128536231.597 6 100158215.843 6  24459619.383                    24459626.695
 128385372.387 5 100040623.627 6  24430931.438                    24430941.098
 121917282.315 7  95000637.16844  23200075.438                    23200083.578
 109082625.624 8  84999414.184 7  20757712.289                    20757719.379
 113195245.483 8  88204157.806 7  21540332.289
 108602472.128 8  84625396.164 7  20666354.164                    20666361.070
 109332593.730 8  85194368.14746  20805286.813                    20805292.191
 11  7 29  2 42 30.0000000  0  9G10G25G17G29G04G12G01G05G02
 112526601.600 7  87683151.56045  21413079.102                    21413086.957
 117740253.296 7  91745704.618 7  22405227.211
 128609757.985 6 100215509.104 6  24473609.867                    24473618.125
 128304325.611 5  99977470.355 5  24415508.547                    24415519.434
 122000219.205 7  95065263.30044  23215857.750                    23215865.469
 109080393.601 8  84997674.944 7  20757287.469                    20757294.590
 113169273.824 8  88183920.171 7  21535389.695
 108554650.697 8  84588132.729 7  20657253.836                    20657260.957
 109356171.574 8  85212740.48646  20809773.516                    20809778.793
 11  7 29  2 43  0.0000000  0  9G10G25G17G29G04G12G01G05G02
 112584333.437 7  87728137.38645  21424065.766                    21424072.582
 117674380.983 7  91694375.588 7  22392692.469
 128683463.683 6 100272942.111 6  24487636.766                    24487644.387
 128223218.028 6  99914269.712 5  24400074.281                    24400084.262
 122083153.471 7  95129887.41744  23231640.250                    23231647.660
 109078746.704 8  84996391.650 7  20756974.289                    20756980.863
 113143541.920 8  88163869.370 7  21530493.531
 108507363.082 8  84551285.261 7  20648254.859                    20648262.641
 109379932.420 8  85231255.42046  20814295.281                    20814300.414
 11  7 29  2 43 30.0000000  0  9G10G25G17G29G04G12G01G05G02
 112642590.084 7  87773532.17645  21435151.461                    21435158.473
 117608958.855 7  91643397.346 7  22380243.445
 128757347.684 6 100330514.040 6  24501695.492                    24501704.438
 128142049.431 6  99851021.500 5  24384629.047                    24384638.379
 122166083.127 7  95194507.95144  23247420.328                    23247428.781
 109077684.091 8  84995563.637 7  20756771.508                    20756778.625
 113118047.450 8  88144003.560 7  21525641.773
 108460609.682 8  84514854.069 7  20639358.117                    20639365.316
 109403874.376 8  85249911.49046  20818850.961                    20818856.246
 11  7 29  2 44  0.0000000  0  8G10G25G29G04G12G01G05G02
 112701370.234 7  87819334.87945  21446336.711                    21446343.980
 117543990.106 7  91592772.398 7  22367880.070
 128060821.200 6  99787726.874 5  24369171.227                    24369180.457
 122249008.094 7  95259124.77844  23263200.813                    23263209.016
 109077207.072 8  84995191.934 7  20756680.797                    20756687.703
 113092790.722 8  88124323.010 7  21520835.914
 108414392.823 8  84478840.952 7  20630563.352                    20630570.742
 109427997.516 8  85268708.74646  20823441.336                    20823446.648
 11  7 29  2 44 30.0000000  0  8G10G25G29G04G12G01G05G02
 112760671.722 7  87865543.81145  21457621.234                    21457628.313
 117479477.325 7  91542502.746 7  22355603.039
 127979534.498 6  99724386.664 6  24353703.391                    24353712.293
 122331927.696 7  95323737.41843  23278979.844                    23278987.848
 109077315.846 8  84995276.695 7  20756701.648                    20756708.266
 113067771.640 8  88104827.638 7  21516074.461
 108368714.363 8  84443247.375 7  20621871.109                    20621877.703
 109452301.187 8  85287646.68846  20828066.430                    20828071.855
 11  7 29  2 45  0.0000000  0  8G10G25G29G04G12G01G05G02
 112820491.430 7  87912156.56645  21469004.555                    21469011.875
 117415421.561 7  91492589.205 7  22343414.203
 127898188.881 6  99661000.564 6  24338222.789                    24338233.230
 122414839.851 6  95388344.28944  23294757.250                    23294765.480
 109078009.708 8  84995817.369 7  20756833.602                    20756840.863
 113042987.857 8  88085515.620 7  21511358.422
 108323574.696 8  84408073.627 7  20613281.461                    20613288.863
 109476783.064 8  85306723.48946  20832725.344                    20832730.422
 11  7 29  2 45 30.0000000  0  8G10G25G29G04G12G01G05G02
 112880826.643 7  87959171.00245  21480486.164                    21480493.246
 117351824.526 7  91443033.104 7  22331312.148
 127816784.466 6  99597568.667 6  24322732.664                    24322741.902
 122497743.284 6  95452944.35744  23310533.641                    23310541.645
 109079288.161 8  84996813.573 7  20757076.961                    20757083.785
 113018438.178 8  88066386.014 7  21506686.703
 108278974.348 8  84373320.140 7  20604794.070                    20604801.539
 109501441.283 8  85325937.70446  20837417.305                    20837422.660
 11  7 29  2 46  0.0000000  0  8G10G25G29G04G12G01G05G02
 112941676.539 7  88006586.51245  21492065.234                    21492072.379
 117288689.932 7  91393837.350 7  22319298.117
 127735323.543 6  99534092.735 6  24307230.836                    24307240.688
 122580638.325 6  95517537.85943  23326307.445                    23326316.156
 109081153.164 8  84998266.823 7  20757432.078                    20757438.758
 112994123.426 8  88047439.469 7  21502060.023
 108234916.080 8  84338989.038 7  20596410.188                    20596417.297
 109526276.895 8  85345290.15446  20842143.523                    20842148.668
 11  7 29  2 46 30.0000000  0  8G10G25G29G04G12G01G05G02
 113003037.556 7  88054400.28145  21503741.773                    21503749.359
 117226018.845 7  91345002.771 7  22307371.531
 127653805.716 6  99470572.448 6  24291718.828                    24291728.523
 122663523.175 6  95582123.42443  23342079.391                    23342088.805
 109083603.237 7  85000175.975 7  20757898.047                    20757905.063
 112970041.816 8  88028674.594 7  21497477.320
 108191400.621 8  84305080.906 7  20588129.141                    20588136.539
 109551287.847 8  85364779.24046  20846902.828                    20846908.410
 11  7 29  2 47  0.0000000  0  8G10G25G29G04G12G01G05G02
 113064908.547 7  88102611.42345  21515515.391                    21515523.117
 117163814.255 7  91296531.688 7  22295534.461
 127572232.317 6  99407008.858 6  24276195.852                    24276205.367
 122746397.595 6  95646700.85043  23357851.047                    23357858.953
 109086639.246 8  85002541.705 7  20758476.125                    20758482.820
 112946193.293 8  88010091.346 7  21492939.023
 108148429.778 8  84271597.159 7  20579952.242                    20579959.141
 109576473.946 8  85384404.81846  20851695.672                    20851700.508
 11  7 29  2 47 30.0000000  0  8G10G25G29G04G12G01G05G02
 113127286.290 7  88151217.43445  21527385.938                    21527393.555
 117102077.709 7  91248425.322 7  22283786.867
 127490603.666 6  99343402.226 6  24260662.680                    24260671.746
 122829260.095 6  95711268.98944  23373619.211                    23373627.195
 109090260.463 8  85005363.443 7  20759165.055                    20759171.953
 112922576.298 8  87991688.511 7  21488444.742
 108106004.424 8  84238538.456 7  20571878.789                    20571886.516
 109601833.831 8  85404165.81446  20856521.422                    20856526.652
 11  7 29  2 48  0.0000000  0  8G10G25G29G04G12G01G05G02
 113190168.435 7  88200216.48745  21539352.203                    21539359.203
 117040811.311 7  91200685.305 7  22272128.016
 127408920.606 6  99279753.212 6  24245118.547                    24245128.512
 122912109.761 6  95775827.11343  23389385.391                    23389393.309
 109094467.284 7  85008641.486 7  20759965.438                    20759972.430
 112899190.248 8  87973465.632 7  21483994.500
 108064125.390 8  84205905.467 7  20563909.531                    20563916.875
 109627365.889 8  85424060.97446  20861379.680                    20861384.910
 11  7 29  2 48 30.0000000  0  8G10G25G29G04G12G01G05G02
 113253552.978 7  88249607.03545  21551413.234                    21551420.781
 116980017.542 7  91153313.560 7  22260558.875
 127327183.937 6  99216062.437 6  24229563.805                    24229573.754
 122994945.953 6  95840374.69543  23405147.586                    23405156.398
 109099259.938 8  85012376.024 7  20760877.711                    20760884.098
 112876034.536 8  87955422.239 7  21479588.039
 108022794.346 8  84173699.483 7  20556044.945                    20556051.395
 109653069.718 8  85444089.99446  20866271.164                    20866276.453
 11  7 29  2 49  0.0000000  0  8G10G25G29G04G12G01G05G02
 113317436.470 7  88299386.36245  21563570.461                    21563577.883
 116919697.627 7  91106311.056 7  22249080.797
 127245393.489 6  99152329.740 6  24213999.734                    24214009.254
 123077767.372 6  95904910.91843  23420908.711                    23420916.465
 109104637.657 8  85016566.460 7  20761900.453                    20761907.492
 112853107.587 8  87937557.091 7  21475225.313
 107982011.830 8  84141920.922 7  20548284.016                    20548291.305
 109678943.482 8  85464251.44146  20871195.195                    20871199.945
 11  7 29  2 49 30.0000000  0  8G10G25G29G04G12G01G05G02
 113381817.923 7  88349553.71445  21575821.516                    21575829.297
 116859855.001 7  91059680.464 7  22237693.078
 127163551.576 6  99088556.914 6  24198425.734                    24198435.512
 123160573.999 6  95969435.59543  23436666.297                    23436674.500
 109110601.062 8  85021213.279 7  20763035.531                    20763041.984
 112830409.588 8  87919870.349 7  21470905.602
 107941780.333 8  84110571.728 7  20540627.969                    20540635.375
 109704987.656 8  85484545.66646  20876151.023                    20876156.047
 11  7 29  2 50  0.0000000  0  8G10G25G29G04G12G01G05G02
 113446693.852 7  88400106.35845  21588166.969                    21588174.863
 116800490.693 7  91013422.584 7  22226396.383
 127081657.465 6  99024743.428 6  24182841.977                    24182851.570
 123243364.059 6  96033947.31643  23452420.156                    23452428.602
 109117149.189 8  85026315.722 7  20764281.680                    20764288.203
 112807939.163 8  87902360.940 7  21466629.930
 107902099.891 8  84079651.925 7  20533077.031                    20533084.363
 109731199.999 8  85504970.93846  20881139.234                    20881143.836
 11  7 29  2 50 30.0000000  0  8G10G25G29G04G12G01G05G02
 113512062.311 7  88451042.82845  21600606.281                    21600613.570
 116741607.012 8  90967539.226 7  22215190.867
 126999712.936 6  98960890.672 6  24167247.672                    24167257.762
 123326137.045 6  96098445.69643  23468171.828                    23468179.965
 109124282.433 8  85031874.097 7  20765639.195                    20765646.043
 112785695.618 8  87885028.323 7  21462397.398
 107862971.946 8  84049162.634 7  20525631.453                    20525638.547
 109757580.210 8  85525527.02146  20886158.742                    20886163.902
 11  7 29  2 51  0.0000000  0  8G10G25G29G04G12G01G05G02
 113577920.896 7  88502361.20145  21613138.781                    21613145.953
 116683206.195 7  90922032.126 7  22204077.914
 126917718.655 6  98896999.173 6  24151645.648                    24151655.293
 123408892.123 7  96162930.16343  23483919.578                    23483927.152
 109132000.550 8  85037888.222 7  20767107.953                    20767114.949
 112763678.208 8  87867871.925 7  21458207.406
 107824397.552 8  84019104.691 7  20518290.727                    20518298.383
 109784127.286 8  85546213.12946  20891210.336                    20891215.605
 11  7 29  2 51 30.0000000  0  8G10G25G29G04G12G01G05G02
 113644266.108 7  88554058.74745  21625763.547                    21625771.215
 116625289.372 8  90876902.156 7  22193056.586
 126835674.45015  98833068.87416  24136031.773                    24136042.223
 123491627.878 6  96227399.60643  23499663.492                    23499671.051
 109140302.653 8  85044357.386 7  20768687.711                    20768694.859
 112741885.473 8  87850890.594 7  21454060.477
 107786377.366 8  83989478.588 7  20511056.125                    20511062.773
 109810839.208 8  85567027.69446  20896293.695                    20896299.191
 11  7 29  2 52  0.0000000  0  8G10G25G29G04G12G01G05G02
 113711097.569 7  88606135.19545  21638481.539                    21638488.277
 116567860.451 8  90832152.380 7  22182127.789
 126753583.01916  98769101.69116  24120410.695                    24120420.598
 123574345.092 6  96291854.47043  23515404.219                    23515411.949
 109149190.019 8  85051282.603 7  20770378.727                    20770385.875
 112720318.432 8  87834085.134 7  21449956.383
 107748914.011 8  83960286.388 8  20503927.195                    20503933.801
 109837717.430 8  85587971.83646  20901408.359                    20901413.340
 11  7 29  2 52 30.0000000  0  8G10G25G29G04G12G01G05G02
 113778410.998 7  88658587.22045  21651291.008                    21651298.059
 116510919.802 7  90787783.078 7  22171292.797
 126671443.757 6  98705097.152 5  24104780.820                    24104789.418
 123657041.451 7  96356293.18743  23531140.641                    23531148.309
 109158661.160 8  85058662.704 7  20772181.133                    20772187.945
 112698974.394 8  87817453.441 7  21445894.500
 107712006.865 8  83931527.598 8  20496903.633                    20496910.707
 109864759.133 8  85609043.34646  20906554.109                    20906559.191
 11  7 29  2 53  0.0000000  0  8G10G25G29G04G12G01G05G02
 113846204.525 7  88711413.32945  21664191.508                    21664198.895
 116454470.158 8  90743796.377 7  22160550.477
 126589258.088 6  98641056.388 5  24089141.641                    24089149.246
 123739716.576 6  96420715.35143  23546873.797                    23546881.645
 109168716.450 8  85066498.000 7  20774094.617                    20774101.727
 112677853.511 8  87800995.633 7  21441875.539
 107675657.730 8  83903203.612 7  20489986.734                    20489993.797
 109891964.197 7  85630242.16046  20911731.023                    20911736.027
 11  7 29  2 53 30.0000000  0  8G10G25G29G04G12G01G05G02
 113914475.278 7  88764611.28445  21677182.938                    21677190.664
 116398512.845 8  90700193.303 7  22149902.344
 126507026.096 6  98576979.569 6  24073493.281                    24073501.582
 123822369.560 6  96485120.32443  23562601.313                    23562609.941
 109179355.124 8  85074787.866 7  20776119.039                    20776126.328
 112656953.971 8  87784710.298 7  21437898.188
 107639867.112 8  83875314.833 8  20483175.836                    20483182.891
 109919330.756 8  85651566.81646  20916938.695                    20916943.418
 11  7 29  2 54  0.0000000  0  8G10G25G29G04G12G01G05G02
 113983220.876 7  88818179.26945  21690264.953                    21690272.473
 116343050.055 7  90656975.576 7  22139348.242
 126424748.968 6  98512867.680 6  24057835.156                    24057844.977
 123904999.625 6  96549507.36543  23578325.531                    23578333.824
 109190576.741 7  85083531.977 7  20778254.273                    20778261.379
 112636275.479 8  87768597.205 7  21433963.414
 107604636.035 8  83847862.052 7  20476471.625                    20476478.883
 109946858.294 8  85673016.89246  20922176.594                    20922182.035
 11  7 29  2 54 30.0000000  0  8G10G25G29G04G12G01G05G02
 114052439.037 7  88872115.49945  21703436.789                    21703443.879
 116288083.868 7  90614144.809 7  22128888.523
 126342427.583 6  98448721.274 6  24042170.383                    24042179.434
 123987606.032 6  96613875.97943  23594045.133                    23594053.973
 109202381.334 7  85092730.361 7  20780500.711                    20780507.555
 112615817.470 8  87752655.926 7  21430070.250
 107569965.977 8  83820846.430 8  20469874.008                    20469881.047
 109974546.040 8  85694591.79946  20927445.625                    20927450.402
 11  7 29  2 55  0.0000000  0  8G10G25G29G04G12G01G05G02
 114122126.831 7  88926417.65945  21716697.805                    21716705.172
 116233616.018 8  90571702.356 7  22118523.320
 126260063.183 6  98384541.271 5  24026497.555                    24026505.922
 124070188.028 6  96678225.57643  23609760.031                    23609768.105
 109214768.289 7  85102382.529 7  20782858.039                    20782864.973
 112595579.001 7  87736885.712 8  21426219.148
 107535856.951 8  83794267.980 8  20463383.258                    20463390.543
 110002393.065 7  85716290.80146  20932744.633                    20932749.656
 11  7 29  2 55 30.0000000  0  8G10G25G29G04G12G01G05G02
 114192281.522 7  88981083.62745  21730047.992                    21730055.543
 116179648.181 7  90529649.533 7  22108253.820
 126177655.798 7  98320327.680 5  24010815.961                    24010823.121
 124152744.527 6  96742555.29743  23625469.938                    23625478.199
 109227736.868 8  85112487.911 7  20785325.789                    20785332.590
 112575558.762 8  87721285.551 7  21422409.305
 107502310.101 8  83768127.585 8  20456999.508                    20457006.914
 110030398.081 8  85738112.90446  20938073.531                    20938078.816
 11  7 29  2 56  0.0000000  0  8G10G25G29G04G12G01G05G02
 114262901.554 7  89036112.20345  21743486.469                    21743493.590
 116126182.940 8  90487988.321 7  22098079.508
 126095207.174 6  98256081.969 6  23995125.922                    23995133.738
 124235275.410 7  96806865.03844  23641175.156                    23641183.527
 109241287.488 8  85123046.828 7  20787904.195                    20787911.211
 112555756.617 8  87705855.335 7  21418640.867
 107469327.004 8  83742426.470 8  20450723.063                    20450729.988
 110058560.842 8  85760057.92346  20943433.508                    20943437.805
 11  7 29  2 56 30.0000000  0  8G10G25G29G04G12G01G05G02
 114333984.129 7  89091501.21245  21757012.953                    21757020.594
 116073222.333 8  90446720.332 7  22088001.750
 126012718.305 6  98191805.021 6  23979428.406                    23979437.547
 124317780.338 7  96871154.56743  23656875.281                    23656883.535
 109255419.793 8  85134059.012 7  20790593.805                    20790600.680
 112536172.134 8  87690594.725 7  21414914.172
 107436908.599 8  83717165.375 8  20444553.969                    20444561.168
 110086881.021 7  85782125.61546  20948822.555                    20948827.281
 11  7 29  2 57  0.0000000  0  8G10G25G29G04G12G01G05G02
 114405526.071 7  89147248.15845  21770627.195                    21770634.535
 116020767.690 8  90405846.617 7  22078019.438
 125930189.633 6  98127497.051 6  23963724.117                    23963732.727
 124400257.889 7  96935422.75443  23672570.484                    23672578.617
 109270133.000 8  85145523.845 7  20793393.445                    20793400.043
 112516803.633 8  87675502.408 7  21411228.617
 107405054.821 8  83692344.260 8  20438492.625                    20438499.789
 110115357.045 8  85804314.73746  20954241.133                    20954245.898
 11  7 29  2 57 30.0000000  0  8G10G25G29G04G12G01G05G02
 114477524.401 7  89203350.74345  21784328.148                    21784335.207
 115968820.310 8  90365368.171 7  22068134.516
 125847621.888 6  98063158.545 6  23948012.203                    23948020.387
 124482707.011 7  96999668.78443  23688260.180                    23688268.063
 109285425.733 8  85157440.252 7  20796303.734                    20796310.418
 112497650.087 8  87660577.602 7  21407584.063
 107373766.601 8  83667963.829 8  20432538.602                    20432545.613
 110143987.287 8  85826624.01546  20959689.289                    20959693.871
 11  7 29  2 58  0.0000000  0  8G10G25G29G04G12G01G05G02
 114549977.292 7  89259807.53445  21798114.961                    21798122.711
 115917382.445 7  90325286.746 7  22058346.367
 125765016.127 6  97998790.378 6  23932292.672                    23932301.188
 124565127.289 7  97063892.37143  23703943.781                    23703951.668
 109301298.139 8  85169808.362 7  20799324.047                    20799331.082
 112478711.052 8  87645819.930 7  21403979.836
 107343044.667 8  83644024.664 8  20426692.281                    20426699.188
 110172771.393 8  85849053.18146  20965166.313                    20965171.422
 11  7 29  2 58 30.0000000  0  8G10G25G29G04G12G01G05G02
 114622881.976 7  89316616.35845  21811988.617                    21811996.238
 115866456.312 8  90285604.067 7  22048655.555
 125682373.638 6  97934393.714 6  23916565.211                    23916575.230
 124647518.540 6  97128093.33643  23719622.867                    23719630.941
 109317749.623 8  85182627.697 7  20802454.867                    20802461.336
 112459986.223 8  87631229.187 7  21400416.391
 107312890.381 8  83620527.820 7  20420954.430                    20420961.535
 110201709.140 8  85871602.08446  20970673.430                    20970677.871
 11  7 29  2 59  0.0000000  0  8G10G25G29G04G12G01G05G02
 114696235.477 7  89373774.92645  21825946.977                    21825954.848
 115816043.163 8  90246321.106 7  22039062.289
 125599694.809 6  97869968.778 6  23900832.203                    23900842.301
 124729879.504 6  97192270.66743  23735294.688                    23735304.004
 109334779.272 8  85195897.551 7  20805695.469                    20805701.695
 112441474.047 8  87616804.141 7  21396893.906
 107283304.105 8  83597473.582 8  20415324.125                    20415331.133
 110230798.813 8  85894269.35746  20976209.000                    20976214.090
 11  7 29  2 59 30.0000000  0  8G10G25G29G04G12G01G05G02
 114770035.813 7  89431281.68645  21839991.250                    21839998.645
 115766145.174 8  90207439.581 7  22029566.430
 125516981.293 7  97805516.701 6  23885093.445                    23885102.121
 124812209.706 6  97256424.03143  23750962.141                    23750970.977
 109352387.256 8  85209618.049 7  20809045.852                    20809052.840
 112423174.286 8  87602544.617 7  21393411.531
 107254286.729 8  83574862.644 7  20409802.414                    20409809.707
 110260040.273 8  85917054.89546  20981773.258                    20981778.699
 11  7 29  3  0  0.0000000  0  8G10G25G29G04G12G01G05G02
 114844279.674 7  89489134.04045  21854119.352                    21854127.000
 115716763.577 7  90168960.443 7  22020169.523
 125434233.658 6  97741037.995 6  23869347.031                    23869355.176
 124894508.268 6  97320552.78543  23766622.930                    23766631.313
 109370572.244 8  85223788.174 7  20812506.508                    20812513.723
 112405085.252 8  87588449.289 7  21389969.297
 107225838.403 8  83552695.118 8  20404388.539                    20404396.113
 110289432.087 8  85939957.58546  20987366.344                    20987371.125
 11  7 29  3  0 30.0000000  0  8G10G25G29G04G12G01G05G02
 114918964.147 7  89547329.71445  21868331.289                    21868338.766
 115667899.966 8  90130884.931 7  22010870.695
 125351452.642 6  97676533.362 6  23853592.711                    23853602.734
 124976774.369 6  97384656.20843  23782277.461                    23782286.270
 109389333.252 8  85238407.145 7  20816076.328                    20816083.449
 112387206.304 8  87574517.675 7  21386566.563
 107197959.745 8  83530971.493 8  20399083.422                    20399090.859
 110318973.197 8  85962976.62546  20992987.938                    20992992.973
 11  7 29  3  1  0.0000000  0  8G10G25G29G04G12G01G05G02
 114994086.705 7  89605866.78245  21882626.414                    21882634.281
 115619556.284 8  90093214.552 7  22001671.484
 125268639.429 7  97612003.664 7  23837834.906                    23837844.285
 125059007.543 6  97448734.01243  23797925.523                    23797934.496
 109408670.124 8  85253474.837 7  20819756.008                    20819763.102
 112369536.756 8  87560749.215 7  21383204.531
 107170651.422 8  83509692.281 8  20393886.945                    20393893.855
 110348662.848 8  85986111.41046  20998637.750                    20998642.707
 11  7 29  3  1 30.0000000  0  8G10G25G29G04G12G01G05G02
 115069644.689 7  89664743.16145  21897004.336                    21897012.164
 115571734.198 8  90055950.610 7  21992571.297
 125185794.882 7  97547449.528 7  23822070.578                    23822079.566
 125141207.191 6  97512785.63443  23813567.859                    23813576.918
 109428582.313 8  85268990.824 7  20823545.477                    20823552.625
 112352075.834 8  87547143.332 7  21379881.648
 107143913.769 8  83488857.745 8  20388798.984                    20388806.395
 110378500.413 8  86009361.43546  21004315.508                    21004320.531
 11  7 29  3  2  0.0000000  0  8G10G25G29G04G12G01G05G02
 115145635.064 7  89723956.45245  21911464.703                    21911472.297
 115524434.908 8  90019094.038 7  21983570.563
 125102919.740 6  97482871.619 6  23806298.797                    23806308.961
 125223372.007 6  97576810.12243  23829203.898                    23829212.352
 109449067.985 8  85284953.681 7  20827443.586                    20827450.609
 112334822.270 8  87533699.020 7  21376598.398
 107117747.906 8  83468468.761 8  20383819.844                    20383827.164
 110408484.425 8  86032725.58746  21010021.570                    21010026.418
 11  7 29  3  2 30.0000000  0  8G10G25G29G04G12G01G05G02
 115222056.094 7  89783505.31545  21926007.563                    21926014.816
 115477660.899 8  89982646.775 7  21974669.719
 125020015.613 6  97418271.047 5  23790523.469                    23790531.195
 125305502.369 6  97640807.81843  23844832.461                    23844840.480
 109470127.694 8  85301363.848 7  20831451.563                    20831458.539
 112317775.887 8  87520416.143 7  21373354.461
 107092154.501 8  83448525.857 8  20378949.539                    20378956.563
 110438615.076 8  86056203.99346  21015754.945                    21015759.773
 11  7 29  3  3  0.0000000  0  8G10G25G29G04G12G01G05G02
 115298905.024 7  89843387.60845  21940630.883                    21940638.285
 115431413.796 8  89946610.095 7  21965869.484
 124937083.645 7  97353648.687 6  23774742.523                    23774750.504
 125387597.645 6  97704778.16343  23860454.250                    23860462.980
 109491760.209 8  85318220.352 7  20835567.922                    20835574.777
 112300935.892 8  87507294.087 7  21370150.078
 107067134.165 8  83429029.499 8  20374188.406                    20374195.695
 110468891.854 8  86079796.27346  21021516.555                    21021521.805
 11  7 29  3  3 30.0000000  0  8G10G25G29G04G12G01G05G02
 115376178.899 7  89903601.00245  21955336.102                    21955343.406
 115385695.110 7  89910985.163 7  21957169.469
 124854124.599 7  97289005.328 7  23758955.328                    23758965.230
 125469657.178 6  97768720.64643  23876070.047                    23876078.207
 109513964.591 8  85335522.474 7  20839793.211                    20839800.375
 112284301.479 8  87494332.227 7  21366984.820
 107042687.129 8  83409979.865 8  20369536.352                    20369543.242
 110499313.528 8  86103501.45346  21027305.617                    21027310.637
 11  7 29  3  4  0.0000000  0  8G10G25G29G04G12G01G05G02
 115453874.968 7  89964143.39245  21970120.961                    21970128.719
 115340506.280 8  89875773.112 7  21948570.258
 124771139.330 6  97224341.663 6  23743162.500                    23743173.266
 125551680.176 6  97832634.64643  23891678.563                    23891687.359
 109536740.310 8  85353269.778 7  20844127.234                    20844134.195
 112267871.751 8  87481529.863 7  21363858.148
 107018813.961 8  83391377.414 8  20364993.453                    20365000.254
 110529879.203 8  86127318.84646  21033122.023                    21033127.461
 11  7 29  3  4 30.0000000  0  8G10G25G29G04G12G01G05G02
 115531990.223 7  90025012.41844  21984985.570                    21984993.563
 115295848.766 8  89840975.071 7  21940071.781
 124688129.329 7  97159658.657 6  23727367.977                    23727376.141
 125633665.860 6  97896519.58543  23907280.484                    23907288.363
 109560086.202 8  85371461.381 7  20848569.813                    20848576.625
 112251645.769 8  87468886.270 7  21360770.063
 106995514.767 8  83373222.224 8  20360559.375                    20360566.551
 110560587.901 8  86151247.68446  21038965.625                    21038970.520
 11  7 29  3  5  0.0000000  0  8G10G25G29G04G12G01G05G02
 115610520.977 7  90086205.20644  21999929.805                    21999937.480
 115251723.262 8  89806591.577 7  21931675.156
 124605094.759 7  97094956.252 5  23711566.773                    23711573.117
 125715612.843 6  97960374.38043  23922874.820                    23922882.578
 109584000.460 8  85390095.856 7  20853120.492                    20853127.547
 112235621.625 8  87456399.947 7  21357720.875
 106972789.420 8  83355514.185 8  20356234.602                    20356242.191
 110591437.943 8  86175286.65946  21044836.242                    21044841.590
 11  7 29  3  5 30.0000000  0  8G10G25G29G04G12G01G05G02
 115689465.648 7  90147720.52445  22014952.766                    22014960.078
 115208132.395 8  89772624.699 7  21923379.938
 124522037.415 6  97030236.306 6  23695760.703                    23695770.523
 125797521.610 6  98024199.38843  23938461.383                    23938469.473
 109608483.351 8  85409173.426 7  20857779.500                    20857787.016
 112219800.021 8  87444071.445 7  21354710.227
 106950639.347 8  83338254.422 8  20352019.867                    20352027.023
 110622429.938 8  86199436.26146  21050733.758                    21050739.211
 11  7 29  3  6  0.0000000  0  8G10G25G29G04G12G01G05G02
 115768822.149 7  90209556.77045  22030053.500                    22030061.363
 115165078.094 7  89739075.917 7  21915187.117
 124438958.652 6  96965499.786 6  23679951.422                    23679961.180
 125879392.248 6  98087994.68443  23954039.836                    23954048.582
 109633534.095 8  85428693.480 7  20862546.734                    20862553.621
 112204180.035 8  87431900.059 7  21351737.859
 106929064.996 8  83321443.290 8  20347914.633                    20347921.344
 110653563.329 8  86223696.03646  21056658.195                    21056663.176
 11  7 29  3  6 30.0000000  0  8G10G25G29G04G12G01G05G02
 115848586.387 7  90271710.71245  22045232.250                    22045240.055
 115122560.600 8  89705945.425 7  21907096.438
 124355858.780 7  96900746.709 6  23664138.609                    23664147.098
 125961222.673 6  98151758.60743  23969611.594                    23969620.512
 109659151.129 8  85448654.792 7  20867421.406                    20867428.602
 112188759.712 8  87419884.255 7  21348803.328
 106908065.884 8  83305080.384 8  20343918.320                    20343925.430
 110684835.919 8  86248064.27446  21062609.430                    21062614.496
 11  7 29  3  7  0.0000000  0  8G10G25G29G04G12G01G05G02
 115928756.008 7  90334180.55245  22060488.141                    22060495.418
 115080582.005 8  89673234.858 7  21899107.945
 124272739.201 7  96835978.160 5  23648321.523                    23648328.543
 126043013.307 6  98215491.57043  23985176.469                    23985184.324
 109685333.473 8  85469056.609 7  20872403.453                    20872410.539
 112173539.126 8  87408024.082 7  21345907.000
 106887643.086 8  83289166.581 8  20340032.203                    20340039.008
 110716247.876 8  86272541.10746  21068586.688                    21068591.973
 11  7 29  3  7 30.0000000  0  8G10G25G29G04G12G01G05G02
 116009328.251 7  90396964.11145  22075820.008                    22075827.879
 115039143.849 8  89640945.407 7  21891222.211
 124189601.341 6  96771195.433 6  23632499.781                    23632508.723
 126124763.456 6  98279192.98843  24000732.680                    24000741.613
 109712080.294 8  85489898.280 7  20877493.555                    20877500.875
 112158517.276 8  87396318.770 7  21343048.602
 106867796.569 8  83273701.827 8  20336255.305                    20336262.578
 110747798.419 8  86297125.93946  21074590.563                    21074596.012
 11  7 29  3  8  0.0000000  0  8G10G25G29G04G12G01G05G02
 116090300.291 7  90460059.19745  22091228.852                    22091236.613
 114998247.131 8  89609077.855 7  21883439.906
 124106445.717 7  96706398.970 6  23616675.641                    23616685.430
 126206472.289 6  98342862.20743  24016281.828                    24016289.813
 109739390.391 8  85511178.865 7  20882690.164                    20882697.504
 112143693.097 8  87384767.485 7  21340227.602
 106848526.157 8  83258685.992 8  20332588.055                    20332595.227
 110779486.418 8  86321817.88746  21080620.828                    21080625.813
 11  7 29  3  8 30.0000000  0  8G10G25G29G04G12G01G05G02
 116171669.917 7  90523464.09645  22106712.898                    22106720.188
 114957893.803 8  89577633.725 7  21875761.039
 124023274.317 7  96641590.171 6  23600849.172                    23600858.621
 126288139.772 6  98406499.19242  24031822.211                    24031830.629
 109767262.835 8  85532897.639 7  20887994.469                    20888001.234
 112129066.207 8  87373369.925 7  21337444.000
 106829832.802 8  83244119.815 8  20329031.180                    20329038.301
 110811311.705 8  86346616.80646  21086676.922                    21086682.453
 11  7 29  3  9  0.0000000  0  8G10G25G29G04G12G01G05G02
 116253433.234 7  90587175.74644  22122272.281                    22122279.434
 114918084.566 8  89546613.569 7  21868185.852
 123940087.393 7  96576769.253 6  23585019.461                    23585027.762
 126369764.804 6  98470103.09943  24047355.742                    24047363.738
 109795696.091 8  85555053.418 7  20893404.961                    20893412.094
 112114635.140 8  87362124.967 7  21334697.945
 106811716.143 8  83230003.011 8  20325583.391                    20325590.488
 110843272.718 8  86371521.47946  21092758.945                    21092764.180
 11  7 29  3  9 30.0000000  0  8G10G25G29G04G12G01G05G02
 116335588.583 7  90651192.88945  22137905.969                    22137913.281
 114878821.693 8  89516019.141 7  21860714.359
 123856887.018 6  96511937.858 6  23569186.234                    23569194.668
 126451347.692 6  98533674.17342  24062879.484                    24062888.402
 109824689.940 8  85577646.026 7  20898922.375                    20898929.441
 112100400.130 7  87351032.776 8  21331989.313
 106794177.065 7  83216336.260 8  20322246.000                    20322252.879
 110875369.953 8  86396532.30946  21098867.164                    21098871.801
 11  7 29  3 10  0.0000000  0  8G10G25G29G04G12G01G05G02
 116418132.034 7  90715512.44644  22153613.195                    22153620.570
 114840105.479 8  89485850.689 7  21853346.688
 123773673.397 7  96447096.189 6  23553351.609                    23553360.074
 126532886.882 6  98597211.17542  24078396.516                    24078404.719
 109854242.280 8  85600673.815 7  20904545.773                    20904553.098
 112086359.251 8  87340091.849 7  21329317.461
 106777214.871 7  83203119.024 8  20319018.211                    20319025.180
 110907601.438 8  86421647.74546  21105000.227                    21105005.172
 11  7 29  3 10 30.0000000  0  8G10G25G29G04G12G01G05G02
 116501061.534 7  90780132.80344  22169393.891                    22169401.902
 114801937.762 8  89456109.625 7  21846083.602
 123690448.309 7  96382245.543 6  23537514.898                    23537523.629
 126614382.538 6  98660714.24343  24093904.352                    24093912.605
 109884352.274 8  85624136.144 7  20910275.453                    20910282.574
 112072511.979 8  87329301.793 7  21326682.039
 106760830.259 8  83190351.874 8  20315900.141                    20315907.176
 110939966.800 7  86446867.48946  21111159.281                    21111164.563
 11  7 29  3 11  0.0000000  0  8G10G25G29G04G12G01G05G02
 116584373.891 7  90845051.52344  22185247.711                    22185254.770
 114764319.809 8  89426796.955 7  21838925.234
 123607212.875 6  96317386.838 6  23521674.672                    23521684.398
 126695833.973 6  98724182.95043  24109404.094                    24109412.113
 109915018.689 8  85648032.040 7  20916111.586                    20916118.457
 112058857.825 8  87318662.215 7  21324083.773
 106745023.195 8  83178034.747 8  20312892.102                    20312898.984
 110972465.644 7  86472191.25246  21117343.484                    21117348.598
 11  7 29  3 11 30.0000000  0  8G10G25G29G04G12G01G05G02
 116668066.238 7  90910266.35944  22201174.000                    22201181.715
 114727252.595 8  89397913.438 7  21831871.602
 123523967.670 6  96252520.586 6  23505833.195                    23505842.938
 126777240.744 6  98787616.79142  24124895.563                    24124903.453
 109946240.351 7  85672360.607 7  20922052.383                    20922059.453
 112045395.381 8  87308172.019 7  21321522.063
 106729793.555 8  83166167.556 8  20309994.070                    20310001.000
 111005096.727 7  86497618.05646  21123552.977                    21123558.254
 11  7 29  3 12  0.0000000  0  8G10G25G29G04G12G01G05G02
 116752135.728 7  90975775.05344  22217171.539                    22217179.703
 114690737.306 8  89369459.996 7  21824922.789
 123440714.202 7  96187647.777 6  23489991.984                    23489999.156
 126858602.141 6  98851015.25543  24140378.414                    24140386.523
 109978015.671 8  85697120.597 7  20928099.195                    20928106.055
 112032123.900 8  87297830.635 7  21318996.430
 106715141.327 8  83154750.289 8  20307205.875                    20307212.734
 111037859.324 7  86523147.35346  21129787.680                    21129793.117
 11  7 29  3 12 30.0000000  0  8G10G25G29G04G12G01G05G02
 116836579.288 7  91041575.22044  22233240.664                    22233248.375
 114654775.134 8  89341437.551 7  21818079.398
 123357453.610 7  96122769.419 6  23474147.984                    23474156.230
 126939917.692 6  98914378.00343  24155851.750                    24155859.910
 110010343.781 8  85722311.325 7  20934251.242                    20934258.215
 112019042.569 8  87287637.413 7  21316506.969
 106701066.542 8  83143782.964 8  20304527.453                    20304534.230
 111070752.691 8  86548778.54146  21136046.477                    21136052.094
 11  7 29  3 13  0.0000000  0  8G10G25G29G04G12G01G05G02
 116921395.130 7  91107665.49044  22249381.414                    22249388.488
 114619368.297 8  89313847.830 7  21811341.438
 123274188.045 6  96057887.303 7  23458301.227                    23458311.809
 127021187.876 6  98977705.41543  24171317.195                    24171325.250
 110043223.707 8  85747932.040 7  20940508.063                    20940515.012
 112006151.737 8  87277592.621 7  21314053.773
 106687569.680 8  83133265.962 8  20301958.727                    20301966.148
 111103777.481 8  86574512.13246  21142331.469                    21142336.578
 11  7 29  3 13 30.0000000  0  8G10G25G29G04G12G01G05G02
 117006579.184 7  91174042.68244  22265590.852                    22265598.395
 114584516.958 8  89286690.972 7  21804709.727
 123190917.832 7  95993001.541 6  23442456.586                    23442465.625
 127102411.235 6  99040996.35643  24186773.070                    24186781.555
 110076653.461 8  85773981.205 7  20946869.289                    20946876.141
 111993449.270 8  87267694.590 7  21311636.992
 106674650.361 8  83123198.986 8  20299500.539                    20299507.395
 111136931.678 8  86600346.56346  21148640.141                    21148645.609
 11  7 29  3 14  0.0000000  0  8G10G25G29G04G12G01G05G02
 117092128.750 7  91240704.66444  22281870.273                    22281878.020
 114550222.310 8  89259967.891 7  21798183.367
 123107644.317 7  95928113.064 6  23426610.719                    23426617.148
 127183587.594 6  99104250.64143  24202220.469                    24202229.215
 110110632.000 7  85800457.986 7  20953335.297                    20953342.105
 111980934.524 8  87257942.831 7  21309255.484
 106662308.594 8  83113582.052 8  20297151.813                    20297158.504
 111170214.758 7  86626281.43246  21154973.773                    21154979.313
 11  7 29  3 14 30.0000000  0  8G10G25G29G04G12G01G05G02
 117178041.764 7  91307649.84644  22298219.234                    22298227.203
 114516486.165 8  89233680.005 7  21791763.727
 123024369.141 6  95863223.374 6  23410763.164                    23410771.777
 127264717.037 6  99167468.36343  24217659.828                    24217667.266
 110145158.091 8  85827361.429 7  20959905.406                    20959912.414
 111968607.186 8  87248337.100 7  21306909.523
 106650544.875 8  83104415.527 8  20294913.250                    20294920.207
 111203626.621 7  86652316.64346  21161331.453                    21161337.293
 11  7 29  3 15  0.0000000  0  8G10G25G29G04G12G01G05G02
 117264314.844 7  91374875.60144  22314635.984                    22314644.332
 114483308.889 8  89207827.605 7  21785450.398
 122941092.973 7  95798332.980 7  23394916.234                    23394925.789
 127345798.601 6  99230648.80543  24233088.852                    24233096.879
 110180230.037 7  85854690.220 7  20966579.273                    20966586.262
 111956466.023 8  87238876.437 7  21304599.188
 106639358.263 8  83095698.709 8  20292784.266                    20292791.730
 111237165.998 7  86678451.21646  21167714.281                    21167719.430
 11  7 29  3 15 30.0000000  0  8G10G25G29G04G12G01G05G02
 117350945.251 7  91442379.79444  22331121.844                    22331129.875
 114450691.870 8  89182411.763 7  21779243.648
 122857817.495 7  95733443.069 6  23379070.063                    23379078.094
 127426831.839 6  99293791.56743  24248508.219                    24248516.750
 110215846.714 8  85882443.475 7  20973356.898                    20973364.277
 111944510.326 8  87229560.286 7  21302324.242
 106628749.123 8  83087431.855 8  20290765.648                    20290772.688
 111270832.532 8  86704684.87946  21174121.000                    21174126.203
 11  7 29  3 16  0.0000000  0  8G10G25G29G04G12G01G05G02
 117437930.378 7  91510160.39544  22347674.633                    22347682.953
 114418636.487 8  89157433.564 7  21773143.383
 122774544.291 7  95668554.901 6  23363222.922                    23363230.605
 127507817.006 6  99356896.85743  24263919.547                    24263928.262
 110252006.762 8  85910620.134 7  20980238.094                    20980245.215
 111932739.819 8  87220388.452 7  21300084.664
 106618717.438 7  83079614.970 8  20288856.852                    20288863.785
 111304625.990 8  86731017.44346  21180551.602                    21180556.523
 11  7 29  3 16 30.0000000  0  8G10G25G29G04G12G01G05G02
 117525266.595 7  91578214.58944  22364293.516                    22364301.371
 114387142.808 8  89132893.059 7  21767150.461
 122691273.564 6  95603668.685 6  23347376.852                    23347385.281
 127588752.718 6  99419963.61643  24279320.742                    24279329.852
 110288708.281 8  85939218.720 7  20987222.398                    20987229.102
 111921152.581 8  87211359.414 7  21297879.359
 106609262.171 8  83072247.232 8  20287057.359                    20287063.969
 111338544.481 8  86757447.43246  21187005.961                    21187010.863
 11  7 29  3 17  0.0000000  0  8G10G25G29G04G12G01G05G02
 117612952.285 7  91646541.09844  22380980.172                    22380987.043
 114356213.208 8  89108792.092 7  21761264.797
 122608007.946 6  95538786.483 6  23331532.211                    23331541.004
 127669639.641 6  99482992.33843  24294713.063                    24294722.141
 110325950.286 8  85968238.465 7  20994308.938                    20994316.188
 111909749.079 8  87202473.538 7  21295709.500
 106600384.458 8  83065329.527 8  20285368.086                    20285375.023
 111372588.947 8  86783975.58046  21193484.469                    21193489.316
 11  7 29  3 17 30.0000000  0  8G10G25G29G04G12G01G05G02
 117700983.496 7  91715136.84444  22397731.797                    22397739.656
 114325847.751 8  89085130.710 7  21755486.094
 122524747.906 6  95473908.617 6  23315688.195                    23315696.594
 127750476.689 6  99545982.19043  24310096.125                    24310104.855
 110363730.941 8  85997677.935 7  21001498.563                    21001505.797
 111898527.793 8  87193729.660 7  21293573.820
 106592083.185 7  83058861.001 8  20283788.547                    20283795.195
 111406757.590 7  86810600.50246  21199986.555                    21199991.930
 11  7 29  3 18  0.0000000  0  9G10G25G26G29G04G12G01G05G02
 117789357.288 7  91783999.53744  22414548.727                    22414555.992
 114296047.033 8  89061909.381 7  21749815.430
 130413397.16416 101620894.56653  24816852.313                    24816861.031
 122441494.503 6  95409035.892 6  23299844.516                    23299852.637
 127831263.297 6  99608932.75943  24325469.172                    24325477.438
 110402048.607 8  86027535.847 7  21008789.695                    21008796.883
 111887487.722 8  87185127.002 7  21291473.000
 106584358.023 8  83052841.402 8  20282318.492                    20282325.313
 111441049.659 8  86837321.59546  21206512.031                    21206517.262
 11  7 29  3 18 30.0000000  0  9G10G25G26G29G04G12G01G05G02
 117878071.832 7  91853127.77744  22431430.586                    22431437.492
 114266813.352 8  89039129.912 7  21744252.508
 130318699.262 6 101547104.10042  24798831.953                    24798841.086
 122358250.427 6  95344170.439 6  23284004.414                    23284012.828
 127912000.318 5  99671844.72543  24340832.609                    24340841.563
 110440902.232 8  86057811.405 7  21016183.594                    21016190.785
 111876629.013 8  87176665.686 7  21289406.773
 106577209.698 8  83047271.275 8  20280957.938                    20280964.949
 111475466.015 8  86864139.53146  21213061.336                    21213066.324
 11  7 29  3 19  0.0000000  0  9G10G25G26G29G04G12G01G05G02
 117967123.471 7  91922518.69344  22448376.836                    22448383.434
 114238146.768 8  89016792.322 7  21738797.898
 130223878.992 6 101473218.30942  24780788.867                    24780797.621
 122275016.161 6  95279312.637 6  23268165.453                    23268174.230
 127992686.608 6  99734717.13843  24356187.414                    24356195.672
 110480290.201 8  86088503.330 7  21023678.922                    21023686.313
 111865950.196 8  87168344.558 7  21287374.609
 106570636.984 8  83042149.670 8  20279706.773                    20279714.160
 111510004.905 7  86891052.95046  21219634.109                    21219639.137
 11  7 29  3 19 30.0000000  0  9G10G25G26G29G04G12G01G05G02
 118056508.809 7  91992169.60144  22465386.258                    22465393.555
 114210047.778 7  88994897.015 7  21733450.148
 130128939.035 6 101399239.20342  24762721.703                    24762731.020
 122191792.481 6  95214463.144 6  23252327.891                    23252336.797
 128073321.325 6  99797549.36843  24371531.180                    24371540.852
 110520209.967 8  86119609.639 7  21031275.313                    21031282.586
 111855450.191 8  87160162.755 7  21285376.555
 106564639.215 8  83037476.080 8  20278565.781                    20278573.000
 111544665.342 8  86918061.07046  21226229.492                    21226235.207
 11  7 29  3 20  0.0000000  0  9G10G25G26G29G04G12G01G05G02
 118146225.963 7  92062079.07644  22482458.609                    22482465.770
 114182518.007 7  88973445.263 7  21728211.477
 130033882.856 6 101325169.58943  24744634.250                    24744642.836
 122108581.545 7  95149623.500 6  23236494.125                    23236501.277
 128153904.885 5  99860341.73742  24386865.789                    24386874.477
 110560660.888 8  86151129.826 7  21038972.906                    21038979.906
 111845129.091 8  87152120.379 7  21283412.531
 106559216.846 8  83033250.864 8  20277534.219                    20277541.273
 111579447.575 7  86945164.10346  21232848.703                    21232853.941
 11  7 29  3 20 30.0000000  0  9G10G25G26G29G04G12G01G05G02
 118236271.876 7  92132244.72844  22499594.055                    22499601.090
 114155558.404 8  88952437.807 7  21723081.180
 129938713.509 6 101251011.72442  24726522.609                    24726531.977
 122025384.810 6  95084794.909 6  23220661.563                    23220669.832
 128234437.018 6  99923094.04742  24402189.875                    24402199.273
 110601641.351 8  86183062.648 7  21046771.398                    21046778.621
 111834985.842 8  87144216.568 7  21281482.453
 106554369.973 8  83029474.086 8  20276611.547                    20276618.918
 111614351.214 8  86972361.74146  21239490.445                    21239495.504
 11  7 29  3 21  0.0000000  0  9G10G25G26G29G04G12G01G05G02
 118326643.340 7  92202664.03444  22516791.500                    22516798.422
 114129169.099 8  88931874.734 7  21718059.320
 129843433.450 6 101176767.62142  24708391.445                    24708400.996
 121942203.300 6  95019978.275 6  23204832.859                    23204841.473
 128314916.934 6  99985805.63643  24417505.508                    24417513.727
 110643149.306 8  86215406.497 7  21054669.938                    21054677.059
 111825019.276 8  87136450.423 7  21279585.789
 106550097.345 8  83026144.777 8  20275798.391                    20275805.387
 111649375.112 8  86999653.08746  21246155.453                    21246160.613
 11  7 29  3 21 30.0000000  0  9G10G25G26G29G04G12G01G05G02
 118417337.502 7  92273334.78644  22534049.422                    22534057.402
 114103351.082 8  88911756.820 7  21713146.820
 129748045.573 6 101102439.47742  24690239.414                    24690249.055
 121859038.296 7  94955174.440 6  23189007.336                    23189015.504
 128395344.409 6 100048476.31542  24432810.336                    24432818.969
 110685182.984 8  86248160.009 7  21062668.672                    21062675.848
 111815228.290 8  87128821.100 7  21277722.563
 106546398.348 8  83023262.452 8  20275094.805                    20275101.855
 111684518.712 8  87027037.70546  21252842.891                    21252847.832
 11  7 29  3 22  0.0000000  0  9G10G25G26G29G04G12G01G05G02
 118508351.516 6  92344254.77244  22551368.523                    22551376.602
 114078105.200 8  88892084.722 7  21708342.195
 129652553.077 6 101028029.85242  24672068.570                    24672077.594
 121775891.279 6  94890384.577 6  23173184.711                    23173192.633
 128475719.149 6 100111105.93843  24448104.789                    24448114.254
 110727740.997 8  86281322.089 7  21070767.328                    21070774.512
 111805612.843 8  87121328.571 7  21275892.938
 106543272.990 8  83020827.107 8  20274500.391                    20274507.152
 111719781.500 7  87054515.18946  21259553.031                    21259558.109
 11  7 29  3 22 30.0000000  0  9G10G25G26G29G04G12G01G05G02
 118599682.433 6  92415421.70044  22568748.273                    22568756.137
 114053432.211 8  88872859.033 7  21703647.125
 129556958.654 6 100953540.76543  24653877.742                    24653886.242
 121692763.646 7  94825609.867 6  23157366.367                    23157374.453
 128556040.839 6 100173694.25242  24463388.836                    24463398.281
 110770821.484 8  86314891.299 7  21078965.336                    21078972.223
 111796171.809 8  87113971.978 8  21274096.586
 106540720.923 8  83018838.501 8  20274014.617                    20274021.195
 111755162.763 8  87082085.00846  21266286.078                    21266290.910
 11  7 29  3 23  0.0000000  0  9G10G25G26G29G04G12G01G05G02
 118691327.426 6  92486833.36944  22586187.727                    22586195.617
 114029333.039 8  88854080.475 7  21699061.500
 129461265.762 6 100878974.98143  24635667.445                    24635675.676
 121609657.311 7  94760851.757 6  23141552.055                    23141560.852
 128636309.409 6 100236241.16543  24478665.109                    24478673.246
 110814422.926 8  86348866.431 7  21087262.133                    21087268.992
 111786904.948 8  87106751.117 7  21272332.602
 106538741.564 8  83017296.148 8  20273637.773                    20273644.375
 111790662.385 8  87109747.04646  21273040.938                    21273046.305
 11  7 29  3 23 30.0000000  0  9G10G25G26G29G04G12G01G05G02
 118783283.134 6  92558487.15844  22603687.063                    22603694.145
 114005807.718 8  88835749.073 7  21694584.641
 129365476.749 6 100804334.21343  24617439.383                    24617448.445
 121526572.947 7  94696110.762 6  23125741.172                    23125748.816
 128716524.178 6 100298746.10742  24493929.016                    24493937.754
 110858542.817 8  86383245.557 7  21095657.961                    21095664.832
 111777810.525 8  87099664.631 7  21270602.141
 106537333.967 8  83016199.333 8  20273370.016                    20273376.805
 111826279.139 8  87137500.35246  21279818.828                    21279824.016
